[[{"header":{"parameterUnit":"m.s-1","parameterCategory":1,"la1":31.0,"la2":29.5877,"lo1":-88.7671,"lo2":-86.6584,"dy":0.0162,"dx":0.0185,"nx":115,"ny":88,"refTime":"2024-04-10T06:00:00:Z","depth":0,"parameterNumber":2,"parameterNumberName":"U-component_of_WINDS"},"data":[0.0,0.0,0.0,0.0,0.0,0.0,0.0,0.0,0.0,0.0,0.0,0.0,0.0,0.0,0.0,0.0,0.0,0.0,0.0,0.0,0.0,0.0,0.0,0.0,0.0,0.0,0.0,0.0,0.0,0.0,0.0,0.0,0.0,0.0,0.0,0.0,0.0,0.0,0.0,0.0,0.0,0.0,0.0,0.0,0.0,0.0,0.0,0.0,0.0,0.0,0.0,0.0,0.0,0.0,0.0,0.0,0.0,0.0,0.0,0.0,0.0,0.0,0.0,0.0,0.0,0.0,0.0,0.0,0.0,0.0,0.0,0.0,0.0,0.0,0.0,0.0,0.0,0.0,0.0,0.0,0.0,0.0,0.0,0.0,0.0,0.0,0.0,0.0,0.0,0.0,0.0,0.0,0.0,0.0,0.0,0.0,0.0,0.0,0.0,0.0,0.0,0.0,0.0,0.0,0.0,0.0,0.0,0.0,0.0,0.0,0.0,0.0,0.0,0.0,0.0,0.0,0.0,0.0,0.0,0.0,0.0,0.0,0.0,0.0,0.0,0.0,0.0,0.0,0.0,0.0,0.0,0.0,0.0,0.0,0.0,0.0,0.0,0.0,0.0,0.0,0.0,0.0,0.0,0.0,0.0,0.0,0.0,0.0,0.0,0.0,0.0,0.0,0.0,0.0,0.0,0.0,0.0,0.0,0.0,0.0,0.0,0.0,0.0,0.0,0.0,0.0,0.0,0.0,0.0,0.0,0.0,0.0,0.0,0.0,0.0,0.0,0.0,0.0,0.0,0.0,0.0,0.0,0.0,0.0,0.0,0.0,0.0,0.0,0.0,0.0,0.0,0.0,0.0,0.0,0.0,0.0,0.0,0.0,0.0,0.0,0.0,0.0,0.0,0.0,0.0,0.0,0.0,0.0,0.0,0.0,0.0,0.0,0.0,0.0,0.0,0.0,0.0,0.0,0.0,0.0,0.0,0.0,0.0,0.0,0.0,0.0,0.0,0.0,0.0,0.0,0.0,0.0,0.0,0.0,0.0,0.0,0.0,0.0,0.0,0.0,0.0,0.0,0.0,0.0,0.0,0.0,0.0,0.0,0.0,0.0,0.0,0.0,0.0,0.0,0.0,0.0,0.0,0.0,0.0,0.0,0.0,0.0,0.0,0.0,0.0,0.0,0.0,0.0,0.0,0.0,0.0,0.0,0.0,0.0,0.0,0.0,0.0,0.0,0.0,0.0,0.0,0.0,0.0,0.0,0.0,0.0,0.0,0.0,0.0,0.0,0.0,0.0,0.0,0.0,0.0,0.0,0.0,0.0,0.0,0.0,0.0,0.0,0.0,0.0,0.0,0.0,0.0,0.0,0.0,0.0,0.0,0.0,0.0,0.0,0.0,0.0,0.0,0.0,0.0,0.0,0.0,0.0,0.0,0.0,0.0,0.0,0.0,0.0,0.0,0.0,0.0,0.0,0.0,0.0,0.0,0.0,0.0,0.0,0.0,0.0,0.0,0.0,0.0,0.0,0.0,0.0,0.0,0.0,0.0,0.0,0.0,0.0,0.0,0.0,0.0,0.0,0.0,0.0,0.0,0.0,0.0,0.0,0.0,0.0,0.0,0.0,0.0,0.0,0.0,0.0,0.0,0.0,0.0,0.0,0.0,0.0,0.0,0.0,0.0,0.0,0.0,0.0,0.0,0.0,0.0,0.0,0.0,0.0,0.0,0.0,0.0,0.0,0.0,0.0,0.0,0.0,0.0,0.0,0.0,0.0,0.0,0.0,0.0,0.0,0.0,0.0,0.0,0.0,0.0,0.0,0.0,0.0,0.0,0.0,0.0,0.0,0.0,0.0,0.0,0.0,0.0,0.0,0.0,0.0,0.0,0.0,0.0,0.0,0.0,0.0,0.0,0.0,0.0,0.0,0.0,0.0,0.0,0.0,0.0,0.0,0.0,0.0,0.0,0.0,0.0,0.0,0.0,0.0,0.0,0.0,0.0,0.0,0.0,0.0,0.0,0.0,0.0,0.0,0.0,0.0,0.0,0.0,0.0,0.0,0.0,0.0,0.0,0.0,0.0,0.0,0.0,0.0,0.0,0.0,0.0,0.0,0.0,0.0,0.0,0.0,0.0,0.0,0.0,0.0,0.0,0.0,0.0,0.0,0.0,0.0,0.0,0.0,0.0,0.0,0.0,0.0,0.0,0.0,0.0,0.0,0.0,0.0,0.0,0.0,0.0,0.0,0.0,0.0,0.0,0.0,0.0,0.0,0.0,0.0,0.0,0.0,0.0,0.0,0.0,0.0,0.0,0.0,0.0,0.0,0.0,0.0,0.0,0.0,0.0,0.0,0.0,0.0,0.0,0.0,0.0,0.0,0.0,0.0,0.0,0.0,0.0,0.0,0.0,0.0,0.0,0.0,0.0,0.0,0.0,0.0,0.0,0.0,0.0,0.0,0.0,0.0,0.0,0.0,0.0,0.0,0.0,0.0,0.0,0.0,0.0,0.0,0.0,0.0,0.0,0.0,0.0,0.0,0.0,0.0,0.0,0.0,0.0,0.0,0.0,0.0,0.0,0.0,0.0,0.0,0.0,0.0,0.0,0.0,0.0,0.0,0.0,0.0,0.0,0.0,0.0,0.0,0.0,0.0,0.0,0.0,0.0,0.0,0.0,0.0,0.0,0.0,0.0,0.0,0.0,0.0,0.0,0.0,0.0,0.0,0.0,0.0,0.0,0.0,0.0,0.0,0.0,0.0,0.0,0.0,0.0,0.0,0.0,0.0,0.0,0.0,0.0,0.0,0.0,0.0,0.0,0.0,0.0,0.0,0.0,0.0,0.0,0.0,0.0,0.0,0.0,0.0,0.0,0.0,0.0,0.0,0.0,0.0,0.0,0.0,0.0,0.0,0.0,0.0,0.0,0.0,0.0,0.0,0.0,0.0,0.0,0.0,0.0,0.0,0.0,0.0,0.0,0.0,0.0,0.0,0.0,0.0,0.0,0.0,0.0,0.0,0.0,0.0,0.0,0.0,0.0,0.0,0.0,0.0,0.0,0.0,0.0,0.0,0.0,0.0,0.0,0.0,0.0,0.0,0.0,0.0,0.0,0.0,0.0,0.0,0.0,0.0,0.0,0.0,0.0,0.0,0.0,0.0,0.0,0.0,0.0,0.0,0.0,0.0,0.0,0.0,0.0,0.0,0.0,0.0,0.0,0.0,0.0,0.0,0.0,0.0,0.0,0.0,0.0,0.0,0.0,0.0,0.0,0.0,0.0,0.0,0.0,0.0,0.0,0.0,0.0,0.0,0.0,0.0,0.0,0.0,0.0,0.0,0.0,0.0,0.0,0.0,0.0,0.0,0.0,0.0,0.0,0.0,0.0,0.0,0.0,0.0,0.0,0.0,0.0,0.0,0.0,0.0,0.0,0.0,0.0,0.0,0.0,0.0,0.0,0.0,0.0,0.0,0.0,0.0,0.0,0.0,0.0,0.0,0.0,0.0,0.0,0.0,0.0,0.0,0.0,0.0,0.0,0.0,0.0,0.0,0.0,0.0,0.0,0.0,0.0,0.0,0.0,0.0,0.0,0.0,0.0,0.0,0.0,0.0,0.0,0.0,0.0,0.0,0.0,0.0,0.0,0.0,0.0,0.0,0.0,0.0,0.0,0.0,0.0,0.0,0.0,0.0,0.0,0.0,0.0,0.0,0.0,0.0,0.0,0.0,0.0,0.0,0.0,0.0,0.0,0.0,0.0,0.0,0.0,0.0,0.0,0.0,0.0,0.0,0.0,0.0,0.0,0.0,0.0,0.0,0.0,0.0,0.0,0.0,0.0,0.0,0.0,0.0,0.0,0.0,0.0,0.0,0.0,0.0,0.0,0.0,0.0,0.0,0.0,0.0,0.0,0.0,0.0,0.0,0.0,0.0,0.0,0.0,0.0,0.0,0.0,0.0,0.0,0.0,0.0,0.0,0.0,0.0,0.0,0.0,0.0,0.0,0.0,0.0,0.0,0.0,0.0,0.0,0.0,0.0,0.0,0.0,0.0,0.0,0.0,0.0,0.0,0.0,0.0,0.0,0.0,0.0,0.0,0.0,0.0,0.0,0.0,0.0,0.0,0.0,0.0,0.0,0.0,0.0,0.0,0.0,0.0,0.0,0.0,0.0,0.0,0.0,0.0,0.0,0.0,0.0,0.0,0.0,0.0,0.0,0.0,0.0,0.0,0.0,0.0,0.0,0.0,0.0,0.0,0.0,0.0,0.0,0.0,0.0,0.0,0.0,-7.0021,0.0,0.0,0.0,0.0,0.0,0.0,0.0,0.0,0.0,0.0,0.0,0.0,0.0,0.0,0.0,0.0,0.0,0.0,0.0,0.0,0.0,0.0,0.0,0.0,0.0,0.0,0.0,0.0,0.0,0.0,0.0,0.0,0.0,0.0,0.0,0.0,0.0,0.0,0.0,0.0,0.0,0.0,0.0,0.0,0.0,0.0,0.0,0.0,0.0,0.0,0.0,0.0,0.0,0.0,0.0,0.0,0.0,0.0,0.0,0.0,0.0,0.0,0.0,0.0,0.0,0.0,0.0,0.0,0.0,0.0,0.0,0.0,0.0,0.0,0.0,0.0,0.0,0.0,0.0,0.0,0.0,0.0,0.0,0.0,0.0,0.0,0.0,0.0,0.0,0.0,0.0,0.0,0.0,0.0,0.0,0.0,0.0,0.0,0.0,0.0,0.0,0.0,0.0,0.0,0.0,0.0,0.0,0.0,0.0,0.0,-6.8226,-7.0739,-6.661,-6.637,-7.0679,0.0,0.0,0.0,0.0,0.0,0.0,0.0,0.0,0.0,0.0,0.0,0.0,0.0,0.0,0.0,0.0,0.0,0.0,0.0,0.0,0.0,0.0,0.0,0.0,0.0,0.0,0.0,0.0,0.0,0.0,0.0,0.0,0.0,0.0,0.0,0.0,0.0,0.0,0.0,0.0,0.0,0.0,0.0,0.0,0.0,0.0,0.0,0.0,0.0,0.0,0.0,0.0,0.0,0.0,0.0,0.0,0.0,0.0,0.0,0.0,0.0,0.0,0.0,0.0,0.0,0.0,0.0,0.0,0.0,0.0,0.0,0.0,0.0,0.0,0.0,0.0,0.0,0.0,0.0,0.0,0.0,0.0,0.0,0.0,0.0,0.0,0.0,0.0,0.0,0.0,0.0,0.0,0.0,0.0,0.0,0.0,0.0,0.0,0.0,0.0,0.0,0.0,0.0,0.0,0.0,0.0,0.0,0.0,0.0,0.0,0.0,0.0,-6.6246,-6.6191,-7.062,0.0,0.0,0.0,0.0,0.0,0.0,0.0,0.0,0.0,0.0,0.0,0.0,0.0,0.0,0.0,0.0,0.0,0.0,0.0,0.0,0.0,0.0,0.0,0.0,0.0,0.0,0.0,0.0,0.0,0.0,0.0,0.0,0.0,0.0,0.0,0.0,0.0,0.0,0.0,0.0,0.0,0.0,0.0,0.0,0.0,0.0,0.0,0.0,0.0,0.0,0.0,0.0,0.0,0.0,0.0,0.0,0.0,0.0,0.0,0.0,0.0,0.0,0.0,0.0,0.0,0.0,0.0,0.0,0.0,0.0,0.0,0.0,0.0,0.0,0.0,0.0,0.0,0.0,0.0,0.0,0.0,0.0,0.0,0.0,0.0,0.0,0.0,0.0,0.0,0.0,0.0,0.0,0.0,0.0,0.0,0.0,0.0,0.0,0.0,0.0,0.0,0.0,0.0,0.0,0.0,0.0,0.0,0.0,0.0,0.0,-6.9838,-6.8354,-6.9483,0.0,-7.0859,0.0,0.0,0.0,0.0,0.0,0.0,0.0,0.0,0.0,0.0,0.0,0.0,0.0,0.0,0.0,0.0,0.0,0.0,0.0,0.0,0.0,0.0,0.0,0.0,0.0,0.0,0.0,0.0,0.0,0.0,0.0,0.0,0.0,0.0,0.0,0.0,0.0,0.0,0.0,0.0,0.0,0.0,0.0,0.0,0.0,0.0,0.0,0.0,0.0,0.0,0.0,0.0,0.0,0.0,0.0,0.0,0.0,0.0,0.0,0.0,0.0,0.0,0.0,0.0,0.0,0.0,0.0,0.0,0.0,0.0,0.0,0.0,0.0,0.0,0.0,0.0,0.0,0.0,0.0,0.0,0.0,0.0,0.0,0.0,0.0,0.0,0.0,0.0,0.0,0.0,0.0,0.0,0.0,0.0,0.0,0.0,0.0,0.0,0.0,0.0,0.0,0.0,0.0,0.0,0.0,0.0,0.0,0.0,0.0,0.0,-6.8952,-6.8083,-6.841,-6.9398,0.0,0.0,0.0,0.0,0.0,0.0,0.0,0.0,0.0,0.0,0.0,0.0,0.0,0.0,0.0,0.0,0.0,0.0,0.0,0.0,0.0,0.0,0.0,0.0,0.0,0.0,0.0,0.0,0.0,0.0,0.0,0.0,0.0,0.0,0.0,0.0,0.0,0.0,0.0,0.0,0.0,0.0,0.0,0.0,0.0,0.0,0.0,0.0,0.0,0.0,0.0,0.0,0.0,0.0,0.0,0.0,0.0,0.0,0.0,0.0,0.0,0.0,0.0,0.0,0.0,0.0,0.0,0.0,0.0,0.0,0.0,0.0,0.0,0.0,0.0,0.0,0.0,0.0,0.0,0.0,0.0,0.0,0.0,0.0,0.0,0.0,0.0,0.0,0.0,0.0,0.0,0.0,0.0,0.0,0.0,0.0,0.0,0.0,0.0,0.0,0.0,0.0,0.0,0.0,0.0,0.0,0.0,0.0,0.0,0.0,-6.7523,-6.7737,-6.7564,-6.6564,-6.6969,-6.8826,0.0,0.0,0.0,0.0,0.0,0.0,0.0,0.0,0.0,0.0,0.0,0.0,0.0,0.0,0.0,0.0,0.0,0.0,0.0,0.0,0.0,0.0,0.0,0.0,0.0,0.0,0.0,0.0,0.0,0.0,0.0,0.0,0.0,0.0,0.0,0.0,0.0,0.0,0.0,0.0,0.0,0.0,0.0,0.0,0.0,0.0,0.0,0.0,0.0,0.0,0.0,0.0,0.0,0.0,0.0,0.0,0.0,0.0,0.0,0.0,0.0,0.0,0.0,0.0,0.0,0.0,0.0,0.0,0.0,0.0,0.0,0.0,0.0,0.0,0.0,0.0,0.0,0.0,0.0,0.0,0.0,0.0,0.0,0.0,0.0,0.0,0.0,0.0,0.0,0.0,0.0,0.0,0.0,0.0,0.0,0.0,0.0,0.0,0.0,0.0,0.0,0.0,0.0,0.0,0.0,0.0,0.0,0.0,-6.4413,-6.6157,-6.6873,-6.6412,-6.4572,-6.375,0.0,0.0,0.0,0.0,0.0,0.0,0.0,0.0,0.0,0.0,0.0,0.0,0.0,0.0,0.0,0.0,0.0,0.0,0.0,0.0,0.0,0.0,0.0,0.0,0.0,0.0,0.0,0.0,0.0,0.0,0.0,0.0,0.0,0.0,0.0,0.0,0.0,0.0,0.0,0.0,0.0,0.0,0.0,0.0,0.0,0.0,0.0,0.0,0.0,0.0,0.0,0.0,0.0,0.0,0.0,0.0,0.0,0.0,0.0,0.0,0.0,0.0,0.0,0.0,0.0,0.0,0.0,0.0,0.0,0.0,0.0,0.0,0.0,0.0,0.0,0.0,0.0,0.0,0.0,0.0,0.0,0.0,0.0,0.0,0.0,0.0,0.0,0.0,0.0,0.0,0.0,0.0,0.0,0.0,0.0,0.0,0.0,0.0,0.0,0.0,0.0,0.0,0.0,0.0,0.0,0.0,0.0,0.0,0.0,-6.2951,-6.3767,-6.5222,-6.7257,-6.3966,-6.2919,0.0,0.0,0.0,0.0,0.0,0.0,0.0,0.0,0.0,0.0,0.0,0.0,0.0,0.0,0.0,0.0,0.0,0.0,0.0,0.0,0.0,0.0,0.0,0.0,0.0,0.0,0.0,0.0,0.0,0.0,0.0,0.0,0.0,0.0,0.0,0.0,0.0,0.0,0.0,0.0,0.0,0.0,0.0,0.0,0.0,0.0,0.0,0.0,0.0,0.0,0.0,0.0,0.0,0.0,0.0,0.0,0.0,0.0,0.0,0.0,0.0,0.0,0.0,0.0,0.0,0.0,0.0,0.0,0.0,0.0,0.0,0.0,0.0,0.0,0.0,0.0,0.0,0.0,0.0,0.0,0.0,0.0,0.0,0.0,0.0,0.0,0.0,0.0,0.0,0.0,0.0,0.0,0.0,0.0,0.0,0.0,0.0,0.0,0.0,0.0,0.0,0.0,0.0,0.0,0.0,0.0,0.0,0.0,0.0,-6.1395,0.0,-6.1932,-6.4859,-6.2148,-6.1304,0.0,0.0,0.0,0.0,0.0,0.0,0.0,0.0,0.0,0.0,0.0,0.0,0.0,0.0,0.0,0.0,0.0,0.0,0.0,0.0,0.0,0.0,0.0,0.0,0.0,0.0,0.0,0.0,0.0,0.0,0.0,0.0,0.0,0.0,0.0,0.0,0.0,0.0,0.0,0.0,0.0,0.0,0.0,0.0,0.0,0.0,0.0,0.0,0.0,0.0,0.0,0.0,0.0,0.0,0.0,0.0,0.0,0.0,0.0,0.0,0.0,0.0,0.0,0.0,0.0,0.0,0.0,0.0,0.0,0.0,0.0,0.0,0.0,0.0,0.0,0.0,0.0,0.0,0.0,0.0,0.0,0.0,0.0,0.0,0.0,0.0,0.0,0.0,0.0,0.0,0.0,0.0,0.0,0.0,0.0,0.0,0.0,0.0,0.0,0.0,0.0,0.0,0.0,0.0,0.0,0.0,0.0,0.0,-5.9513,-5.971,-5.7689,-5.7531,-5.8956,-5.9167,-5.8641,0.0,0.0,0.0,0.0,0.0,0.0,0.0,0.0,0.0,0.0,0.0,0.0,0.0,0.0,0.0,0.0,0.0,0.0,0.0,0.0,0.0,0.0,0.0,0.0,0.0,0.0,0.0,0.0,0.0,0.0,0.0,0.0,0.0,0.0,0.0,0.0,0.0,0.0,0.0,0.0,0.0,0.0,0.0,0.0,0.0,0.0,0.0,0.0,0.0,0.0,0.0,0.0,0.0,0.0,0.0,0.0,0.0,0.0,0.0,0.0,0.0,0.0,0.0,0.0,0.0,0.0,0.0,0.0,0.0,0.0,0.0,0.0,0.0,0.0,0.0,0.0,0.0,0.0,0.0,0.0,0.0,0.0,0.0,0.0,0.0,0.0,0.0,0.0,0.0,0.0,0.0,0.0,0.0,0.0,0.0,0.0,0.0,0.0,0.0,0.0,0.0,0.0,0.0,0.0,0.0,0.0,0.0,0.0,0.0,-6.1343,-5.8094,-5.8662,-6.3238,-6.0108,-5.9161,0.0,0.0,0.0,0.0,0.0,0.0,0.0,0.0,0.0,0.0,0.0,0.0,0.0,0.0,0.0,0.0,0.0,0.0,0.0,0.0,0.0,0.0,0.0,0.0,0.0,0.0,0.0,0.0,0.0,0.0,0.0,0.0,0.0,0.0,0.0,0.0,0.0,0.0,0.0,0.0,0.0,0.0,0.0,0.0,0.0,0.0,0.0,0.0,0.0,0.0,0.0,0.0,0.0,0.0,0.0,0.0,0.0,0.0,0.0,0.0,0.0,0.0,0.0,0.0,0.0,0.0,0.0,0.0,0.0,0.0,0.0,0.0,0.0,0.0,0.0,0.0,0.0,0.0,0.0,0.0,0.0,0.0,0.0,0.0,0.0,0.0,0.0,0.0,0.0,0.0,0.0,0.0,0.0,0.0,0.0,0.0,0.0,0.0,0.0,0.0,0.0,0.0,0.0,0.0,0.0,0.0,0.0,0.0,0.0,-6.1033,-5.7633,-5.7892,-6.2638,-5.9922,-5.9357,-6.1165,0.0,0.0,0.0,0.0,0.0,0.0,0.0,0.0,0.0,0.0,0.0,0.0,0.0,0.0,0.0,0.0,0.0,0.0,0.0,0.0,0.0,0.0,0.0,0.0,0.0,0.0,0.0,0.0,0.0,0.0,0.0,0.0,0.0,0.0,0.0,0.0,0.0,0.0,0.0,0.0,0.0,0.0,0.0,0.0,0.0,0.0,0.0,0.0,0.0,0.0,0.0,0.0,0.0,0.0,0.0,0.0,0.0,0.0,0.0,0.0,0.0,0.0,0.0,0.0,0.0,0.0,0.0,0.0,0.0,0.0,0.0,0.0,0.0,0.0,0.0,0.0,0.0,0.0,0.0,0.0,0.0,0.0,0.0,0.0,0.0,0.0,0.0,0.0,0.0,0.0,0.0,0.0,0.0,0.0,0.0,0.0,0.0,0.0,0.0,0.0,0.0,0.0,0.0,0.0,0.0,0.0,0.0,0.0,-5.9608,-5.6696,-5.6344,-5.8554,-5.9257,-5.9408,0.0,0.0,0.0,0.0,0.0,0.0,0.0,0.0,0.0,0.0,0.0,0.0,0.0,0.0,0.0,0.0,0.0,0.0,0.0,0.0,0.0,0.0,0.0,0.0,0.0,0.0,0.0,0.0,0.0,0.0,0.0,0.0,0.0,0.0,0.0,0.0,0.0,0.0,0.0,0.0,0.0,0.0,0.0,0.0,0.0,0.0,0.0,0.0,0.0,0.0,0.0,0.0,0.0,0.0,0.0,0.0,0.0,0.0,0.0,0.0,0.0,0.0,0.0,0.0,0.0,0.0,0.0,0.0,0.0,0.0,0.0,0.0,0.0,0.0,0.0,0.0,0.0,0.0,0.0,0.0,0.0,0.0,0.0,0.0,0.0,0.0,0.0,0.0,0.0,0.0,0.0,0.0,0.0,0.0,0.0,0.0,0.0,0.0,0.0,0.0,0.0,0.0,0.0,0.0,0.0,0.0,0.0,0.0,0.0,-6.0713,-6.1868,-6.3375,-6.5082,-6.232,-6.1466,0.0,0.0,0.0,0.0,0.0,0.0,0.0,0.0,0.0,0.0,0.0,0.0,0.0,0.0,0.0,0.0,0.0,0.0,0.0,0.0,0.0,0.0,0.0,0.0,0.0,0.0,0.0,0.0,0.0,0.0,0.0,0.0,0.0,0.0,0.0,0.0,0.0,0.0,0.0,0.0,0.0,0.0,0.0,0.0,0.0,0.0,0.0,0.0,0.0,0.0,0.0,0.0,0.0,0.0,0.0,0.0,0.0,0.0,0.0,0.0,0.0,0.0,0.0,0.0,0.0,0.0,0.0,0.0,0.0,0.0,0.0,0.0,0.0,0.0,0.0,0.0,0.0,0.0,0.0,0.0,0.0,0.0,0.0,0.0,0.0,0.0,0.0,0.0,0.0,0.0,0.0,0.0,0.0,0.0,0.0,0.0,0.0,0.0,0.0,0.0,0.0,0.0,0.0,0.0,0.0,0.0,0.0,0.0,-6.1667,-6.1918,-6.5484,-6.8296,-7.0204,-6.7091,-6.4731,0.0,0.0,0.0,0.0,0.0,0.0,0.0,0.0,0.0,0.0,0.0,0.0,0.0,0.0,0.0,0.0,0.0,0.0,0.0,0.0,0.0,0.0,0.0,0.0,0.0,0.0,0.0,0.0,0.0,0.0,0.0,0.0,0.0,0.0,0.0,0.0,0.0,0.0,0.0,0.0,0.0,0.0,0.0,0.0,0.0,0.0,0.0,0.0,0.0,0.0,0.0,0.0,0.0,0.0,0.0,0.0,0.0,0.0,0.0,0.0,0.0,0.0,0.0,0.0,0.0,0.0,0.0,0.0,0.0,0.0,0.0,0.0,0.0,0.0,0.0,0.0,0.0,0.0,0.0,0.0,0.0,0.0,0.0,0.0,0.0,0.0,0.0,0.0,0.0,0.0,0.0,0.0,0.0,0.0,0.0,0.0,0.0,0.0,0.0,0.0,0.0,0.0,0.0,0.0,0.0,0.0,0.0,0.0,-6.3776,-6.3073,-6.7945,-7.156,-7.3569,-7.1861,-6.8246,0.0,0.0,0.0,0.0,0.0,0.0,0.0,0.0,0.0,0.0,0.0,0.0,0.0,0.0,0.0,0.0,0.0,0.0,0.0,0.0,0.0,0.0,0.0,0.0,0.0,0.0,0.0,0.0,0.0,0.0,0.0,0.0,0.0,0.0,0.0,0.0,0.0,0.0,0.0,0.0,0.0,0.0,0.0,0.0,0.0,0.0,0.0,0.0,0.0,0.0,0.0,0.0,0.0,0.0,0.0,0.0,0.0,0.0,0.0,0.0,0.0,0.0,0.0,0.0,0.0,0.0,0.0,0.0,0.0,0.0,0.0,0.0,0.0,0.0,0.0,0.0,0.0,0.0,0.0,0.0,0.0,0.0,0.0,0.0,0.0,0.0,0.0,0.0,0.0,0.0,0.0,0.0,0.0,0.0,0.0,0.0,0.0,0.0,0.0,0.0,0.0,0.0,0.0,0.0,0.0,0.0,0.0,0.0,-6.2621,-6.4178,-6.9401,-7.3067,-7.4824,-7.1158,-6.8145,0.0,0.0,0.0,0.0,0.0,0.0,0.0,0.0,0.0,0.0,0.0,0.0,0.0,0.0,0.0,0.0,0.0,0.0,0.0,0.0,0.0,0.0,0.0,0.0,0.0,0.0,0.0,0.0,0.0,0.0,0.0,0.0,0.0,0.0,0.0,0.0,0.0,0.0,0.0,0.0,0.0,0.0,0.0,0.0,0.0,0.0,0.0,0.0,-11.3094,0.0,0.0,0.0,0.0,0.0,0.0,0.0,0.0,0.0,0.0,0.0,0.0,0.0,0.0,0.0,0.0,0.0,0.0,0.0,0.0,0.0,0.0,0.0,0.0,0.0,0.0,0.0,0.0,0.0,0.0,0.0,0.0,0.0,0.0,0.0,0.0,0.0,0.0,0.0,0.0,0.0,0.0,0.0,0.0,0.0,0.0,0.0,0.0,0.0,0.0,0.0,0.0,0.0,0.0,0.0,0.0,0.0,0.0,0.0,-6.3525,-6.6036,-7.0706,-7.4071,-7.5778,-7.2715,-6.9953,0.0,0.0,0.0,0.0,0.0,0.0,0.0,0.0,0.0,0.0,0.0,0.0,0.0,0.0,0.0,0.0,0.0,0.0,0.0,0.0,0.0,0.0,0.0,0.0,0.0,0.0,0.0,0.0,0.0,0.0,0.0,0.0,0.0,0.0,0.0,0.0,0.0,0.0,0.0,0.0,0.0,0.0,0.0,0.0,0.0,0.0,0.0,0.0,0.0,0.0,0.0,0.0,0.0,0.0,0.0,0.0,0.0,0.0,0.0,0.0,0.0,0.0,0.0,0.0,0.0,0.0,0.0,0.0,0.0,0.0,0.0,0.0,0.0,0.0,0.0,0.0,0.0,0.0,0.0,0.0,0.0,0.0,0.0,0.0,0.0,0.0,0.0,0.0,0.0,0.0,0.0,0.0,0.0,0.0,0.0,0.0,0.0,0.0,0.0,0.0,0.0,0.0,0.0,0.0,0.0,0.0,0.0,-6.2521,-6.4982,-6.8145,-7.1711,-7.4623,-7.6783,-7.4824,-7.2125,-6.8808,0.0,0.0,0.0,0.0,0.0,0.0,0.0,0.0,0.0,0.0,0.0,0.0,0.0,0.0,0.0,0.0,0.0,0.0,0.0,0.0,0.0,0.0,0.0,0.0,0.0,0.0,0.0,0.0,0.0,0.0,0.0,0.0,0.0,0.0,0.0,0.0,0.0,0.0,-9.5937,-9.7094,0.0,0.0,0.0,0.0,0.0,0.0,0.0,0.0,-10.602,0.0,0.0,0.0,0.0,0.0,0.0,0.0,0.0,0.0,0.0,0.0,0.0,0.0,0.0,0.0,0.0,0.0,0.0,0.0,0.0,0.0,0.0,0.0,0.0,0.0,0.0,0.0,0.0,0.0,0.0,0.0,0.0,0.0,0.0,0.0,0.0,0.0,0.0,0.0,0.0,0.0,0.0,0.0,0.0,0.0,0.0,0.0,0.0,0.0,0.0,0.0,0.0,0.0,0.0,0.0,0.0,-6.237,-6.232,-6.4731,-6.9752,-7.2313,-7.4674,-7.6733,-7.5176,-7.2559,-6.9021,0.0,0.0,0.0,0.0,0.0,0.0,0.0,0.0,0.0,0.0,0.0,0.0,0.0,0.0,0.0,0.0,0.0,0.0,0.0,0.0,0.0,0.0,0.0,0.0,0.0,0.0,0.0,0.0,0.0,0.0,0.0,0.0,0.0,0.0,0.0,0.0,0.0,0.0,0.0,-9.6359,-9.7969,0.0,0.0,0.0,0.0,0.0,0.0,0.0,0.0,-10.6965,0.0,0.0,0.0,0.0,0.0,0.0,0.0,0.0,0.0,0.0,0.0,0.0,0.0,0.0,0.0,0.0,0.0,0.0,0.0,0.0,0.0,0.0,0.0,0.0,0.0,0.0,0.0,0.0,0.0,0.0,0.0,0.0,0.0,0.0,0.0,0.0,0.0,0.0,0.0,0.0,0.0,0.0,0.0,0.0,0.0,0.0,0.0,0.0,0.0,0.0,0.0,0.0,0.0,0.0,0.0,-6.3023,-6.3274,-6.5534,-7.0104,-7.1285,-7.2517,-7.398,-7.2029,-6.9692,0.0,0.0,0.0,0.0,0.0,0.0,0.0,0.0,0.0,0.0,0.0,0.0,0.0,0.0,0.0,0.0,0.0,0.0,0.0,0.0,0.0,0.0,0.0,0.0,0.0,0.0,0.0,0.0,0.0,0.0,0.0,0.0,0.0,0.0,0.0,0.0,0.0,0.0,0.0,0.0,-9.6886,-9.7766,-9.7022,0.0,0.0,0.0,0.0,0.0,0.0,-10.6832,-10.6629,0.0,0.0,0.0,0.0,0.0,0.0,0.0,0.0,0.0,0.0,0.0,0.0,0.0,0.0,0.0,0.0,0.0,0.0,0.0,0.0,0.0,0.0,0.0,0.0,0.0,0.0,0.0,0.0,0.0,0.0,0.0,0.0,0.0,0.0,0.0,0.0,0.0,0.0,0.0,0.0,0.0,0.0,0.0,0.0,0.0,0.0,0.0,0.0,0.0,0.0,0.0,0.0,0.0,0.0,0.0,-6.3726,-6.3925,-6.5943,-6.967,-6.9448,-6.9914,-7.0649,-6.868,-6.6846,0.0,0.0,0.0,0.0,0.0,0.0,0.0,0.0,0.0,0.0,0.0,0.0,0.0,0.0,0.0,0.0,0.0,0.0,0.0,0.0,0.0,0.0,0.0,0.0,0.0,0.0,0.0,0.0,0.0,0.0,0.0,0.0,0.0,0.0,0.0,0.0,0.0,0.0,0.0,0.0,0.0,-9.7969,-9.7834,-10.0134,0.0,0.0,0.0,0.0,-10.5208,-10.6088,0.0,0.0,0.0,0.0,0.0,0.0,0.0,0.0,0.0,0.0,0.0,0.0,0.0,0.0,0.0,0.0,0.0,0.0,0.0,0.0,0.0,0.0,0.0,0.0,0.0,0.0,0.0,0.0,0.0,0.0,0.0,0.0,0.0,0.0,0.0,0.0,0.0,0.0,0.0,0.0,0.0,0.0,0.0,0.0,0.0,0.0,0.0,0.0,0.0,0.0,0.0,0.0,0.0,0.0,0.0,0.0,-6.4279,-6.305,-6.4244,-6.7966,-6.7153,-6.7048,-6.8204,-6.7526,-6.6597,0.0,0.0,0.0,0.0,0.0,0.0,0.0,0.0,0.0,0.0,0.0,0.0,0.0,0.0,0.0,0.0,0.0,0.0,0.0,0.0,0.0,0.0,0.0,0.0,0.0,0.0,0.0,0.0,0.0,0.0,0.0,0.0,0.0,0.0,0.0,0.0,0.0,0.0,0.0,0.0,0.0,-9.8713,-10.0608,-10.2299,-10.3652,0.0,0.0,-10.5141,-10.3179,-10.5141,0.0,0.0,0.0,0.0,0.0,0.0,0.0,0.0,0.0,0.0,0.0,0.0,0.0,0.0,0.0,0.0,0.0,0.0,0.0,0.0,0.0,0.0,0.0,0.0,0.0,0.0,0.0,0.0,0.0,0.0,0.0,0.0,0.0,0.0,0.0,0.0,0.0,0.0,0.0,0.0,0.0,0.0,0.0,0.0,0.0,0.0,0.0,0.0,0.0,0.0,0.0,0.0,0.0,0.0,0.0,-6.0427,-6.2203,-6.2098,-6.3148,-6.5024,-6.4224,-6.399,-6.485,-6.2955,-6.1485,0.0,0.0,0.0,0.0,0.0,0.0,0.0,0.0,0.0,0.0,0.0,0.0,0.0,0.0,0.0,0.0,0.0,0.0,0.0,0.0,0.0,0.0,0.0,0.0,0.0,0.0,0.0,0.0,0.0,0.0,0.0,0.0,0.0,0.0,0.0,0.0,0.0,0.0,0.0,0.0,0.0,0.0,-9.9535,-10.2908,0.0,0.0,0.0,-10.69,-10.6358,0.0,0.0,0.0,0.0,0.0,0.0,0.0,0.0,0.0,0.0,0.0,0.0,0.0,0.0,0.0,0.0,0.0,0.0,0.0,0.0,0.0,0.0,0.0,0.0,0.0,0.0,0.0,0.0,0.0,0.0,0.0,0.0,0.0,0.0,0.0,0.0,0.0,0.0,0.0,0.0,0.0,0.0,0.0,0.0,0.0,0.0,0.0,0.0,0.0,0.0,0.0,0.0,0.0,0.0,0.0,0.0,0.0,-6.0608,-6.0458,-6.0974,-6.2151,-6.1243,-6.114,-6.1429,-5.899,0.0,0.0,0.0,0.0,0.0,0.0,0.0,0.0,0.0,0.0,0.0,0.0,0.0,0.0,0.0,0.0,0.0,0.0,0.0,0.0,0.0,0.0,0.0,0.0,0.0,0.0,0.0,-7.8624,0.0,0.0,0.0,0.0,0.0,0.0,0.0,0.0,0.0,0.0,0.0,0.0,0.0,0.0,-10.1251,-9.9071,-10.3111,-10.5208,0.0,0.0,-10.7915,-10.7576,-10.7035,-10.6494,0.0,0.0,0.0,0.0,0.0,0.0,0.0,0.0,0.0,0.0,0.0,0.0,0.0,0.0,0.0,0.0,0.0,0.0,0.0,0.0,0.0,0.0,0.0,0.0,0.0,0.0,0.0,0.0,0.0,0.0,0.0,0.0,0.0,0.0,0.0,0.0,0.0,0.0,0.0,0.0,0.0,0.0,0.0,0.0,0.0,0.0,0.0,0.0,0.0,0.0,0.0,0.0,0.0,0.0,-5.7785,-6.0435,-5.6976,-5.6652,-5.9389,-5.8626,-5.807,-5.8109,-5.756,-5.812,0.0,0.0,0.0,0.0,0.0,0.0,0.0,0.0,0.0,0.0,0.0,0.0,0.0,0.0,0.0,0.0,0.0,0.0,0.0,0.0,0.0,0.0,0.0,0.0,0.0,0.0,0.0,0.0,0.0,0.0,0.0,0.0,0.0,0.0,0.0,0.0,0.0,0.0,0.0,0.0,0.0,-10.2913,-10.1352,-10.3246,-10.4261,0.0,-10.5614,-10.69,-10.3517,-10.805,-11.0756,-10.7373,0.0,0.0,0.0,0.0,0.0,0.0,0.0,0.0,0.0,0.0,0.0,0.0,0.0,0.0,0.0,0.0,0.0,0.0,0.0,0.0,0.0,0.0,0.0,0.0,0.0,0.0,0.0,0.0,0.0,0.0,0.0,0.0,0.0,0.0,0.0,0.0,0.0,0.0,0.0,0.0,0.0,0.0,0.0,0.0,0.0,0.0,0.0,0.0,0.0,0.0,0.0,0.0,0.0,-5.5189,-5.6632,-5.5638,-5.5746,-5.7009,-5.7816,-5.8398,-5.8672,-5.7969,-5.7698,0.0,0.0,0.0,0.0,0.0,0.0,0.0,0.0,0.0,0.0,0.0,0.0,0.0,0.0,0.0,0.0,0.0,0.0,0.0,0.0,0.0,0.0,0.0,0.0,0.0,0.0,0.0,0.0,-8.235,-8.2529,-8.3965,0.0,0.0,0.0,0.0,0.0,0.0,0.0,0.0,0.0,0.0,-9.9126,-9.8525,-10.1348,0.0,0.0,-10.2853,-10.4685,-10.2395,-10.3769,-10.5064,-10.4965,-10.4375,0.0,0.0,0.0,0.0,0.0,0.0,0.0,0.0,0.0,0.0,0.0,0.0,0.0,0.0,0.0,0.0,0.0,0.0,0.0,0.0,0.0,0.0,0.0,0.0,0.0,0.0,0.0,0.0,0.0,0.0,0.0,0.0,0.0,0.0,0.0,0.0,0.0,0.0,0.0,0.0,0.0,0.0,0.0,0.0,0.0,0.0,0.0,0.0,0.0,0.0,0.0,0.0,-5.3253,-5.4278,-5.443,-5.5004,-5.5898,-5.7656,-5.875,-5.914,-5.8203,-5.7344,0.0,0.0,0.0,0.0,0.0,0.0,0.0,0.0,0.0,0.0,0.0,0.0,0.0,0.0,0.0,0.0,0.0,0.0,0.0,0.0,0.0,0.0,0.0,0.0,0.0,0.0,0.0,0.0,-8.235,-8.2409,-8.3606,0.0,0.0,0.0,0.0,0.0,0.0,0.0,0.0,0.0,0.0,-9.6332,-9.6039,-9.9194,-10.1012,-9.9623,-10.2161,-10.4123,-10.3955,-10.2938,-10.2355,-10.3553,0.0,0.0,0.0,0.0,0.0,0.0,0.0,0.0,0.0,0.0,0.0,0.0,0.0,0.0,0.0,0.0,0.0,0.0,0.0,0.0,0.0,0.0,0.0,0.0,0.0,0.0,0.0,0.0,0.0,0.0,-4.8242,0.0,0.0,0.0,0.0,0.0,0.0,0.0,0.0,0.0,0.0,0.0,0.0,0.0,0.0,0.0,0.0,0.0,0.0,0.0,0.0,0.0,0.0,-5.2207,-5.4737,-5.3406,-5.375,-5.5898,-5.7617,-5.875,-5.914,-5.793,-5.7031,-5.6601,0.0,0.0,0.0,0.0,0.0,0.0,0.0,0.0,0.0,0.0,0.0,0.0,0.0,0.0,0.0,0.0,0.0,0.0,0.0,0.0,0.0,0.0,0.0,0.0,0.0,0.0,-8.6716,-8.5761,-8.4384,0.0,0.0,0.0,0.0,0.0,0.0,0.0,0.0,0.0,0.0,-9.3434,-9.5354,-9.465,-9.6806,-9.9711,-10.3013,-10.4078,-10.5596,-10.8103,-10.658,-10.4778,0.0,0.0,0.0,0.0,0.0,0.0,0.0,0.0,0.0,0.0,0.0,0.0,0.0,0.0,0.0,0.0,0.0,0.0,0.0,0.0,0.0,0.0,0.0,0.0,0.0,0.0,0.0,-4.3713,-4.3694,0.0,0.0,0.0,0.0,0.0,0.0,0.0,0.0,0.0,0.0,0.0,-5.0781,-5.0625,0.0,0.0,0.0,0.0,0.0,0.0,0.0,0.0,0.0,0.0,0.0,0.0,-5.1209,-5.3726,-5.3368,-5.4336,-5.6719,-5.793,-5.8867,-5.957,-5.8906,-5.793,-5.6601,0.0,0.0,0.0,0.0,0.0,0.0,0.0,0.0,0.0,0.0,0.0,0.0,0.0,0.0,0.0,0.0,0.0,0.0,0.0,0.0,0.0,0.0,0.0,0.0,0.0,-8.0192,0.0,0.0,0.0,0.0,0.0,0.0,0.0,0.0,0.0,0.0,0.0,-8.7429,-8.789,-8.9759,-9.0986,-9.0584,-9.2483,-9.44,0.0,0.0,0.0,0.0,0.0,0.0,0.0,0.0,0.0,0.0,0.0,0.0,0.0,0.0,-11.1515,-11.1899,-11.3431,-11.5028,-11.6712,0.0,0.0,0.0,0.0,0.0,0.0,0.0,0.0,0.0,0.0,0.0,0.0,0.0,0.0,-4.2455,0.0,-4.405,0.0,0.0,0.0,0.0,0.0,0.0,0.0,0.0,-4.9007,-4.9752,-4.9607,-5.1735,-5.2174,0.0,-5.2753,-5.2344,0.0,0.0,0.0,0.0,0.0,0.0,0.0,0.0,-5.1172,-5.3047,-5.3594,-5.4922,-5.7109,-5.8086,-5.8945,-5.9765,-5.8945,-5.7695,-5.5976,-5.457,-5.375,0.0,0.0,0.0,0.0,0.0,0.0,0.0,0.0,0.0,0.0,0.0,0.0,0.0,0.0,0.0,0.0,0.0,0.0,0.0,0.0,0.0,0.0,0.0,-8.0814,0.0,0.0,0.0,0.0,0.0,0.0,0.0,0.0,0.0,-8.8274,-8.7197,-8.6539,-8.6958,-8.7975,-8.8753,-8.8993,0.0,0.0,0.0,0.0,0.0,0.0,0.0,-9.8938,-10.123,-10.216,-10.3566,-10.647,-10.8583,-11.008,-11.0892,0.0,0.0,-11.2541,-11.405,-11.5638,-11.7915,-12.0644,-12.282,-12.3922,-12.5317,-12.6422,0.0,0.0,0.0,0.0,0.0,0.0,0.0,0.0,-4.1581,-4.3463,0.0,-4.3263,0.0,0.0,0.0,0.0,0.0,-4.6788,0.0,0.0,-4.712,-4.7548,-4.5383,-5.1043,-5.2063,-4.8971,-5.3102,-5.4053,-5.2148,-5.0898,0.0,0.0,0.0,0.0,0.0,0.0,-5.1875,-5.2812,-5.4023,-5.5508,-5.7187,-5.8047,-5.8867,-5.9648,-5.8086,-5.6445,-5.4883,-5.4687,-5.4453,-5.4101,-5.5586,0.0,0.0,0.0,0.0,0.0,0.0,0.0,0.0,0.0,0.0,0.0,0.0,0.0,0.0,0.0,0.0,0.0,0.0,0.0,0.0,-8.0472,0.0,0.0,0.0,0.0,0.0,0.0,0.0,0.0,0.0,0.0,-8.7616,-8.7676,-8.7676,-8.7796,0.0,0.0,0.0,0.0,-9.2519,-9.513,-9.669,-9.9134,-10.3834,-10.1382,-9.9643,-10.1602,0.0,0.0,-10.4448,-10.6275,-10.7915,-10.9944,-10.9335,-10.9532,-11.4184,-11.5979,-11.7947,-12.1029,-12.2503,-12.3775,-12.5096,-12.4656,-12.4068,-3.8023,0.0,0.0,0.0,0.0,-3.7565,-3.85,-3.9325,-4.0316,-4.0633,-4.0376,-4.1368,0.0,0.0,0.0,0.0,0.0,0.0,-4.5456,-4.4973,-4.7089,-4.8056,-4.7753,-5.0097,-5.1607,-5.2083,-5.3256,-5.381,-5.3945,-5.2617,-5.1992,-5.1953,0.0,0.0,0.0,0.0,-5.2305,-5.4023,-5.4492,-5.5664,-5.7656,-5.7617,-5.7851,-5.8398,-5.7344,-5.6523,-5.6055,-5.4883,-5.4453,-5.4922,-5.4844,0.0,0.0,0.0,0.0,0.0,0.0,0.0,0.0,0.0,0.0,0.0,0.0,0.0,0.0,0.0,0.0,0.0,0.0,0.0,-8.0791,-8.2566,-8.3802,0.0,0.0,0.0,0.0,0.0,0.0,0.0,0.0,0.0,-8.8334,-8.7556,-8.7496,0.0,0.0,-8.9292,-9.0848,-9.0608,-9.0939,-9.2624,-9.2745,0.0,-9.8983,-9.9582,-10.0279,-10.2056,-10.3128,-10.4865,-10.8231,-10.9599,-11.0283,-11.1027,-11.1162,-11.2606,-11.6316,-11.6026,-11.6149,-11.898,-12.164,-12.3628,-12.4582,-12.5317,-12.5904,-4.139,-3.9412,-3.7916,-3.7595,-3.813,-3.8638,-3.9279,-3.9947,-4.0134,-4.0134,-4.0159,-4.0532,-4.0661,-4.0063,-4.1759,0.0,0.0,0.0,-4.3673,-4.3263,-4.5607,-4.6541,-4.6161,-4.9318,-5.1324,-5.2476,-5.3273,-5.4432,-5.5664,-5.4531,-5.3828,-5.3437,0.0,0.0,-5.2656,-5.2383,-5.293,-5.4375,-5.4765,-5.5781,-5.7539,-5.7539,-5.75,-5.7578,-5.7109,-5.668,-5.6328,-5.5351,-5.4844,-5.5039,-5.4883,-5.4648,0.0,0.0,0.0,0.0,0.0,0.0,0.0,0.0,0.0,0.0,0.0,-6.8798,-7.0003,0.0,0.0,0.0,-7.3613,-7.6555,-7.8536,-8.0561,0.0,0.0,0.0,0.0,0.0,0.0,0.0,-8.9172,-8.8634,-8.8514,-8.8993,-8.8574,-8.8813,-9.0249,-9.0309,-9.0668,-9.1865,0.0,-9.0788,-9.1865,-9.1686,-9.3057,-9.7922,-9.9578,-10.127,-10.427,-10.6629,-10.8591,-11.0012,-11.1095,-11.1703,-11.1568,-11.2245,-11.418,-11.7829,-11.7443,-11.7789,-12.122,-12.3934,-12.5757,-12.6344,-12.7225,-12.7886,-4.4169,-4.342,-4.0722,-3.9546,-3.9546,-4.0374,-4.0748,-4.0802,-4.0829,-4.1523,-4.2539,-4.0695,-4.0214,-4.0939,-4.1546,0.0,-4.1311,-4.1959,-4.1259,-3.9386,-4.3245,-4.3894,-4.2345,-4.8202,-5.1122,-5.0879,-5.3404,-5.5463,-5.7049,-5.6406,-5.5586,-5.4687,-5.2656,-5.1992,-5.2734,-5.3164,-5.3594,-5.4023,-5.4922,-5.5937,-5.7109,-5.7578,-5.7578,-5.7109,-5.7109,-5.6719,-5.5937,-5.5859,-5.5469,-5.4765,-5.539,-5.543,-5.4648,0.0,0.0,0.0,0.0,0.0,0.0,0.0,0.0,0.0,0.0,0.0,0.0,0.0,0.0,-6.9401,-7.1956,0.0,-7.2572,-7.6423,0.0,0.0,0.0,-8.807,-8.9871,-8.9845,-8.9711,-8.9591,0.0,0.0,-8.9531,-9.0309,-9.1027,-9.1626,-9.2224,-9.2643,-9.2823,-9.2284,-9.2045,-9.2703,-9.2763,-9.4577,-9.9261,-10.0666,-10.2737,-10.6825,-10.9268,-11.008,-11.035,-11.1365,-11.1974,-11.1501,-11.2583,-11.452,-11.7724,-11.9397,-12.2019,-12.5554,-12.7637,-12.884,-12.862,-12.8547,-12.8473,-4.481,-4.4783,-4.3661,-4.2779,-4.2191,-4.2619,-4.3073,-4.3501,-4.3741,-4.3527,-4.2939,-4.2245,-4.131,-4.0214,-4.0419,-4.0383,-4.0356,-4.093,-4.1317,-4.1176,-4.2323,-4.2759,-4.2686,-4.4012,-4.6759,-5.0674,-5.1288,-5.3769,-5.7516,-5.7187,-5.6328,-5.5156,-5.3984,-5.3359,-5.3203,-5.332,-5.3594,-5.4023,-5.5195,-5.6094,-5.6719,-5.7148,-5.6992,-5.625,-5.625,-5.5976,-5.5469,-5.5156,-5.4883,-5.4687,-5.457,-5.4258,-5.3711,-5.5306,0.0,0.0,0.0,0.0,0.0,0.0,0.0,0.0,0.0,-6.8547,-7.0355,0.0,-7.0204,0.0,-7.0092,-7.232,-7.6815,-7.7585,0.0,0.0,-8.518,-8.7322,-8.5752,-8.8481,-9.001,-8.9052,-8.9052,-8.9292,-8.9651,-9.1087,-9.2165,-9.2344,-9.2524,-9.3182,-9.4558,-9.384,-9.3361,-9.39,-9.408,-9.5165,-9.8108,-10.1189,-10.425,-10.7437,-10.8862,-10.9606,-11.0215,-11.1027,-11.1568,-11.1501,-11.2109,-11.3972,-11.7023,-11.8865,-12.0879,-12.3574,-12.5408,-12.6565,-12.6565,-12.6124,-12.583,-4.5371,-4.5478,-4.5157,-4.473,-4.4275,-4.4169,-4.4329,-4.4623,-4.4676,-4.4222,-4.3474,-4.3046,-4.2245,-4.1203,-4.1069,-4.1069,-4.1229,-4.155,-4.1951,-4.2352,-4.2405,-4.2512,-4.2646,-4.2218,-4.5248,-5.0871,-5.0411,-5.2938,-5.7944,-5.75,-5.6562,-5.5312,-5.4844,-5.4297,-5.3672,-5.3476,-5.3867,-5.4883,-5.5781,-5.6328,-5.6562,-5.664,-5.6406,-5.5937,-5.5742,-5.5469,-5.5039,-5.5,-5.4805,-5.4414,-5.4336,-5.4101,-5.3711,-5.4141,-5.6536,0.0,0.0,0.0,0.0,0.0,0.0,0.0,0.0,0.0,0.0,0.0,-7.0706,-7.156,-7.1825,-7.3455,-7.6581,-7.6874,-7.7524,-7.893,-8.2581,-8.4616,-8.41,-8.7735,-8.995,-8.9232,-8.9711,-9.019,-9.0549,-9.1506,-9.2284,-9.2583,-9.2883,-9.3541,-9.4798,-9.4499,-9.408,-9.4139,-9.4379,-9.582,-9.903,-10.3389,-10.6811,-10.8182,-10.92,-10.9809,-11.0283,-11.0892,-11.1365,-11.1433,-11.1974,-11.3563,-11.6586,-11.827,-11.9953,-12.2489,-12.3715,-12.4215,-12.4582,-12.4582,-12.4656,-4.5745,-4.5799,-4.5718,-4.5718,-4.5745,-4.5211,-4.497,-4.4917,-4.465,-4.4356,-4.4008,-4.3447,-4.3046,-4.2752,-4.2512,-4.2512,-4.2699,-4.2752,-4.2913,-4.3127,-4.2859,-4.2699,-4.2646,-4.2561,-4.5379,-5.1035,-5.052,-5.308,-5.8437,-5.7578,-5.6523,-5.5351,-5.5234,-5.4844,-5.4141,-5.3672,-5.4258,-5.582,-5.625,-5.6445,-5.6484,-5.6133,-5.5898,-5.5781,-5.5351,-5.4922,-5.4453,-5.4765,-5.4648,-5.4023,-5.4297,-5.4375,-5.4062,-5.3711,-5.6168,0.0,-6.2107,0.0,0.0,0.0,0.0,0.0,0.0,0.0,0.0,-6.93,-7.0857,-7.4021,-7.4588,-7.478,-7.4263,-7.5052,-7.5721,-7.6009,-7.8676,-8.1473,-8.3591,-8.7215,-8.9591,-8.9651,-9.0249,-9.0848,-9.1327,-9.1566,-9.1865,-9.2524,-9.3122,-9.3721,-9.4319,-9.4558,-9.4319,-9.3721,-9.4303,-9.6236,-10.0619,-10.5028,-10.8111,-10.8657,-10.9471,-11.0147,-11.0147,-11.0824,-11.1365,-11.1433,-11.1906,-11.329,-11.6157,-11.7387,-11.9046,-12.1681,-12.2133,-12.2307,-12.3041,-12.3775,-12.4289,-4.5665,-4.6066,-4.5585,-4.5665,-4.6066,-4.5745,-4.5451,-4.5237,-4.5157,-4.4863,-4.4329,-4.3982,-4.3661,-4.3367,-4.3314,-4.318,-4.302,-4.326,-4.3394,-4.3447,-4.3153,-4.2886,-4.2874,-4.4733,-4.7284,-5.0549,-5.2383,-5.5016,-5.7969,-5.7109,-5.6211,-5.5312,-5.4961,-5.4726,-5.4531,0.0,0.0,0.0,-5.5508,-5.5703,-5.6055,-5.5976,-5.5625,-5.4922,-5.4492,0.0,-5.3125,-5.3164,-5.3281,-5.3476,-5.3555,0.0,0.0,0.0,0.0,0.0,0.0,0.0,0.0,0.0,0.0,0.0,-7.0506,-7.0455,-7.0003,-7.0054,-7.1108,-7.3468,-7.2941,-7.2724,-7.2966,-7.3194,-7.3621,-7.4267,-7.7491,-8.0442,-8.1912,-8.6036,-8.9052,-8.9591,-9.0249,-9.0668,-9.0788,-9.1267,-9.1865,-9.2464,-9.3182,-9.3601,-9.3721,-9.4259,-9.4319,-9.3892,-9.4593,-9.6702,-9.9719,-10.2445,-10.5394,-10.6694,-10.8524,-10.9335,-10.9471,-11.0553,-11.1365,-11.1365,-11.1501,-11.1912,-11.329,-11.5123,-11.7065,-11.8217,-11.9842,-12.1352,-12.216,-12.2967,-12.3555,-4.6039,0.0,-4.5879,-4.5825,0.0,-4.5799,-4.5505,-4.5104,-4.5104,-4.4756,-4.4222,-4.4062,-4.3928,-4.3768,-4.3607,-4.3447,-4.3314,-4.3314,-4.3314,-4.3287,-4.302,-4.2726,-4.2405,-4.4828,-4.7307,-5.0054,-5.2342,-5.4764,-5.75,-5.668,-5.5937,-5.5312,-5.4883,-5.457,-5.4375,-5.4141,-5.4336,-5.5,-5.5195,-5.543,-5.5586,-5.543,-5.5,-5.4375,-5.3945,0.0,0.0,0.0,0.0,0.0,0.0,0.0,0.0,-5.4141,0.0,-5.9961,-6.1552,-6.4251,-6.7941,-6.9472,-7.0154,-6.9903,-7.0355,-7.0807,-7.1058,-7.1058,-7.1661,-7.2966,-7.2615,-7.2414,-7.2715,-7.2715,-7.2866,-7.3256,-7.7098,-7.9991,-8.1069,-8.5171,-8.8334,-8.8693,-8.9531,-9.019,-9.019,-9.1027,-9.1686,-9.2105,-9.2943,-9.3481,-9.3242,-9.3661,-9.396,-9.3772,-9.6118,-9.8219,-10.009,-10.2961,-10.4999,-10.6765,-10.7847,-10.8524,-10.8591,-10.9877,-11.0824,-11.0892,-11.1162,-11.178,-11.2947,-11.4818,-11.6427,-11.7775,-11.9511,-12.0889,-12.1499,-12.216,-12.282,-4.652,-4.6333,-4.6226,-4.6039,-4.5825,-4.5772,-4.5424,-4.4863,0.0,0.0,0.0,-4.4008,-4.3982,-4.3901,-4.3661,-4.3501,-4.3447,-4.3207,-4.31,-4.3073,-4.2752,-4.2432,-4.2337,-4.4826,-4.7258,-4.9658,-5.2091,-5.4719,-5.7148,-5.6289,-5.5664,-5.5273,-5.4805,-5.4375,-5.4062,-5.4023,-5.4219,-5.457,-5.4961,-5.5195,-5.5195,-5.4844,-5.4453,-5.3906,-5.3476,-5.2851,-5.1992,-5.2305,-5.2383,-5.2226,-5.2851,-5.332,-5.3476,-5.3828,-5.6172,-6.0589,-6.1364,-6.3847,-6.8312,-6.9089,-6.9551,-6.9702,-7.0255,-7.0958,-7.1861,-7.1912,-7.2113,-7.2665,-7.2715,-7.2715,-7.2715,-7.2715,-7.2715,-7.2715,-7.6938,-7.9715,-8.0118,-8.4591,-8.7975,-8.8035,-8.9112,-8.989,-9.013,-9.0968,-9.1746,-9.2045,-9.2823,-9.3242,-9.2823,-9.3062,-9.3421,-9.3642,-9.6156,-9.9093,-10.0346,-10.3224,-10.5814,-10.5467,-10.703,-10.7981,-10.7842,-10.9059,-11.035,-11.035,-11.0892,-11.1786,-11.3002,-11.4788,-11.6472,-11.7792,-11.9603,-12.0912,-12.0985,-12.1426,-12.216,-4.6734,-4.6894,-4.6413,-4.6173,-4.6119,-4.5852,-4.5424,-4.4863,-4.4356,-4.4088,-4.4008,-4.4008,-4.3848,-4.3581,-4.3554,-4.3394,-4.3153,-4.3127,-4.31,-4.3073,-4.2539,-4.2138,-4.2041,-4.6852,-4.8992,-4.9525,-5.4211,-5.6755,-5.707,-5.5976,-5.5351,-5.5234,-5.4531,-5.4101,-5.4023,-5.4023,-5.4062,-5.4141,-5.457,-5.4765,-5.4765,-5.4726,-5.4297,-5.3476,-5.3047,-5.2383,-5.1562,-5.1601,-5.1914,-5.2578,-5.2734,-5.3125,-5.3867,-5.3984,-5.5366,-5.8281,-6.0395,-6.3088,-6.6005,-6.808,-6.9853,-7.0757,-7.1359,-7.1761,-7.1861,-7.1912,-7.2163,-7.2665,-7.2715,-7.2715,-7.2715,-7.2715,-7.2715,-7.3093,-7.6938,-7.9715,-7.9889,-8.4881,-8.8454,-8.8514,-8.9711,-9.0728,-9.1147,-9.1506,-9.2105,-9.2943,-9.2943,-9.2703,-9.2643,-9.2643,-9.2763,-9.3042,-9.4749,-9.6391,-9.7874,-10.0655,-10.2751,-10.1731,-10.5829,-10.7766,-10.5895,-10.8493,-11.0549,-11.035,-11.0892,-11.1437,-11.1786,-11.4102,-11.5742,-11.6677,-11.869,-12.0669,-12.0838,-12.0985,-12.1646,-4.7081,-4.7001,-4.66,-4.6333,-4.6146,-4.5531,-4.5131,-4.4837,-4.4249,-4.4008,-4.4008,-4.4008,-4.3821,-4.3527,-4.3367,-4.3127,-4.2859,-4.2699,-4.2619,-4.2592,-4.2191,-4.1817,-4.1967,-4.5115,-4.7474,-4.8931,-5.2519,-5.5288,-5.6582,-5.6015,-5.5547,-5.5273,-5.4453,-5.4023,-5.4023,-5.4023,-5.4023,-5.4023,-5.4219,-5.4336,-5.4336,-5.4336,-5.4023,-5.3398,-5.3164,-5.2773,-5.2148,-5.2109,-5.2305,-5.2695,-5.293,-5.3242,-5.3633,-5.5245,-5.7331,-5.981,-6.2325,-6.5024,-6.7531,-6.8975,-7.0255,-7.1008,-7.161,-7.2062,-7.2364,-7.2364,-7.2464,-7.2715,-7.2715,-7.2715,-7.2715,-7.2715,-7.2715,-7.2715,-7.6938,-7.9541,-8.0346,-8.4707,-8.8274,-8.8693,-8.983,-9.0908,-9.1566,-9.2224,-9.2643,-9.3062,-9.2763,-9.2583,-9.2643,-9.2943,-9.3122,-9.3292,-9.5153,-9.6713,-9.7348,-9.9665,-10.1171,-10.0884,-10.372,-10.542,-10.4791,-10.7607,-10.9738,-10.9877,-11.0621,-11.1095,-11.0892,-11.3349,-11.4868,-11.5265,-11.7789,-11.9742,-12.0251,-12.0838,-12.2086,-4.7322,-4.7054,-4.6734,-4.6386,-4.5932,-4.5184,-4.4837,-4.473,-4.4222,-4.3955,-4.3901,-4.3982,-4.3795,-4.342,-4.318,-4.2913,-4.2565,-4.2325,-4.2191,-4.2084,-4.1817,-4.1523,-4.1423,-4.3389,-4.5796,-4.8439,-5.0907,-5.3687,-5.631,-5.6133,-5.5664,-5.5156,-5.4414,-5.4023,-5.4023,-5.4023,-5.4023,-5.4023,-5.4023,-5.4023,-5.4023,-5.4023,-5.3828,-5.3398,-5.3359,-5.3164,-5.2734,-5.2734,-5.2773,-5.2851,-5.3164,-5.3398,-5.3718,-5.5768,-5.8479,-6.1364,-6.3088,-6.5258,-6.851,-7.0072,-7.0807,-7.1259,-7.1761,-7.2263,-7.2665,-7.2715,-7.2715,-7.2715,-7.2715,-7.2715,-7.2715,-7.2715,-7.2954,-7.3758,-7.7171,-8.0055,-8.1199,-8.5272,-8.8394,-8.9112,-9.0249,-9.1386,-9.2045,-9.2943,-9.3361,-9.2943,-9.2823,-9.2823,-9.2883,-9.3302,-9.3601,-9.4183,-9.5672,-9.6692,-9.7085,-9.8752,-9.9704,-9.9704,-10.214,-10.3458,-10.4093,-10.6313,-10.8792,-10.9132,-10.9944,-11.0486,-11.0424,-11.2459,-11.414,-11.4369,-11.6922,-11.9275,-11.9664,-12.0912,-12.2527,-4.7322,-4.7028,-4.6734,-4.6146,-4.5398,-4.5024,-4.473,-4.4463,-4.4142,-4.3821,-4.3634,-4.3875,-4.3661,-4.318,-4.31,-4.2779,-4.2298,-4.2245,-4.2084,-4.1817,-4.1523,-4.1229,-4.1127,-4.3072,-4.558,-4.8406,-5.0685,-5.3433,-5.6096,-5.6133,-5.5547,-5.4765,-5.4258,-5.4023,-5.4023,-5.4023,-5.4023,-5.4023,-5.4023,-5.4023,-5.4023,-5.4023,-5.3828,-5.3398,-5.3359,-5.3164,-5.2773,-5.2734,-5.2891,-5.3242,-5.3359,-5.3555,-5.3906,-5.4188,-5.6532,-6.117,-5.9854,-6.096,-6.625,-6.9757,-7.1524,-7.1861,-7.2313,-7.2665,-7.2715,-7.2715,-7.2715,-7.2715,-7.2715,-7.2715,-7.2715,-7.2765,-7.386,-7.6218,-7.8514,-8.0971,-8.4162,-8.745,-8.9771,-9.0369,-9.1506,-9.2643,-9.3242,-9.3481,-9.3541,-9.3421,-9.3361,-9.3361,-9.3421,-9.3541,-9.384,-9.4319,-9.4904,-9.4904,-9.5247,-9.6648,-9.7415,-9.6481,-10.0683,-10.2979,-10.3211,-10.5686,-10.8997,-10.8524,-10.8794,-10.9335,-10.9881,-11.1696,-11.3668,-11.3845,-11.599,-11.8783,-11.9517,-12.0838,-12.2453,-4.7081,-4.6787,-4.6493,-4.5959,-4.5318,-4.4997,-4.4703,-4.4409,-4.4142,-4.3928,-4.3795,-4.3741,-4.3394,-4.2859,-4.2833,-4.2619,-4.2218,-4.2031,-4.1897,-4.1737,-4.131,-4.0935,-4.0831,-4.1087,-4.2934,-4.5669,-4.8098,-5.0996,-5.3613,-5.5244,-5.5625,-5.5078,-5.4609,-5.4297,-5.4062,-5.4023,-5.4023,-5.4023,-5.4023,-5.4023,-5.4023,-5.4023,-5.3945,-5.3789,-5.375,-5.3672,-5.3516,-5.3476,-5.3594,-5.375,-5.375,-5.3828,-5.4023,-5.5406,-5.7132,-5.9266,-6.031,-6.1508,-6.3821,-6.7535,-6.9498,-6.9498,-7.1608,-7.2715,-7.2715,-7.2715,-7.2715,-7.2715,-7.2715,-7.2866,-7.3167,-7.3268,-7.4317,-7.7244,-7.9506,-8.2039,-8.4847,-8.8148,-9.0489,-9.1207,-9.2344,-9.3421,-9.396,-9.384,-9.3601,-9.3601,-9.3601,-9.3661,-9.3601,-9.39,-9.4259,-9.4558,-9.4618,-9.4618,-9.4618,-9.5247,-9.5868,-9.6981,-9.98,-10.1751,-10.3311,-10.5563,-10.8321,-10.805,-10.8253,-10.8253,-10.7847,-10.9822,-11.1731,-11.2688,-11.5661,-11.8636,-11.9443,-12.0545,-12.1793,-4.6787,-4.6467,-4.6199,-4.5718,-4.5184,-4.497,-4.4676,-4.4329,-4.4088,-4.3901,-4.3741,-4.3501,-4.3073,-4.2619,-4.2619,-4.2458,-4.2111,-4.1871,-4.1684,-4.1523,-4.1096,-4.0722,-4.0321,-3.984,-4.1034,-4.3449,-4.5592,-4.8311,-5.2055,-5.4565,-5.5781,-5.543,-5.4961,-5.4531,-5.4219,-5.4101,-5.4023,-5.4023,-5.4023,-5.4023,-5.4023,-5.4023,-5.4023,-5.4023,-5.4023,-5.4023,-5.4023,-5.4023,-5.4023,-5.4023,-5.4023,-5.4023,-5.4023,-5.5769,-5.6732,-5.7173,-6.0615,-6.269,-6.269,-6.6182,-6.8539,-6.9358,-7.1518,-7.2715,-7.2715,-7.2715,-7.2715,-7.2765,-7.2866,-7.3167,-7.3519,-7.372,-7.5257,-7.8405,-8.0589,-8.2654,-8.639,-8.9359,-9.1207,-9.2045,-9.3002,-9.3721,-9.4139,-9.402,-9.39,-9.39,-9.402,-9.4139,-9.4199,-9.4738,-9.5157,-9.5157,-9.5157,-9.4977,-9.4738,-9.4791,-9.5528,-9.7415,-9.961,-10.1709,-10.3487,-10.6002,-10.7712,-10.7509,-10.7509,-10.7306,-10.6966,-10.8327,-11.0102,-11.1446,-11.4275,-11.7881,-11.8563,-11.9737,-12.0912,-4.6467,-4.6173,-4.5879,-4.5424,-4.4917,-4.489,-4.4543,-4.4062,-4.4008,-4.3688,-4.326,-4.3153,-4.2806,-4.2325,-4.2539,-4.2352,-4.1871,-4.179,-4.1497,-4.1042,-4.0935,-4.0615,-4.0054,-3.9733,-4.1034,-4.2959,-4.3579,-4.6526,-5.1872,-5.4603,-5.5937,-5.5859,-5.5117,-5.4687,-5.457,-5.4219,-5.4023,-5.4023,-5.4023,-5.4023,-5.4023,-5.4023,-5.4023,-5.4023,-5.4023,-5.4023,-5.4023,-5.4023,-5.4023,-5.4023,-5.4023,-5.4023,-5.4023,-5.4227,-5.4431,-5.4917,-5.9727,-6.2986,-6.3469,-6.6453,-6.9406,-7.1666,-7.2286,-7.2715,-7.2715,-7.2715,-7.2715,-7.2715,-7.3217,-7.3569,-7.3619,-7.4071,-7.6375,-8.0573,-8.1415,-8.4211,-8.9645,-9.0634,-9.2105,-9.3002,-9.3421,-9.3601,-9.3661,-9.4199,-9.4499,-9.4678,-9.5097,-9.5456,-9.5456,-9.5995,-9.6294,-9.6354,-9.6234,-9.6055,-9.4977,-9.4798,-9.5649,-9.7743,-9.9925,-10.1774,-10.3553,-10.5394,-10.6357,-10.6832,-10.6426,-10.6221,-10.6147,-10.7014,-10.8787,-11.0624,-11.3507,-11.6132,-11.6964,-11.8497,-11.9742,-4.6333,-4.5879,-4.5585,-4.5237,-4.4863,-4.4676,-4.4382,-4.4008,-4.4008,-4.3901,-4.3634,-4.326,-4.2966,-4.2779,-4.2485,-4.2271,-4.2031,-4.1684,-4.139,-4.1149,-4.0802,-4.0321,-3.9786,-3.9626,-3.9803,-4.0505,-4.2348,-4.6334,-5.1872,-5.5084,-5.6211,-5.5898,-5.5351,-5.4961,-5.4648,-5.4258,-5.4023,-5.4023,-5.4023,-5.4023,-5.4023,-5.4023,-5.4023,-5.4023,-5.4023,-5.4023,-5.4023,-5.4023,-5.4023,-5.4023,-5.4023,-5.4023,-5.4023,-5.4023,-5.418,-5.4659,-5.6779,-5.8989,-6.1317,-6.4303,-6.7301,-6.989,-7.1716,-7.2715,-7.2715,-7.2715,-7.2715,-7.2866,-7.3619,-7.3971,-7.382,-7.4372,-7.7046,-8.15,-8.2643,-8.4772,-8.915,-9.1207,-9.1805,-9.2344,-9.3002,-9.3601,-9.384,-9.4558,-9.5217,-9.5277,-9.5815,-9.6174,-9.6234,-9.6473,-9.6653,-9.6593,-9.6533,-9.6294,-9.5396,-9.5277,-9.6133,-9.8806,-10.105,-10.3342,-10.5364,-10.6347,-10.7509,-10.6832,-10.6088,-10.5208,-10.5269,-10.6629,-10.8084,-10.9474,-11.2321,-11.4203,-11.4991,-11.6239,-11.7677,-4.6119,-4.5718,-4.5424,-4.5131,-4.4863,-4.4569,-4.4275,-4.4008,-4.4008,-4.3955,-4.3768,-4.3314,-4.3046,-4.2886,-4.2432,-4.2218,-4.2165,-4.171,-4.1443,-4.131,-4.0829,-4.0348,-3.992,-3.968,-3.9359,-3.9576,-4.2805,-4.7006,-5.0777,-5.4553,-5.6406,-5.6133,-5.5586,-5.5234,-5.5,-5.4414,-5.4141,-5.4336,-5.418,-5.4101,-5.418,-5.4101,-5.4023,-5.4023,-5.4023,-5.4023,-5.4023,-5.4023,-5.4023,-5.4023,-5.4023,-5.4023,-5.4023,-5.4023,-5.4219,-5.4648,-5.5078,-5.7097,-6.0922,-6.3386,-6.6309,-6.9696,-7.1525,-7.2715,-7.2715,-7.2715,-7.2715,-7.2916,-7.3519,-7.4021,-7.4121,-7.4674,-7.7304,-8.1718,-8.3085,-8.5281,-8.9774,-9.1207,-9.1686,-9.2105,-9.2943,-9.3601,-9.402,-9.4917,-9.5576,-9.5875,-9.6473,-9.6833,-9.6892,-9.7072,-9.7192,-9.7192,-9.7311,-9.6892,-9.6294,-9.6114,-9.7473,-9.9952,-10.1087,-10.3752,-10.653,-10.7505,-10.7576,-10.69,-10.5953,-10.4938,-10.51,-10.6354,-10.7368,-10.8295,-11.0223,-11.2376,-11.2973,-11.3703,-11.5518,-4.5745,-4.5665,-4.5424,-4.5104,-4.481,-4.4516,-4.4249,-4.4035,-4.4008,-4.3848,-4.3581,-4.3233,-4.2993,-4.2672,-4.2405,-4.2245,-4.2165,-4.1924,-4.163,-4.1363,-4.1042,-4.0722,-4.0374,-3.9867,-3.9466,-3.9326,-4.4913,-4.7453,-4.8311,-5.365,-5.6562,-5.6406,-5.5742,-5.5547,-5.5859,-5.4765,-5.4492,-5.4844,-5.4453,-5.4258,-5.457,-5.4219,-5.4023,-5.4023,-5.4023,-5.4023,-5.4023,-5.4023,-5.4023,-5.4023,-5.4023,-5.4023,-5.4023,-5.4062,-5.4258,-5.4726,-5.5117,-5.8089,-6.2945,-6.4438,-6.6905,-7.1334,-7.2526,-7.2715,-7.2715,-7.2715,-7.2765,-7.2916,-7.3368,-7.387,-7.4372,-7.5025,-7.7201,-8.0917,-8.2809,-8.5394,-8.9327,-9.1207,-9.1865,-9.2404,-9.3122,-9.384,-9.4499,-9.5336,-9.5995,-9.6533,-9.7132,-9.7491,-9.7551,-9.791,-9.8329,-9.8389,-9.8149,-9.7611,-9.7252,-9.7306,-9.9268,-10.1,-10.1442,-10.3068,-10.6589,-10.8321,-10.7847,-10.717,-10.602,-10.5005,-10.4794,-10.5844,-10.6198,-10.7269,-10.9094,-11.0258,-11.0664,-11.1478,-11.3943,-4.5451,-4.5371,-4.4917,-4.4676,-4.4543,-4.4249,-4.4088,-4.4008,-4.4008,-4.3821,-4.3554,-4.342,-4.3127,-4.2726,-4.2565,-4.2405,-4.2218,-4.2111,-4.1924,-4.1603,-4.1149,-4.0775,-4.0454,-4.008,-3.9626,-4.0082,-4.4913,-4.7643,-4.8755,-5.3687,-5.6601,-5.6484,-5.6015,-5.582,-5.5898,-5.5273,-5.4961,-5.4805,-5.4609,-5.4414,-5.4258,-5.4101,-5.4023,-5.4023,-5.4023,-5.4023,-5.4023,-5.4023,-5.4023,-5.4023,-5.4023,-5.4023,-5.4062,-5.4297,-5.4687,-5.5078,-5.5508,-5.8332,-6.3386,-6.4773,-6.6905,-7.1334,-7.2715,-7.2715,-7.2715,-7.2765,-7.2916,-7.3268,-7.382,-7.4272,-7.4573,-7.5628,-7.8168,-8.2265,-8.3472,-8.579,-8.9724,-9.0908,-9.1207,-9.1925,-9.2883,-9.384,-9.4738,-9.5755,-9.6892,-9.7192,-9.779,-9.8149,-9.8209,-9.8329,-9.8508,-9.8508,-9.8389,-9.8149,-9.7431,-9.7663,-9.9439,-10.1309,-10.2301,-10.3804,-10.7056,-10.8659,-10.8118,-10.7441,-10.6291,-10.5612,-10.54,-10.5449,-10.595,-10.6064,-10.722,-10.7788,-10.8047,-10.9642,-11.1918,-4.5237,-4.5104,-4.4623,-4.4436,-4.4409,-4.4115,-4.4008,-4.4008,-4.4008,-4.3821,-4.3554,-4.3394,-4.31,-4.2726,-4.2565,-4.2405,-4.2218,-4.2218,-4.2111,-4.1897,-4.147,-4.1069,-4.0722,-4.0134,-3.9626,-4.0316,-4.4913,-4.7643,-4.7866,-5.3433,-5.6601,-5.6523,-5.6133,-5.6015,-5.6094,-5.5625,-5.5195,-5.5117,-5.4844,-5.4531,-5.4297,-5.4101,-5.4023,-5.4023,-5.4023,-5.4023,-5.4023,-5.4023,-5.4023,-5.4023,-5.4023,-5.4101,-5.4258,-5.4531,-5.4922,-5.5469,-5.5992,-5.8159,-6.2588,-6.4056,-6.6508,-7.0325,-7.2146,-7.2866,-7.2966,-7.3016,-7.3318,-7.387,-7.4171,-7.4473,-7.4875,-7.5778,-7.8634,-8.3143,-8.419,-8.6591,-9.0146,-9.1386,-9.1865,-9.2703,-9.3541,-9.4439,-9.5695,-9.6473,-9.7611,-9.785,-9.8269,-9.8508,-9.8508,-9.8508,-9.8508,-9.8508,-9.8508,-9.803,-9.7252,-9.8015,-9.9477,-10.1408,-10.3162,-10.5601,-10.8627,-10.8924,-10.8727,-10.8321,-10.7373,-10.69,-10.6693,-10.6414,-10.6594,-10.6321,-10.5782,-10.6397,-10.7085,-10.7774,-10.9973,-4.5131,-4.4863,-4.4543,-4.4382,-4.4356,-4.4115,-4.4008,-4.4008,-4.4008,-4.3795,-4.3474,-4.334,-4.2993,-4.2646,-4.2458,-4.2352,-4.2218,-4.2218,-4.2218,-4.2111,-4.1844,-4.1497,-4.1016,-4.0161,-3.9573,-4.0137,-4.4975,-4.7453,-4.7866,-5.365,-5.6601,-5.6523,-5.625,-5.6172,-5.6328,-5.5781,-5.5586,-5.5586,-5.5078,-5.4726,-5.457,-5.4219,-5.4023,-5.4023,-5.4023,-5.4023,-5.4023,-5.4023,-5.4023,-5.4023,-5.4023,-5.4219,-5.457,-5.4687,-5.5117,-5.582,-5.5937,-5.7611,-6.053,-6.3288,-6.5911,-6.8871,-7.1433,-7.2966,-7.3418,-7.3569,-7.387,-7.4372,-7.4573,-7.4824,-7.5327,-7.608,-7.8984,-8.3485,-8.5773,-8.8227,-9.1843,-9.2583,-9.3062,-9.408,-9.4678,-9.5336,-9.7012,-9.7431,-9.785,-9.8269,-9.8508,-9.8508,-9.8508,-9.8508,-9.8508,-9.8508,-9.8508,-9.8089,-9.7371,-9.9025,-10.0533,-10.2317,-10.4368,-10.7053,-10.923,-10.9531,-10.9268,-10.8862,-10.8456,-10.8118,-10.7712,-10.7233,-10.655,-10.5739,-10.5608,-10.5682,-10.6492,-10.7575,-10.9653,-4.4943,-4.4837,-4.4329,-4.4115,-4.4115,-4.4035,-4.4008,-4.4008,-4.4008,-4.3714,-4.3367,-4.3607,-4.3207,-4.2432,-4.2699,-4.2646,-4.2298,-4.2218,-4.2218,-4.2165,-4.1924,-4.1363,-4.0748,-4.0187,-3.976,-4.0383,-4.4858,-4.7908,-4.8122,-5.347,-5.6387,-5.6601,-5.6484,-5.6445,-5.6523,-5.6328,-5.5937,-5.5547,-5.5312,-5.4805,-5.4258,-5.4141,-5.4023,-5.4023,-5.4023,-5.4023,-5.4023,-5.4023,-5.4023,-5.4023,-5.4023,-5.4219,-5.4687,-5.5,-5.539,-5.5898,-5.625,-5.764,-6.0406,-6.3084,-6.5911,-6.8528,-7.1487,-7.3418,-7.3569,-7.3971,-7.4423,-7.4975,-7.5377,-7.5829,-7.6431,-7.7435,-8.0437,-8.5448,-8.8372,-9.1102,-9.2728,-9.3361,-9.3661,-9.4499,-9.5456,-9.6473,-9.7252,-9.791,-9.8269,-9.8448,-9.8508,-9.8508,-9.8508,-9.8508,-9.8508,-9.8508,-9.8448,-9.8089,-9.8207,-9.9801,-10.1632,-10.3545,-10.5817,-10.8375,-10.9767,-11.0346,-10.9809,-10.92,-10.8794,-10.8456,-10.7915,-10.7373,-10.6426,-10.5614,-10.5682,-10.602,-10.7094,-10.8176,-11.0819,-4.481,-4.465,-4.4195,-4.4008,-4.4008,-4.4008,-4.4008,-4.4008,-4.4008,-4.3741,-4.342,-4.3634,-4.3287,-4.2512,-4.2752,-4.2646,-4.2271,-4.2218,-4.2218,-4.2138,-4.179,-4.1256,-4.0695,-4.0267,-3.9947,-4.0236,-4.427,-4.6748,-4.8555,-5.2671,-5.5288,-5.6582,-5.668,-5.6601,-5.6601,-5.6562,-5.6172,-5.5508,-5.543,-5.5078,-5.4141,-5.4219,-5.418,-5.4101,-5.4023,-5.4023,-5.4023,-5.4023,-5.4023,-5.4062,-5.4219,-5.4492,-5.4922,-5.5351,-5.5742,-5.6172,-5.6445,-5.7415,-5.9236,-6.247,-6.531,-6.7394,-7.086,-7.3286,-7.4021,-7.4623,-7.5327,-7.5879,-7.6431,-7.6833,-7.7435,-7.8946,-8.226,-8.6682,-9.0308,-9.2861,-9.4206,-9.4439,-9.4858,-9.5695,-9.6473,-9.7192,-9.779,-9.8269,-9.8448,-9.8508,-9.8508,-9.8508,-9.8508,-9.8508,-9.8508,-9.8508,-9.8508,-9.8269,-9.8329,-9.9517,-10.2281,-10.4249,-10.7626,-11.007,-11.0447,-11.1095,-11.0756,-11.008,-10.9403,-10.8794,-10.8321,-10.7712,-10.69,-10.6358,-10.6291,-10.656,-10.7502,-10.898,-11.1613,-4.473,-4.4463,-4.4142,-4.4008,-4.4008,-4.4008,-4.4008,-4.4008,-4.4008,-4.3821,-4.3581,-4.3554,-4.326,-4.2672,-4.2752,-4.2539,-4.2218,-4.2218,-4.2191,-4.2031,-4.1684,-4.1256,-4.0935,-4.0454,-4.0187,-4.0506,-4.2813,-4.538,-4.7918,-5.0621,-5.3402,-5.4644,-5.525,-5.5744,-5.549,-5.592,-5.5708,-5.5625,-5.5703,-5.5273,-5.4453,-5.4414,-5.4414,-5.4062,-5.4023,-5.4023,-5.4023,-5.4023,-5.4023,-5.4023,-5.4453,-5.4805,-5.5273,-5.5703,-5.6094,-5.6445,-5.6562,-5.6776,-5.78,-6.206,-6.5154,-6.6493,-7.0957,-7.3971,-7.4623,-7.5527,-7.6281,-7.6783,-7.7436,-7.7787,-7.8544,-8.0609,-8.3704,-8.7368,-9.0234,-9.2849,-9.4932,-9.5755,-9.6234,-9.7311,-9.7491,-9.791,-9.8269,-9.8508,-9.8508,-9.8508,-9.8508,-9.8508,-9.8508,-9.8508,-9.8508,-9.8508,-9.8508,-9.8508,-9.8628,-9.8987,-10.2174,-10.5082,-10.9103,-11.1616,-11.1346,-11.1636,-11.1568,-11.1162,-11.0283,-10.9538,-10.893,-10.8253,-10.7441,-10.69,-10.6697,-10.69,-10.7441,-10.9464,-11.1799,-4.4837,-4.473,-4.4222,-4.4008,-4.4008,-4.4008,-4.4008,-4.4008,-4.4008,-4.3821,-4.3634,-4.3795,-4.342,-4.2699,-4.2859,-4.2726,-4.2271,-4.2191,-4.2111,-4.1871,-4.179,-4.1523,-4.1229,-4.0855,-4.0615,-4.1127,-4.336,-4.4901,-4.5905,-4.8015,-4.96,-5.026,-5.1082,-5.1058,-5.3072,-5.3507,-5.4111,-5.5437,-5.5898,-5.5508,-5.4765,-5.4648,-5.4531,-5.4141,-5.4062,-5.4023,-5.4023,-5.4023,-5.4023,-5.4141,-5.4492,-5.4961,-5.5312,-5.5742,-5.6172,-5.6484,-5.6601,-5.7415,-5.9823,-6.2675,-6.5893,-6.8258,-7.159,-7.4674,-7.5628,-7.6281,-7.6933,-7.7486,-7.8038,-7.8641,-7.955,-8.1999,-8.4755,-8.7507,-9.0088,-9.2959,-9.5704,-9.6773,-9.7132,-9.7491,-9.797,-9.8389,-9.8508,-9.8508,-9.8508,-9.8508,-9.8508,-9.8508,-9.8508,-9.8508,-9.8508,-9.8508,-9.8508,-9.8508,-9.8987,-9.9875,-10.2973,-10.6011,-10.9932,-11.2651,-11.238,-11.2177,-11.2109,-11.1703,-11.1027,-11.0283,-10.9538,-10.8794,-10.7982,-10.7576,-10.7306,-10.7847,-10.8728,-11.042,-11.2084,-4.4997,-4.4837,-4.4382,-4.4115,-4.4008,-4.4008,-4.4008,-4.4008,-4.4008,-4.3901,-4.3821,-4.3928,-4.3554,-4.2886,-4.2993,-4.2779,-4.2325,-4.2218,-4.2058,-4.1844,-4.179,-4.171,-4.1577,-4.1363,-4.1122,-4.1019,-4.2238,-4.335,-4.4786,-4.5981,-4.7483,-4.8472,-4.8308,-5.007,-5.1976,-5.2379,-5.3613,-5.5418,-5.6133,-5.582,-5.5117,-5.5156,-5.4922,-5.4453,-5.4336,-5.4258,-5.4062,-5.4258,-5.4336,-5.4492,-5.4922,-5.5234,-5.539,-5.5898,-5.6328,-5.6523,-5.6601,-5.78,-6.0448,-6.3084,-6.6093,-6.9437,-7.2665,-7.4534,-7.5929,-7.6783,-7.7486,-7.8038,-7.8641,-7.9294,-8.0097,-8.1185,-8.373,-8.7504,-8.9482,-9.2262,-9.5881,-9.7311,-9.767,-9.791,-9.8269,-9.8448,-9.8508,-9.8508,-9.8508,-9.8508,-9.8568,-9.8568,-9.8508,-9.8508,-9.8508,-9.8508,-9.8508,-9.8688,-9.9344,-10.1037,-10.4034,-10.7062,-11.018,-11.2415,-11.3057,-11.2854,-11.2718,-11.2042,-11.123,-11.0756,-11.0012,-10.9268,-10.8727,-10.8456,-10.8456,-10.8997,-10.9541,-11.0426,-11.2499,-4.5131,-4.4863,-4.4569,-4.4275,-4.4035,-4.4008,-4.4008,-4.4008,-4.4008,-4.3982,-4.3982,-4.3955,-4.3607,-4.3233,-4.302,-4.2699,-4.2352,-4.2218,-4.2084,-4.1924,-4.1897,-4.1871,-4.1844,-4.1764,-4.1577,-4.1122,-4.1423,-4.262,-4.3676,-4.443,-4.4846,-4.7178,-4.7156,-4.8178,-5.0845,-5.2005,-5.3073,-5.5727,-5.6406,-5.6172,-5.5586,-5.5664,-5.543,-5.4922,-5.4765,-5.4648,-5.4492,-5.4609,-5.4765,-5.4805,-5.5508,-5.5664,-5.5703,-5.6094,-5.6601,-5.6601,-5.6601,-5.8475,-6.1405,-6.3871,-6.6476,-6.9825,-7.2912,-7.498,-7.6281,-7.7235,-7.7988,-7.8691,-7.9294,-7.9896,-8.0298,-8.0758,-8.3443,-8.73,-8.9024,-9.1654,-9.5935,-9.7551,-9.797,-9.8329,-9.8448,-9.8508,-9.8508,-9.8508,-9.8508,-9.8568,-9.8628,-9.8628,-9.8628,-9.8688,-9.8748,-9.8748,-9.8748,-9.8867,-9.9408,-10.1834,-10.4853,-10.7386,-11.0426,-11.2327,-11.353,-11.3327,-11.2989,-11.2109,-11.1433,-11.0892,-11.0486,-10.9944,-10.9538,-10.9403,-10.9403,-10.9606,-10.9944,-11.035,-11.2783,-4.5157,-4.4863,-4.4569,-4.4275,-4.4035,-4.4008,-4.4008,-4.4008,-4.4008,-4.4008,-4.3982,-4.3741,-4.3607,-4.334,-4.2913,-4.2539,-4.2298,-4.2218,-4.2191,-4.2111,-4.2111,-4.2111,-4.2111,-4.2084,-4.1924,-4.1657,-4.1497,-4.1642,-4.1806,-4.1532,-4.236,-4.1996,-4.215,-4.4487,-4.8015,-4.9273,-5.1854,-5.5797,-5.6543,-5.6367,-5.6055,-5.5898,-5.5781,-5.5273,-5.5195,-5.5117,-5.5078,-5.5117,-5.5195,-5.5273,-5.5664,-5.5859,-5.5937,-5.6328,-5.6562,-5.6601,-5.7068,-5.923,-6.3315,-6.5085,-6.862,-7.2715,-7.5231,-7.623,-7.7185,-7.7938,-7.854,-7.9294,-8.0097,-8.08,-8.0901,-8.1152,-8.381,-8.734,-8.9661,-9.1975,-9.6107,-9.8089,-9.8448,-9.8808,-9.8688,-9.8628,-9.8748,-9.8867,-9.8987,-9.9107,-9.9226,-9.9107,-9.8987,-9.9047,-9.9167,-9.9107,-9.9047,-9.9226,-9.9588,-10.2485,-10.5498,-10.7486,-11.0168,-11.2741,-11.3666,-11.3598,-11.3124,-11.2312,-11.1636,-11.1095,-11.0756,-11.0486,-11.0147,-10.9809,-10.9944,-11.0215,-11.0689,-11.1302,-11.2941,-4.505,-4.465,-4.4489,-4.4275,-4.4035,-4.4008,-4.4008,-4.4008,-4.4008,-4.4008,-4.3955,-4.3848,-4.3661,-4.3447,-4.31,-4.2646,-4.2325,-4.2218,-4.2218,-4.2218,-4.2218,-4.2218,-4.2218,-4.2218,-4.2138,-4.1951,-4.171,-4.1416,-4.1176,-4.1176,-4.0935,-4.0775,-4.0722,-4.2841,-4.6401,-4.8471,-5.107,-5.4653,-5.6244,-5.6797,-5.6562,-5.6406,-5.6055,-5.5742,-5.5625,-5.5508,-5.5351,-5.5547,-5.5625,-5.5742,-5.625,-5.6406,-5.6445,-5.6601,-5.6797,-5.6894,-5.8,-6.0657,-6.506,-6.7006,-7.0874,-7.4689,-7.618,-7.6984,-7.7837,-7.839,-7.8992,-7.9846,-8.075,-8.1302,-8.1051,-8.1553,-8.4173,-8.8116,-9.002,-9.3038,-9.6933,-9.8743,-9.9346,-9.9346,-9.9286,-9.9226,-9.9167,-9.9346,-9.9526,-9.9645,-9.9825,-9.9705,-9.9466,-9.9645,-9.9825,-9.9705,-9.9645,-9.9586,-10.0311,-10.3091,-10.556,-10.765,-11.0497,-11.2864,-11.3936,-11.4004,-11.3395,-11.2583,-11.1906,-11.1501,-11.1162,-11.1027,-11.0621,-11.0486,-11.1027,-11.1433,-11.1636,-11.2466,-11.39,-4.4917,-4.4436,-4.4436,-4.4275,-4.4035,-4.4008,-4.4008,-4.4008,-4.4008,-4.4008,-4.4008,-4.3928,-4.3768,-4.3581,-4.3233,-4.2806,-4.2325,-4.2271,-4.2245,-4.2325,-4.2245,-4.2218,-4.2218,-4.2271,-4.2298,-4.2298,-4.2138,-4.1764,-4.1497,-4.1497,-4.1497,-4.1283,-4.1283,-4.2515,-4.5324,-4.8089,-5.0776,-5.3273,-5.5972,-5.7344,-5.7148,-5.6953,-5.6562,-5.6172,-5.6133,-5.6015,-5.5742,-5.5898,-5.6055,-5.625,-5.668,-5.7031,-5.6836,-5.7109,-5.7187,-5.7383,-5.9385,-6.2165,-6.5711,-6.8146,-7.1339,-7.5733,-7.6984,-7.7837,-7.849,-7.9093,-7.9595,-8.0449,-8.1202,-8.1654,-8.1403,-8.239,-8.5209,-8.8859,-9.1525,-9.3755,-9.7749,-9.9945,-10.0124,-10.0124,-10.0004,-9.9885,-9.9885,-9.9825,-10.0004,-10.0184,-10.0364,-10.0304,-10.0184,-10.0423,-10.0603,-10.0423,-10.0304,-10.0064,-10.1211,-10.3635,-10.5771,-10.7584,-11.0827,-11.3851,-11.4342,-11.4545,-11.3801,-11.3057,-11.2651,-11.2245,-11.1906,-11.1703,-11.1636,-11.1839,-11.2312,-11.2583,-11.2651,-11.3001,-11.3974,-4.473,-4.4436,-4.4436,-4.4275,-4.4035,-4.4008,-4.4008,-4.4008,-4.4008,-4.4008,-4.3982,-4.3741,-4.3741,-4.3688,-4.3287,-4.2913,-4.2592,-4.2352,-4.2325,-4.2432,-4.2325,-4.2218,-4.2271,-4.2512,-4.2539,-4.2565,-4.2539,-4.2245,-4.1897,-4.163,-4.1443,-4.1416,-4.1665,-4.2626,-4.4989,-4.7589,-5.0979,-5.3597,-5.6391,-5.7617,-5.7344,-5.75,-5.7187,-5.6797,-5.6758,-5.6758,-5.6328,-5.6367,-5.6445,-5.6562,-5.6953,-5.7187,-5.7226,-5.7539,-5.7734,-5.7617,-5.8367,-6.0432,-6.5712,-6.8558,-7.1531,-7.6077,-7.8139,-7.8992,-7.9495,-8.0147,-8.08,-8.1503,-8.1805,-8.1905,-8.2431,-8.4843,-8.7852,-9.0752,-9.3625,-9.6459,-9.9744,-10.1022,-10.1142,-10.0962,-10.0902,-10.0723,-10.0603,-10.0543,-10.0483,-10.0663,-10.0842,-10.0842,-10.0962,-10.1201,-10.1381,-10.1261,-10.0902,-10.0603,-10.1517,-10.4072,-10.6178,-10.7769,-11.1156,-11.4545,-11.4816,-11.4883,-11.441,-11.3733,-11.3395,-11.3124,-11.2989,-11.2921,-11.2854,-11.2989,-11.3327,-11.3463,-11.3463,-11.3815,-11.4302,-4.2387,-4.4195,-4.4195,-4.4115,-4.4008,-4.4008,-4.4008,-4.4008,-4.4008,-4.4008,-4.3982,-4.3875,-4.3714,-4.3474,-4.302,-4.2672,-4.2432,-4.2271,-4.2271,-4.2405,-4.2298,-4.2245,-4.2298,-4.2512,-4.2646,-4.2752,-4.2806,-4.2833,-4.2432,-4.2084,-4.1844,-4.1817,-4.1817,-4.221,-4.3993,-4.6526,-4.8997,-5.2245,-5.5581,-5.7827,-5.7734,-5.7695,-5.7578,-5.6992,-5.7148,-5.6992,-5.6758,-5.6601,-5.6719,-5.6914,-5.7344,-5.7578,-5.7695,-5.7969,-5.8242,-5.8242,-5.8359,-6.1243,-6.6675,-6.9516,-7.345,-7.6757,-7.9243,-7.9896,-8.0348,-8.1001,-8.1553,-8.1754,-8.2106,-8.2407,-8.3301,-8.5782,-8.8913,-9.22,-9.5908,-9.8386,-10.0813,-10.1605,-10.2279,-10.2039,-10.18,-10.168,-10.162,-10.168,-10.1561,-10.1501,-10.168,-10.174,-10.18,-10.1979,-10.2039,-10.2039,-10.162,-10.1142,-10.2423,-10.4351,-10.6622,-10.8617,-11.1882,-11.4525,-11.5289,-11.5222,-11.4883,-11.4545,-11.4207,-11.4072,-11.4139,-11.3869,-11.3598,-11.3869,-11.4207,-11.441,-11.4613,-11.4748,-11.5537,-3.9375,-4.2635,-4.3718,-4.4008,-4.4008,-4.4008,-4.4008,-4.4008,-4.4008,-4.4008,-4.4008,-4.3982,-4.3661,-4.318,-4.2886,-4.2672,-4.2352,-4.2245,-4.2325,-4.2378,-4.2378,-4.2405,-4.2565,-4.2752,-4.2913,-4.2886,-4.31,-4.3153,-4.302,-4.2726,-4.2405,-4.2325,-4.2165,-4.2004,-4.2818,-4.5292,-4.834,-5.2392,-5.6591,-5.8372,-5.8164,-5.8164,-5.789,-5.7578,-5.7422,-5.7344,-5.6992,-5.6953,-5.7148,-5.7383,-5.7812,-5.8008,-5.8086,-5.8555,-5.8867,-5.9023,-5.9297,-6.1807,-6.6408,-7.0307,-7.469,-7.7472,-8.0039,-8.0901,-8.1403,-8.1855,-8.2005,-8.2106,-8.2558,-8.3491,-8.4971,-8.7565,-9.1379,-9.4999,-9.8183,-10.0424,-10.2191,-10.2748,-10.2997,-10.2757,-10.2638,-10.2877,-10.2817,-10.2937,-10.2817,-10.2518,-10.2518,-10.2518,-10.2458,-10.2458,-10.2398,-10.2339,-10.2159,-10.2046,-10.3092,-10.4704,-10.6898,-10.9621,-11.2937,-11.4919,-11.5752,-11.5966,-11.5763,-11.5425,-11.4951,-11.5492,-11.5831,-11.5019,-11.4477,-11.5357,-11.6034,-11.5763,-11.5831,-11.5966,-11.6779,-3.5606,-3.9375,-4.2635,-4.4008,-4.4008,-4.4008,-4.4008,-4.4008,-4.4008,-4.4008,-4.4008,-4.3955,-4.3607,-4.3207,-4.2993,-4.2806,-4.2619,-4.2352,-4.2539,-4.2752,-4.2806,-4.2779,-4.2939,-4.318,-4.3394,-4.3394,-4.3474,-4.3501,-4.342,-4.3153,-4.2859,-4.2646,-4.2432,-4.2111,-4.3095,-4.5408,-4.9671,-5.3638,-5.7798,-5.9034,-5.8867,-5.8789,-5.8672,-5.8125,-5.8164,-5.8242,-5.7812,-5.7656,-5.7695,-5.7812,-5.8164,-5.8555,-5.8672,-5.918,-5.9492,-5.9726,-6.0351,-6.2408,-6.5497,-6.9119,-7.2404,-7.5596,-7.8911,-8.1805,-8.2206,-8.2457,-8.2608,-8.2658,-8.311,-8.491,-8.7826,-9.1455,-9.4432,-9.7704,-10.0521,-10.2256,-10.3525,-10.3405,-10.3595,-10.3416,-10.3416,-10.3535,-10.3655,-10.3655,-10.3476,-10.3176,-10.2757,-10.2757,-10.2518,-10.2458,-10.2518,-10.2458,-10.2518,-10.2765,-10.3807,-10.6007,-10.9206,-11.1891,-11.4752,-11.5901,-11.671,-11.6643,-11.6304,-11.5898,-11.5492,-11.6507,-11.7319,-11.6575,-11.644,-11.7387,-11.7793,-11.7522,-11.7048,-11.6845,-11.7887,-3.208,-3.5606,-3.9108,-4.208,-4.4008,-4.4008,-4.4008,-4.4008,-4.4008,-4.4008,-4.3982,-4.3634,-4.342,-4.3233,-4.2752,-4.2726,-4.2833,-4.2619,-4.2806,-4.2939,-4.2993,-4.302,-4.318,-4.3367,-4.3527,-4.3581,-4.3688,-4.3821,-4.3795,-4.3501,-4.3367,-4.31,-4.2726,-4.2352,-4.3594,-4.6729,-5.1416,-5.4926,-5.8253,-5.9883,-5.957,-5.9648,-5.9531,-5.8789,-5.8789,-5.8515,-5.7969,-5.7851,-5.8008,-5.8242,-5.8476,-5.8789,-5.918,-5.9687,-5.9961,-6.0273,-6.1055,-6.2061,-6.4022,-6.8354,-7.3452,-7.8466,-8.1115,-8.2407,-8.2658,-8.2708,-8.2909,-8.316,-8.3713,-8.5573,-8.9463,-9.2848,-9.6048,-9.9908,-10.2614,-10.4155,-10.4673,-10.4493,-10.4373,-10.4254,-10.4134,-10.4074,-10.4194,-10.4313,-10.4074,-10.3775,-10.3356,-10.2937,-10.2757,-10.2638,-10.2638,-10.2698,-10.2817,-10.424,-10.5406,-10.8545,-11.1861,-11.4172,-11.6349,-11.696,-11.7387,-11.6913,-11.6575,-11.6169,-11.5966,-11.6643,-11.7251,-11.7793,-11.8334,-11.9011,-11.9214,-11.9214,-11.8605,-11.786,-11.9336,-2.8294,-3.1809,-3.4156,-3.8771,-4.3718,-4.4008,-4.4008,-4.4008,-4.4008,-4.3928,-4.3848,-4.342,-4.3207,-4.31,-4.2833,-4.2619,-4.2859,-4.2859,-4.2993,-4.3127,-4.3233,-4.3287,-4.3394,-4.3554,-4.3714,-4.3741,-4.3848,-4.3982,-4.3955,-4.3768,-4.3607,-4.3394,-4.3127,-4.2779,-4.3816,-4.8387,-5.288,-5.5951,-5.8707,-6.039,-6.0117,-6.0195,-6.0234,-5.9609,-5.9609,-5.9375,-5.8906,-5.875,-5.8711,-5.8867,-5.9023,-5.9258,-5.9648,-6.0078,-6.039,-6.0898,-6.1445,-6.1914,-6.3745,-6.8137,-7.4771,-8.0472,-8.2042,-8.2608,-8.2708,-8.2809,-8.3211,-8.3763,-8.4585,-8.6709,-9.0895,-9.4777,-9.8571,-10.2499,-10.4146,-10.557,-10.5451,-10.5331,-10.5211,-10.5151,-10.5091,-10.5211,-10.575,-10.581,-10.4912,-10.4553,-10.3954,-10.3476,-10.3057,-10.2937,-10.2937,-10.2997,-10.3117,-10.5221,-10.7361,-11.0243,-11.3124,-11.5677,-11.7504,-11.7783,-11.7996,-11.7387,-11.6643,-11.6101,-11.6101,-11.6643,-11.7454,-11.8469,-11.9417,-12.0431,-12.0431,-12.0431,-11.9687,-11.9309,-12.0713,-2.4782,-2.7731,-2.8104,-3.4052,-4.2899,-4.3982,-4.3718,-4.3454,-4.4008,-4.3875,-4.3661,-4.3501,-4.326,-4.2966,-4.2966,-4.2966,-4.2966,-4.3046,-4.3233,-4.3474,-4.3527,-4.3688,-4.3821,-4.3928,-4.3901,-4.3982,-4.4008,-4.4008,-4.4008,-4.3928,-4.3795,-4.3842,-4.3886,-4.4077,-4.3639,-4.8973,-5.3253,-5.6275,-5.9589,-6.059,-6.0547,-6.0547,-6.0508,-6.0351,-6.0312,-6.0156,-5.9883,-5.9531,-5.9492,-5.9609,-5.957,-5.9765,-6.0078,-6.0703,-6.1172,-6.168,-6.2148,-6.2814,-6.3642,-6.9495,-7.5654,-8.1281,-8.2608,-8.2708,-8.2809,-8.311,-8.3763,-8.4416,-8.537,-8.9103,-9.3197,-9.6619,-10.0399,-10.3227,-10.4435,-10.5684,-10.5369,-10.6408,-10.6348,-10.6348,-10.6468,-10.6707,-10.7366,-10.7485,-10.6229,-10.5391,-10.4673,-10.4074,-10.3595,-10.3416,-10.3416,-10.3595,-10.3905,-10.6508,-10.8953,-11.1669,-11.4389,-11.6957,-11.8595,-11.881,-11.8334,-11.7387,-11.671,-11.6034,-11.6237,-11.6778,-11.8063,-11.9281,-12.0634,-12.1852,-12.1582,-12.1379,-12.0702,-12.083,-12.2302,-2.4507,-2.7748,-2.7681,-3.121,-3.6925,-3.9448,-4.0291,-4.0729,-4.2635,-4.3928,-4.3821,-4.3634,-4.3607,-4.3474,-4.3233,-4.3233,-4.3501,-4.334,-4.3527,-4.3795,-4.3821,-4.3875,-4.3982,-4.4008,-4.4008,-4.4008,-4.4008,-4.4008,-4.4008,-4.4008,-4.3982,-4.4057,-4.567,-4.7538,-4.9594,-5.3384,-5.6672,-5.9042,-6.0786,-6.1328,-6.0976,-6.1094,-6.1133,-6.0859,-6.0859,-6.0742,-6.0508,-6.0156,-6.0039,-6.0156,-6.0078,-6.0234,-6.0781,-6.1445,-6.1836,-6.2461,-6.3206,-6.5698,-6.8656,-7.34,-7.6304,-8.049,-8.2759,-8.2909,-8.3211,-8.3361,-8.4165,-8.532,-8.6425,-8.9801,-9.3229,-9.4955,-9.7909,-10.0607,-10.2352,-10.4067,-10.4885,-10.6813,-10.7605,-10.7665,-10.7785,-10.7725,-10.8144,-10.8263,-10.7306,-10.6408,-10.575,-10.4852,-10.4254,-10.4134,-10.4074,-10.4313,-10.5125,-10.792,-11.079,-11.3276,-11.612,-11.917,-11.9914,-11.9789,-11.8943,-11.7522,-11.6778,-11.6101,-11.6507,-11.7048,-11.8808,-12.0634,-12.2326,-12.3273,-12.2867,-12.2596,-12.2258,-12.2529,-12.3515,-2.3696,-2.5865,-2.5786,-2.7169,-2.9892,-3.4609,-3.7346,-3.9084,-4.237,-4.3955,-4.3795,-4.3607,-4.3527,-4.3554,-4.3447,-4.3367,-4.3821,-4.3795,-4.3741,-4.4008,-4.4008,-4.4008,-4.4008,-4.4008,-4.4008,-4.4008,-4.4008,-4.4008,-4.4008,-4.4008,-4.3901,-4.4679,-4.752,-4.9968,-5.2563,-5.5217,-5.8314,-6.0357,-6.1719,-6.168,-6.1562,-6.1601,-6.1562,-6.1367,-6.1289,-6.1211,-6.0859,-6.0586,-6.039,-6.0508,-6.0586,-6.0742,-6.1445,-6.1953,-6.2383,-6.3086,-6.4113,-6.7215,-7.1415,-7.3662,-7.7128,-8.2361,-8.2894,-8.3412,-8.3864,-8.4265,-8.5069,-8.6174,-8.7429,-9.0208,-9.2946,-9.4551,-9.645,-9.9168,-10.1764,-10.3246,-10.4671,-10.6577,-10.8443,-10.8563,-10.8742,-10.8742,-10.8682,-10.8563,-10.8263,-10.7545,-10.6827,-10.5869,-10.4972,-10.4912,-10.4852,-10.5032,-10.6158,-10.8781,-11.1793,-11.4535,-11.777,-12.1166,-12.1176,-12.0431,-11.8943,-11.7454,-11.6845,-11.6507,-11.7116,-11.8131,-12.0161,-12.192,-12.3205,-12.395,-12.4017,-12.3814,-12.3679,-12.3957,-12.4522,-2.233,-2.2316,-2.2167,-2.2455,-2.3652,-3.0127,-3.5026,-3.8818,-4.237,-4.3821,-4.3527,-4.3581,-4.3527,-4.3314,-4.342,-4.3581,-4.3661,-4.3875,-4.3955,-4.3982,-4.4008,-4.4008,-4.4008,-4.4008,-4.4008,-4.4008,-4.4008,-4.4008,-4.4008,-4.3901,-4.3768,-4.4978,-4.8963,-5.1524,-5.3612,-5.6359,-5.9285,-6.1523,-6.1953,-6.1914,-6.1914,-6.1797,-6.1719,-6.1601,-6.1601,-6.1562,-6.1367,-6.1172,-6.1094,-6.1094,-6.1133,-6.1406,-6.1797,-6.2187,-6.289,-6.3515,-6.4101,-6.7937,-7.2285,-7.4072,-7.7868,-8.257,-8.4215,-8.4315,-8.4617,-8.5169,-8.6023,-8.7128,-8.8383,-9.0977,-9.3503,-9.4761,-9.5971,-9.8835,-10.1673,-10.328,-10.4564,-10.6344,-10.844,-10.9161,-10.9341,-10.94,-10.94,-10.9281,-10.8982,-10.8144,-10.7426,-10.6767,-10.5989,-10.575,-10.575,-10.581,-10.7195,-10.9453,-11.2488,-11.535,-11.8228,-12.1436,-12.1158,-12.0431,-11.8875,-11.7793,-11.759,-11.759,-11.8063,-11.9281,-12.1446,-12.2799,-12.3747,-12.4288,-12.4491,-12.4356,-12.4085,-12.4105,-12.4687,-2.2181,-2.2154,-2.2018,-2.1977,-2.2835,-2.7241,-3.265,-3.8316,-4.2267,-4.3821,-4.3554,-4.3768,-4.3768,-4.3768,-4.3821,-4.3848,-4.3901,-4.3955,-4.3982,-4.4008,-4.4008,-4.4008,-4.4008,-4.4008,-4.4008,-4.4008,-4.4008,-4.4008,-4.3955,-4.3821,-4.3527,-4.4186,-4.9031,-5.1675,-5.4312,-5.7874,-6.0374,-6.2069,-6.2226,-6.2148,-6.1992,-6.1836,-6.1758,-6.1719,-6.1719,-6.1719,-6.1601,-6.1367,-6.1406,-6.1836,-6.164,-6.1914,-6.3086,-6.3281,-6.3633,-6.4023,-6.4743,-6.6951,-7.2593,-7.4707,-7.7652,-8.3067,-8.542,-8.5722,-8.5772,-8.6073,-8.6927,-8.8082,-8.9136,-9.1386,-9.2668,-9.3751,-9.463,-9.6253,-9.9598,-10.2843,-10.4362,-10.7045,-10.8952,-10.97,-10.9879,-10.9879,-10.9879,-10.9879,-10.952,-10.8622,-10.7904,-10.7366,-10.6767,-10.6408,-10.6468,-10.6468,-10.7665,-10.9748,-11.2922,-11.5961,-11.8695,-12.0941,-12.0985,-12.0634,-11.9484,-11.8672,-11.8537,-11.9011,-11.9755,-12.1108,-12.2799,-12.3814,-12.4288,-12.4423,-12.4626,-12.4559,-12.4423,-12.4687,-12.5536,-2.2018,-2.2004,-2.1923,-2.1882,-2.2424,-2.5979,-3.0829,-3.5946,-4.0026,-4.2242,-4.3741,-4.3901,-4.4008,-4.3982,-4.3982,-4.3982,-4.3982,-4.3982,-4.4008,-4.4008,-4.4008,-4.4008,-4.4008,-4.4008,-4.4008,-4.4008,-4.4008,-4.4008,-4.3901,-4.3554,-4.3233,-4.3589,-4.8408,-5.0836,-5.3612,-5.7333,-6.0877,-6.2143,-6.2617,-6.2383,-6.2148,-6.1875,-6.1758,-6.1719,-6.1719,-6.1719,-6.1758,-6.1484,-6.1914,-6.2344,-6.2109,-6.2656,-6.3633,-6.3828,-6.3945,-6.4258,-6.454,-6.7989,-7.3002,-7.5112,-7.9176,-8.368,-8.6475,-8.6927,-8.7077,-8.7278,-8.8032,-8.8935,-8.9839,-9.0794,-9.1597,-9.235,-9.2842,-9.3094,-9.7485,-10.1865,-10.4885,-10.7654,-10.9196,-11.0096,-11.0298,-11.0238,-11.0298,-11.0298,-10.9999,-10.9041,-10.8443,-10.8084,-10.7246,-10.6528,-10.6767,-10.7007,-10.8013,-10.9722,-11.3302,-11.6507,-11.8724,-12.0756,-12.112,-12.077,-11.989,-11.9755,-11.9822,-12.0702,-12.1785,-12.2935,-12.3814,-12.422,-12.4626,-12.4694,-12.5007,-12.5181,-12.5574,-12.6043,-12.7438,-2.1869,-2.1855,-2.1855,-2.1828,-2.2382,-2.5314,-2.8775,-3.2269,-3.5835,-4.0124,-4.3111,-4.3982,-4.4008,-4.4008,-4.4008,-4.4008,-4.4008,-4.4008,-4.4008,-4.4008,-4.4008,-4.4008,-4.4008,-4.4008,-4.4008,-4.4008,-4.4008,-4.4008,-4.3848,-4.3501,-4.3153,-4.3304,-4.5972,-4.9345,-5.3221,-5.6329,-5.9922,-6.2808,-6.2734,-6.2422,-6.25,-6.2187,-6.1719,-6.1719,-6.1719,-6.1719,-6.1836,-6.2031,-6.2383,-6.2539,-6.2851,-6.3281,-6.3711,-6.4062,-6.4258,-6.4375,-6.4414,-6.8517,-7.2739,-7.5516,-7.9787,-8.3864,-8.7077,-8.773,-8.8032,-8.7981,-8.8534,-8.9538,-9.0442,-9.1296,-9.2149,-9.2752,-9.3104,-9.4992,-9.8352,-10.1406,-10.3584,-10.6927,-10.9665,-11.0418,-11.0298,-11.0298,-11.0298,-11.0298,-10.9999,-10.9221,-10.8622,-10.8383,-10.7725,-10.6767,-10.7066,-10.7485,-10.8238,-11.0026,-11.4294,-11.7245,-11.8817,-12.034,-12.1234,-12.1446,-12.0905,-12.0973,-12.1108,-12.2123,-12.3205,-12.3679,-12.4423,-12.4626,-12.4694,-12.4851,-12.5094,-12.5795,-12.6479,-12.7224,-12.9204,-2.172,-2.1706,-2.1597,-2.1543,-2.1557,-2.2469,-2.5157,-2.8331,-2.9345,-3.5172,-4.2298,-4.3612,-4.4008,-4.4008,-4.4008,-4.4008,-4.4008,-4.4008,-4.4008,-4.4008,-4.4008,-4.4008,-4.4008,-4.4008,-4.4008,-4.4008,-4.4008,-4.3955,-4.3821,-4.342,-4.3073,-4.3535,-4.5469,-4.8571,-5.2662,-5.5703,-5.8888,-6.2925,-6.2695,-6.2383,-6.2461,-6.2148,-6.1719,-6.1719,-6.1719,-6.1719,-6.1875,-6.2148,-6.2539,-6.2851,-6.3281,-6.3711,-6.414,-6.4258,-6.4297,-6.4375,-6.4853,-6.8848,-7.3307,-7.6617,-8.0166,-8.4876,-8.7881,-8.8484,-8.8735,-8.8584,-8.8986,-9.004,-9.0994,-9.1848,-9.2601,-9.3104,-9.3849,-9.6649,-9.9168,-10.0876,-10.2585,-10.6404,-11.0191,-11.0478,-11.0358,-11.0358,-11.0358,-11.0178,-10.9879,-10.9341,-10.8742,-10.8263,-10.7785,-10.7066,-10.7545,-10.7904,-10.8084,-11.0209,-11.4792,-11.7502,-11.8844,-12.0806,-12.2151,-12.219,-12.192,-12.2258,-12.2664,-12.3544,-12.4423,-12.4559,-12.4559,-12.4626,-12.4694,-12.4851,-12.5795,-12.6559,-12.8085,-12.9128,-13.102,-2.153,-2.1462,-2.138,-2.138,-2.1448,-2.153,-2.3702,-2.6688,-2.7123,-3.1552,-3.8416,-4.0745,-4.2242,-4.3718,-4.4008,-4.3744,-4.3744,-4.4008,-4.4008,-4.4008,-4.4008,-4.4008,-4.4008,-4.4008,-4.3875,-4.3848,-4.3795,-4.3741,-4.3714,-4.3394,-4.3073,-4.3224,-4.5021,-4.7735,-5.194,-5.4906,-5.7983,-6.2731,-6.2383,-6.2226,-6.2305,-6.2109,-6.1875,-6.1836,-6.1875,-6.1875,-6.1953,-6.2265,-6.2734,-6.3164,-6.3594,-6.3945,-6.4258,-6.4297,-6.4414,-6.4609,-6.5617,-6.821,-7.3831,-7.7724,-8.0587,-8.5612,-8.8785,-8.9438,-8.9639,-8.9538,-9.009,-9.1095,-9.1647,-9.2401,-9.3154,-9.3756,-9.4208,-9.5976,-9.9254,-10.1728,-10.4815,-10.8819,-11.0761,-11.0956,-11.0777,-11.0657,-11.0538,-11.0298,-10.9999,-10.964,-10.9041,-10.8682,-10.8084,-10.7545,-10.8024,-10.8521,-10.8839,-11.1347,-11.572,-11.7695,-11.8633,-12.0613,-12.3138,-12.2935,-12.2867,-12.3544,-12.422,-12.4491,-12.4626,-12.4626,-12.4694,-12.4694,-12.4694,-12.4694,-12.6029,-12.7513,-12.9128,-13.0936,-13.2969,-2.1367,-2.1218,-2.1218,-2.1285,-2.1408,-2.1435,-2.3082,-2.5843,-2.6555,-2.8597,-3.249,-3.5481,-3.9135,-4.1474,-4.319,-4.319,-4.3454,-4.3744,-4.3744,-4.4008,-4.4008,-4.4008,-4.4008,-4.3982,-4.3821,-4.3634,-4.3527,-4.3501,-4.3447,-4.3153,-4.2939,-4.2913,-4.4402,-4.602,-5.0548,-5.3485,-5.6457,-6.0963,-6.2265,-6.207,-6.2187,-6.2344,-6.2109,-6.207,-6.2109,-6.2148,-6.2226,-6.2461,-6.2969,-6.3398,-6.3828,-6.414,-6.4336,-6.4414,-6.4609,-6.4844,-6.6343,-7.012,-7.5075,-7.8179,-8.2423,-8.6863,-8.9122,-9.0141,-9.0291,-9.0743,-9.1296,-9.1898,-9.2451,-9.3003,-9.3706,-9.4309,-9.4811,-9.6047,-9.9355,-10.3128,-10.7321,-11.073,-11.0971,-11.1256,-11.1016,-11.0837,-11.0597,-11.0358,-11.0119,-10.9819,-10.946,-10.9221,-10.8862,-10.8443,-10.8443,-10.9217,-10.9927,-11.3053,-11.6828,-11.8017,-11.8614,-12.1671,-12.3882,-12.3747,-12.3814,-12.4491,-12.4761,-12.4559,-12.4694,-12.4694,-12.4694,-12.4694,-12.4694,-12.4761,-12.7278,-12.9205,-13.0298,-13.2148,-13.4705,-2.1353,-2.1218,-2.1218,-2.1231,-2.1272,-2.1394,-2.1714,-2.2552,-2.2975,-2.4968,-2.7811,-2.9295,-3.1615,-3.5337,-3.8575,-3.9907,-4.0994,-4.237,-4.3744,-4.4008,-4.4008,-4.4008,-4.3955,-4.3875,-4.3768,-4.3554,-4.3287,-4.318,-4.3153,-4.2913,-4.2752,-4.2726,-4.5634,-4.8139,-5.1547,-5.4216,-5.7438,-6.1091,-6.2265,-6.2148,-6.1992,-6.2109,-6.2305,-6.2305,-6.2305,-6.2539,-6.2734,-6.293,-6.3242,-6.3594,-6.3984,-6.4258,-6.4453,-6.4609,-6.4844,-6.5933,-6.7193,-7.1837,-7.6041,-7.9635,-8.4172,-8.8355,-9.0191,-9.0593,-9.0944,-9.1497,-9.2149,-9.2903,-9.3405,-9.3756,-9.4359,-9.4811,-9.551,-9.723,-9.9991,-10.4974,-10.9556,-11.0821,-11.147,-11.1196,-11.0897,-11.0657,-11.0478,-11.0298,-11.0298,-10.9999,-10.97,-10.946,-10.9341,-10.9161,-10.8922,-10.9638,-11.0547,-11.3554,-11.7009,-11.8161,-11.9372,-12.25,-12.4761,-12.4694,-12.4897,-12.537,-12.5506,-12.4897,-12.4761,-12.4761,-12.4761,-12.4897,-12.4897,-12.5502,-12.8708,-13.0927,-13.192,-13.3545,-13.6015]},{"header":{"parameterUnit":"m.s-1","parameterCategory":1,"la1":31.0,"la2":29.5877,"lo1":-88.7671,"lo2":-86.6584,"dy":0.0162,"dx":0.0185,"nx":115,"ny":88,"refTime":"2024-04-10T06:00:00:Z","depth":0,"parameterNumber":3,"parameterNumberName":"V-component_of_WINDS"},"data":[0.0,0.0,0.0,0.0,0.0,0.0,0.0,0.0,0.0,0.0,0.0,0.0,0.0,0.0,0.0,0.0,0.0,0.0,0.0,0.0,0.0,0.0,0.0,0.0,0.0,0.0,0.0,0.0,0.0,0.0,0.0,0.0,0.0,0.0,0.0,0.0,0.0,0.0,0.0,0.0,0.0,0.0,0.0,0.0,0.0,0.0,0.0,0.0,0.0,0.0,0.0,0.0,0.0,0.0,0.0,0.0,0.0,0.0,0.0,0.0,0.0,0.0,0.0,0.0,0.0,0.0,0.0,0.0,0.0,0.0,0.0,0.0,0.0,0.0,0.0,0.0,0.0,0.0,0.0,0.0,0.0,0.0,0.0,0.0,0.0,0.0,0.0,0.0,0.0,0.0,0.0,0.0,0.0,0.0,0.0,0.0,0.0,0.0,0.0,0.0,0.0,0.0,0.0,0.0,0.0,0.0,0.0,0.0,0.0,0.0,0.0,0.0,0.0,0.0,0.0,0.0,0.0,0.0,0.0,0.0,0.0,0.0,0.0,0.0,0.0,0.0,0.0,0.0,0.0,0.0,0.0,0.0,0.0,0.0,0.0,0.0,0.0,0.0,0.0,0.0,0.0,0.0,0.0,0.0,0.0,0.0,0.0,0.0,0.0,0.0,0.0,0.0,0.0,0.0,0.0,0.0,0.0,0.0,0.0,0.0,0.0,0.0,0.0,0.0,0.0,0.0,0.0,0.0,0.0,0.0,0.0,0.0,0.0,0.0,0.0,0.0,0.0,0.0,0.0,0.0,0.0,0.0,0.0,0.0,0.0,0.0,0.0,0.0,0.0,0.0,0.0,0.0,0.0,0.0,0.0,0.0,0.0,0.0,0.0,0.0,0.0,0.0,0.0,0.0,0.0,0.0,0.0,0.0,0.0,0.0,0.0,0.0,0.0,0.0,0.0,0.0,0.0,0.0,0.0,0.0,0.0,0.0,0.0,0.0,0.0,0.0,0.0,0.0,0.0,0.0,0.0,0.0,0.0,0.0,0.0,0.0,0.0,0.0,0.0,0.0,0.0,0.0,0.0,0.0,0.0,0.0,0.0,0.0,0.0,0.0,0.0,0.0,0.0,0.0,0.0,0.0,0.0,0.0,0.0,0.0,0.0,0.0,0.0,0.0,0.0,0.0,0.0,0.0,0.0,0.0,0.0,0.0,0.0,0.0,0.0,0.0,0.0,0.0,0.0,0.0,0.0,0.0,0.0,0.0,0.0,0.0,0.0,0.0,0.0,0.0,0.0,0.0,0.0,0.0,0.0,0.0,0.0,0.0,0.0,0.0,0.0,0.0,0.0,0.0,0.0,0.0,0.0,0.0,0.0,0.0,0.0,0.0,0.0,0.0,0.0,0.0,0.0,0.0,0.0,0.0,0.0,0.0,0.0,0.0,0.0,0.0,0.0,0.0,0.0,0.0,0.0,0.0,0.0,0.0,0.0,0.0,0.0,0.0,0.0,0.0,0.0,0.0,0.0,0.0,0.0,0.0,0.0,0.0,0.0,0.0,0.0,0.0,0.0,0.0,0.0,0.0,0.0,0.0,0.0,0.0,0.0,0.0,0.0,0.0,0.0,0.0,0.0,0.0,0.0,0.0,0.0,0.0,0.0,0.0,0.0,0.0,0.0,0.0,0.0,0.0,0.0,0.0,0.0,0.0,0.0,0.0,0.0,0.0,0.0,0.0,0.0,0.0,0.0,0.0,0.0,0.0,0.0,0.0,0.0,0.0,0.0,0.0,0.0,0.0,0.0,0.0,0.0,0.0,0.0,0.0,0.0,0.0,0.0,0.0,0.0,0.0,0.0,0.0,0.0,0.0,0.0,0.0,0.0,0.0,0.0,0.0,0.0,0.0,0.0,0.0,0.0,0.0,0.0,0.0,0.0,0.0,0.0,0.0,0.0,0.0,0.0,0.0,0.0,0.0,0.0,0.0,0.0,0.0,0.0,0.0,0.0,0.0,0.0,0.0,0.0,0.0,0.0,0.0,0.0,0.0,0.0,0.0,0.0,0.0,0.0,0.0,0.0,0.0,0.0,0.0,0.0,0.0,0.0,0.0,0.0,0.0,0.0,0.0,0.0,0.0,0.0,0.0,0.0,0.0,0.0,0.0,0.0,0.0,0.0,0.0,0.0,0.0,0.0,0.0,0.0,0.0,0.0,0.0,0.0,0.0,0.0,0.0,0.0,0.0,0.0,0.0,0.0,0.0,0.0,0.0,0.0,0.0,0.0,0.0,0.0,0.0,0.0,0.0,0.0,0.0,0.0,0.0,0.0,0.0,0.0,0.0,0.0,0.0,0.0,0.0,0.0,0.0,0.0,0.0,0.0,0.0,0.0,0.0,0.0,0.0,0.0,0.0,0.0,0.0,0.0,0.0,0.0,0.0,0.0,0.0,0.0,0.0,0.0,0.0,0.0,0.0,0.0,0.0,0.0,0.0,0.0,0.0,0.0,0.0,0.0,0.0,0.0,0.0,0.0,0.0,0.0,0.0,0.0,0.0,0.0,0.0,0.0,0.0,0.0,0.0,0.0,0.0,0.0,0.0,0.0,0.0,0.0,0.0,0.0,0.0,0.0,0.0,0.0,0.0,0.0,0.0,0.0,0.0,0.0,0.0,0.0,0.0,0.0,0.0,0.0,0.0,0.0,0.0,0.0,0.0,0.0,0.0,0.0,0.0,0.0,0.0,0.0,0.0,0.0,0.0,0.0,0.0,0.0,0.0,0.0,0.0,0.0,0.0,0.0,0.0,0.0,0.0,0.0,0.0,0.0,0.0,0.0,0.0,0.0,0.0,0.0,0.0,0.0,0.0,0.0,0.0,0.0,0.0,0.0,0.0,0.0,0.0,0.0,0.0,0.0,0.0,0.0,0.0,0.0,0.0,0.0,0.0,0.0,0.0,0.0,0.0,0.0,0.0,0.0,0.0,0.0,0.0,0.0,0.0,0.0,0.0,0.0,0.0,0.0,0.0,0.0,0.0,0.0,0.0,0.0,0.0,0.0,0.0,0.0,0.0,0.0,0.0,0.0,0.0,0.0,0.0,0.0,0.0,0.0,0.0,0.0,0.0,0.0,0.0,0.0,0.0,0.0,0.0,0.0,0.0,0.0,0.0,0.0,0.0,0.0,0.0,0.0,0.0,0.0,0.0,0.0,0.0,0.0,0.0,0.0,0.0,0.0,0.0,0.0,0.0,0.0,0.0,0.0,0.0,0.0,0.0,0.0,0.0,0.0,0.0,0.0,0.0,0.0,0.0,0.0,0.0,0.0,0.0,0.0,0.0,0.0,0.0,0.0,0.0,0.0,0.0,0.0,0.0,0.0,0.0,0.0,0.0,0.0,0.0,0.0,0.0,0.0,0.0,0.0,0.0,0.0,0.0,0.0,0.0,0.0,0.0,0.0,0.0,0.0,0.0,0.0,0.0,0.0,0.0,0.0,0.0,0.0,0.0,0.0,0.0,0.0,0.0,0.0,0.0,0.0,0.0,0.0,0.0,0.0,0.0,0.0,0.0,0.0,0.0,0.0,0.0,0.0,0.0,0.0,0.0,0.0,0.0,0.0,0.0,0.0,0.0,0.0,0.0,0.0,0.0,0.0,0.0,0.0,0.0,0.0,0.0,0.0,0.0,0.0,0.0,0.0,0.0,0.0,0.0,0.0,0.0,0.0,0.0,0.0,0.0,0.0,0.0,0.0,0.0,0.0,0.0,0.0,0.0,0.0,0.0,0.0,0.0,0.0,0.0,0.0,0.0,0.0,0.0,0.0,0.0,0.0,0.0,0.0,0.0,0.0,0.0,0.0,0.0,0.0,0.0,0.0,0.0,0.0,0.0,0.0,0.0,0.0,0.0,0.0,0.0,0.0,0.0,0.0,0.0,0.0,0.0,0.0,0.0,0.0,0.0,0.0,0.0,0.0,0.0,0.0,0.0,0.0,0.0,0.0,0.0,0.0,0.0,0.0,0.0,0.0,0.0,0.0,0.0,0.0,0.0,0.0,0.0,0.0,0.0,0.0,0.0,0.0,0.0,0.0,0.0,0.0,0.0,0.0,0.0,0.0,0.0,0.0,0.0,0.0,0.0,0.0,0.0,0.0,0.0,0.0,0.0,0.0,0.0,0.0,0.0,0.0,0.0,0.0,0.0,0.0,0.0,0.0,0.0,0.0,0.0,0.0,0.0,0.0,0.0,0.0,0.0,0.0,0.0,0.0,0.0,0.0,0.0,0.0,0.0,0.0,0.0,-5.8755,0.0,0.0,0.0,0.0,0.0,0.0,0.0,0.0,0.0,0.0,0.0,0.0,0.0,0.0,0.0,0.0,0.0,0.0,0.0,0.0,0.0,0.0,0.0,0.0,0.0,0.0,0.0,0.0,0.0,0.0,0.0,0.0,0.0,0.0,0.0,0.0,0.0,0.0,0.0,0.0,0.0,0.0,0.0,0.0,0.0,0.0,0.0,0.0,0.0,0.0,0.0,0.0,0.0,0.0,0.0,0.0,0.0,0.0,0.0,0.0,0.0,0.0,0.0,0.0,0.0,0.0,0.0,0.0,0.0,0.0,0.0,0.0,0.0,0.0,0.0,0.0,0.0,0.0,0.0,0.0,0.0,0.0,0.0,0.0,0.0,0.0,0.0,0.0,0.0,0.0,0.0,0.0,0.0,0.0,0.0,0.0,0.0,0.0,0.0,0.0,0.0,0.0,0.0,0.0,0.0,0.0,0.0,0.0,0.0,0.0,-5.7248,-5.9357,-5.5892,-5.5691,-5.9307,0.0,0.0,0.0,0.0,0.0,0.0,0.0,0.0,0.0,0.0,0.0,0.0,0.0,0.0,0.0,0.0,0.0,0.0,0.0,0.0,0.0,0.0,0.0,0.0,0.0,0.0,0.0,0.0,0.0,0.0,0.0,0.0,0.0,0.0,0.0,0.0,0.0,0.0,0.0,0.0,0.0,0.0,0.0,0.0,0.0,0.0,0.0,0.0,0.0,0.0,0.0,0.0,0.0,0.0,0.0,0.0,0.0,0.0,0.0,0.0,0.0,0.0,0.0,0.0,0.0,0.0,0.0,0.0,0.0,0.0,0.0,0.0,0.0,0.0,0.0,0.0,0.0,0.0,0.0,0.0,0.0,0.0,0.0,0.0,0.0,0.0,0.0,0.0,0.0,0.0,0.0,0.0,0.0,0.0,0.0,0.0,0.0,0.0,0.0,0.0,0.0,0.0,0.0,0.0,0.0,0.0,0.0,0.0,0.0,0.0,0.0,0.0,-5.6081,-5.5541,-5.9257,0.0,0.0,0.0,0.0,0.0,0.0,0.0,0.0,0.0,0.0,0.0,0.0,0.0,0.0,0.0,0.0,0.0,0.0,0.0,0.0,0.0,0.0,0.0,0.0,0.0,0.0,0.0,0.0,0.0,0.0,0.0,0.0,0.0,0.0,0.0,0.0,0.0,0.0,0.0,0.0,0.0,0.0,0.0,0.0,0.0,0.0,0.0,0.0,0.0,0.0,0.0,0.0,0.0,0.0,0.0,0.0,0.0,0.0,0.0,0.0,0.0,0.0,0.0,0.0,0.0,0.0,0.0,0.0,0.0,0.0,0.0,0.0,0.0,0.0,0.0,0.0,0.0,0.0,0.0,0.0,0.0,0.0,0.0,0.0,0.0,0.0,0.0,0.0,0.0,0.0,0.0,0.0,0.0,0.0,0.0,0.0,0.0,0.0,0.0,0.0,0.0,0.0,0.0,0.0,0.0,0.0,0.0,0.0,0.0,0.0,-6.0176,-6.2089,-5.987,0.0,-5.9458,0.0,0.0,0.0,0.0,0.0,0.0,0.0,0.0,0.0,0.0,0.0,0.0,0.0,0.0,0.0,0.0,0.0,0.0,0.0,0.0,0.0,0.0,0.0,0.0,0.0,0.0,0.0,0.0,0.0,0.0,0.0,0.0,0.0,0.0,0.0,0.0,0.0,0.0,0.0,0.0,0.0,0.0,0.0,0.0,0.0,0.0,0.0,0.0,0.0,0.0,0.0,0.0,0.0,0.0,0.0,0.0,0.0,0.0,0.0,0.0,0.0,0.0,0.0,0.0,0.0,0.0,0.0,0.0,0.0,0.0,0.0,0.0,0.0,0.0,0.0,0.0,0.0,0.0,0.0,0.0,0.0,0.0,0.0,0.0,0.0,0.0,0.0,0.0,0.0,0.0,0.0,0.0,0.0,0.0,0.0,0.0,0.0,0.0,0.0,0.0,0.0,0.0,0.0,0.0,0.0,0.0,0.0,0.0,0.0,0.0,-6.1542,-6.2386,-6.1327,-6.0327,0.0,0.0,0.0,0.0,0.0,0.0,0.0,0.0,0.0,0.0,0.0,0.0,0.0,0.0,0.0,0.0,0.0,0.0,0.0,0.0,0.0,0.0,0.0,0.0,0.0,0.0,0.0,0.0,0.0,0.0,0.0,0.0,0.0,0.0,0.0,0.0,0.0,0.0,0.0,0.0,0.0,0.0,0.0,0.0,0.0,0.0,0.0,0.0,0.0,0.0,0.0,0.0,0.0,0.0,0.0,0.0,0.0,0.0,0.0,0.0,0.0,0.0,0.0,0.0,0.0,0.0,0.0,0.0,0.0,0.0,0.0,0.0,0.0,0.0,0.0,0.0,0.0,0.0,0.0,0.0,0.0,0.0,0.0,0.0,0.0,0.0,0.0,0.0,0.0,0.0,0.0,0.0,0.0,0.0,0.0,0.0,0.0,0.0,0.0,0.0,0.0,0.0,0.0,0.0,0.0,0.0,0.0,0.0,0.0,0.0,-6.2418,-6.207,-6.1911,-6.2072,-6.1635,-6.0625,0.0,0.0,0.0,0.0,0.0,0.0,0.0,0.0,0.0,0.0,0.0,0.0,0.0,0.0,0.0,0.0,0.0,0.0,0.0,0.0,0.0,0.0,0.0,0.0,0.0,0.0,0.0,0.0,0.0,0.0,0.0,0.0,0.0,0.0,0.0,0.0,0.0,0.0,0.0,0.0,0.0,0.0,0.0,0.0,0.0,0.0,0.0,0.0,0.0,0.0,0.0,0.0,0.0,0.0,0.0,0.0,0.0,0.0,0.0,0.0,0.0,0.0,0.0,0.0,0.0,0.0,0.0,0.0,0.0,0.0,0.0,0.0,0.0,0.0,0.0,0.0,0.0,0.0,0.0,0.0,0.0,0.0,0.0,0.0,0.0,0.0,0.0,0.0,0.0,0.0,0.0,0.0,0.0,0.0,0.0,0.0,0.0,0.0,0.0,0.0,0.0,0.0,0.0,0.0,0.0,0.0,0.0,0.0,-6.4413,-6.2507,-6.1278,-6.0856,-6.2356,-6.3196,0.0,0.0,0.0,0.0,0.0,0.0,0.0,0.0,0.0,0.0,0.0,0.0,0.0,0.0,0.0,0.0,0.0,0.0,0.0,0.0,0.0,0.0,0.0,0.0,0.0,0.0,0.0,0.0,0.0,0.0,0.0,0.0,0.0,0.0,0.0,0.0,0.0,0.0,0.0,0.0,0.0,0.0,0.0,0.0,0.0,0.0,0.0,0.0,0.0,0.0,0.0,0.0,0.0,0.0,0.0,0.0,0.0,0.0,0.0,0.0,0.0,0.0,0.0,0.0,0.0,0.0,0.0,0.0,0.0,0.0,0.0,0.0,0.0,0.0,0.0,0.0,0.0,0.0,0.0,0.0,0.0,0.0,0.0,0.0,0.0,0.0,0.0,0.0,0.0,0.0,0.0,0.0,0.0,0.0,0.0,0.0,0.0,0.0,0.0,0.0,0.0,0.0,0.0,0.0,0.0,0.0,0.0,0.0,0.0,-6.6919,-6.6033,-6.4374,-6.19,-6.4527,-6.544,0.0,0.0,0.0,0.0,0.0,0.0,0.0,0.0,0.0,0.0,0.0,0.0,0.0,0.0,0.0,0.0,0.0,0.0,0.0,0.0,0.0,0.0,0.0,0.0,0.0,0.0,0.0,0.0,0.0,0.0,0.0,0.0,0.0,0.0,0.0,0.0,0.0,0.0,0.0,0.0,0.0,0.0,0.0,0.0,0.0,0.0,0.0,0.0,0.0,0.0,0.0,0.0,0.0,0.0,0.0,0.0,0.0,0.0,0.0,0.0,0.0,0.0,0.0,0.0,0.0,0.0,0.0,0.0,0.0,0.0,0.0,0.0,0.0,0.0,0.0,0.0,0.0,0.0,0.0,0.0,0.0,0.0,0.0,0.0,0.0,0.0,0.0,0.0,0.0,0.0,0.0,0.0,0.0,0.0,0.0,0.0,0.0,0.0,0.0,0.0,0.0,0.0,0.0,0.0,0.0,0.0,0.0,0.0,0.0,-6.7295,0.0,-6.4979,-6.3183,-6.5205,-6.6318,0.0,0.0,0.0,0.0,0.0,0.0,0.0,0.0,0.0,0.0,0.0,0.0,0.0,0.0,0.0,0.0,0.0,0.0,0.0,0.0,0.0,0.0,0.0,0.0,0.0,0.0,0.0,0.0,0.0,0.0,0.0,0.0,0.0,0.0,0.0,0.0,0.0,0.0,0.0,0.0,0.0,0.0,0.0,0.0,0.0,0.0,0.0,0.0,0.0,0.0,0.0,0.0,0.0,0.0,0.0,0.0,0.0,0.0,0.0,0.0,0.0,0.0,0.0,0.0,0.0,0.0,0.0,0.0,0.0,0.0,0.0,0.0,0.0,0.0,0.0,0.0,0.0,0.0,0.0,0.0,0.0,0.0,0.0,0.0,0.0,0.0,0.0,0.0,0.0,0.0,0.0,0.0,0.0,0.0,0.0,0.0,0.0,0.0,0.0,0.0,0.0,0.0,0.0,0.0,0.0,0.0,0.0,0.0,-6.9068,-6.5448,-6.2956,-6.2784,-6.4339,-6.4569,-6.5991,0.0,0.0,0.0,0.0,0.0,0.0,0.0,0.0,0.0,0.0,0.0,0.0,0.0,0.0,0.0,0.0,0.0,0.0,0.0,0.0,0.0,0.0,0.0,0.0,0.0,0.0,0.0,0.0,0.0,0.0,0.0,0.0,0.0,0.0,0.0,0.0,0.0,0.0,0.0,0.0,0.0,0.0,0.0,0.0,0.0,0.0,0.0,0.0,0.0,0.0,0.0,0.0,0.0,0.0,0.0,0.0,0.0,0.0,0.0,0.0,0.0,0.0,0.0,0.0,0.0,0.0,0.0,0.0,0.0,0.0,0.0,0.0,0.0,0.0,0.0,0.0,0.0,0.0,0.0,0.0,0.0,0.0,0.0,0.0,0.0,0.0,0.0,0.0,0.0,0.0,0.0,0.0,0.0,0.0,0.0,0.0,0.0,0.0,0.0,0.0,0.0,0.0,0.0,0.0,0.0,0.0,0.0,0.0,0.0,-6.7238,-6.5953,-6.6598,-6.9315,-6.8239,-6.9268,0.0,0.0,0.0,0.0,0.0,0.0,0.0,0.0,0.0,0.0,0.0,0.0,0.0,0.0,0.0,0.0,0.0,0.0,0.0,0.0,0.0,0.0,0.0,0.0,0.0,0.0,0.0,0.0,0.0,0.0,0.0,0.0,0.0,0.0,0.0,0.0,0.0,0.0,0.0,0.0,0.0,0.0,0.0,0.0,0.0,0.0,0.0,0.0,0.0,0.0,0.0,0.0,0.0,0.0,0.0,0.0,0.0,0.0,0.0,0.0,0.0,0.0,0.0,0.0,0.0,0.0,0.0,0.0,0.0,0.0,0.0,0.0,0.0,0.0,0.0,0.0,0.0,0.0,0.0,0.0,0.0,0.0,0.0,0.0,0.0,0.0,0.0,0.0,0.0,0.0,0.0,0.0,0.0,0.0,0.0,0.0,0.0,0.0,0.0,0.0,0.0,0.0,0.0,0.0,0.0,0.0,0.0,0.0,0.0,-6.8986,-6.7182,-6.7783,-7.08,-7.0159,-7.0739,-7.2894,0.0,0.0,0.0,0.0,0.0,0.0,0.0,0.0,0.0,0.0,0.0,0.0,0.0,0.0,0.0,0.0,0.0,0.0,0.0,0.0,0.0,0.0,0.0,0.0,0.0,0.0,0.0,0.0,0.0,0.0,0.0,0.0,0.0,0.0,0.0,0.0,0.0,0.0,0.0,0.0,0.0,0.0,0.0,0.0,0.0,0.0,0.0,0.0,0.0,0.0,0.0,0.0,0.0,0.0,0.0,0.0,0.0,0.0,0.0,0.0,0.0,0.0,0.0,0.0,0.0,0.0,0.0,0.0,0.0,0.0,0.0,0.0,0.0,0.0,0.0,0.0,0.0,0.0,0.0,0.0,0.0,0.0,0.0,0.0,0.0,0.0,0.0,0.0,0.0,0.0,0.0,0.0,0.0,0.0,0.0,0.0,0.0,0.0,0.0,0.0,0.0,0.0,0.0,0.0,0.0,0.0,0.0,0.0,-7.1038,-6.7567,-6.7148,-6.9782,-7.062,-7.0799,0.0,0.0,0.0,0.0,0.0,0.0,0.0,0.0,0.0,0.0,0.0,0.0,0.0,0.0,0.0,0.0,0.0,0.0,0.0,0.0,0.0,0.0,0.0,0.0,0.0,0.0,0.0,0.0,0.0,0.0,0.0,0.0,0.0,0.0,0.0,0.0,0.0,0.0,0.0,0.0,0.0,0.0,0.0,0.0,0.0,0.0,0.0,0.0,0.0,0.0,0.0,0.0,0.0,0.0,0.0,0.0,0.0,0.0,0.0,0.0,0.0,0.0,0.0,0.0,0.0,0.0,0.0,0.0,0.0,0.0,0.0,0.0,0.0,0.0,0.0,0.0,0.0,0.0,0.0,0.0,0.0,0.0,0.0,0.0,0.0,0.0,0.0,0.0,0.0,0.0,0.0,0.0,0.0,0.0,0.0,0.0,0.0,0.0,0.0,0.0,0.0,0.0,0.0,0.0,0.0,0.0,0.0,0.0,0.0,-7.2355,-7.3732,-7.5527,-7.7562,-7.427,-7.3253,0.0,0.0,0.0,0.0,0.0,0.0,0.0,0.0,0.0,0.0,0.0,0.0,0.0,0.0,0.0,0.0,0.0,0.0,0.0,0.0,0.0,0.0,0.0,0.0,0.0,0.0,0.0,0.0,0.0,0.0,0.0,0.0,0.0,0.0,0.0,0.0,0.0,0.0,0.0,0.0,0.0,0.0,0.0,0.0,0.0,0.0,0.0,0.0,0.0,0.0,0.0,0.0,0.0,0.0,0.0,0.0,0.0,0.0,0.0,0.0,0.0,0.0,0.0,0.0,0.0,0.0,0.0,0.0,0.0,0.0,0.0,0.0,0.0,0.0,0.0,0.0,0.0,0.0,0.0,0.0,0.0,0.0,0.0,0.0,0.0,0.0,0.0,0.0,0.0,0.0,0.0,0.0,0.0,0.0,0.0,0.0,0.0,0.0,0.0,0.0,0.0,0.0,0.0,0.0,0.0,0.0,0.0,0.0,-7.3492,-7.3791,-7.8041,-8.1392,-8.3666,-7.9956,-7.7143,0.0,0.0,0.0,0.0,0.0,0.0,0.0,0.0,0.0,0.0,0.0,0.0,0.0,0.0,0.0,0.0,0.0,0.0,0.0,0.0,0.0,0.0,0.0,0.0,0.0,0.0,0.0,0.0,0.0,0.0,0.0,0.0,0.0,0.0,0.0,0.0,0.0,0.0,0.0,0.0,0.0,0.0,0.0,0.0,0.0,0.0,0.0,0.0,0.0,0.0,0.0,0.0,0.0,0.0,0.0,0.0,0.0,0.0,0.0,0.0,0.0,0.0,0.0,0.0,0.0,0.0,0.0,0.0,0.0,0.0,0.0,0.0,0.0,0.0,0.0,0.0,0.0,0.0,0.0,0.0,0.0,0.0,0.0,0.0,0.0,0.0,0.0,0.0,0.0,0.0,0.0,0.0,0.0,0.0,0.0,0.0,0.0,0.0,0.0,0.0,0.0,0.0,0.0,0.0,0.0,0.0,0.0,0.0,-7.6006,-7.5168,-8.0973,-8.5282,-8.7676,-8.5641,-8.1332,0.0,0.0,0.0,0.0,0.0,0.0,0.0,0.0,0.0,0.0,0.0,0.0,0.0,0.0,0.0,0.0,0.0,0.0,0.0,0.0,0.0,0.0,0.0,0.0,0.0,0.0,0.0,0.0,0.0,0.0,0.0,0.0,0.0,0.0,0.0,0.0,0.0,0.0,0.0,0.0,0.0,0.0,0.0,0.0,0.0,0.0,0.0,0.0,0.0,0.0,0.0,0.0,0.0,0.0,0.0,0.0,0.0,0.0,0.0,0.0,0.0,0.0,0.0,0.0,0.0,0.0,0.0,0.0,0.0,0.0,0.0,0.0,0.0,0.0,0.0,0.0,0.0,0.0,0.0,0.0,0.0,0.0,0.0,0.0,0.0,0.0,0.0,0.0,0.0,0.0,0.0,0.0,0.0,0.0,0.0,0.0,0.0,0.0,0.0,0.0,0.0,0.0,0.0,0.0,0.0,0.0,0.0,0.0,-7.4629,-7.6485,-8.2709,-8.7077,-8.9172,-8.4803,-8.1212,0.0,0.0,0.0,0.0,0.0,0.0,0.0,0.0,0.0,0.0,0.0,0.0,0.0,0.0,0.0,0.0,0.0,0.0,0.0,0.0,0.0,0.0,0.0,0.0,0.0,0.0,0.0,0.0,0.0,0.0,0.0,0.0,0.0,0.0,0.0,0.0,0.0,0.0,0.0,0.0,0.0,0.0,0.0,0.0,0.0,0.0,0.0,0.0,-5.8873,0.0,0.0,0.0,0.0,0.0,0.0,0.0,0.0,0.0,0.0,0.0,0.0,0.0,0.0,0.0,0.0,0.0,0.0,0.0,0.0,0.0,0.0,0.0,0.0,0.0,0.0,0.0,0.0,0.0,0.0,0.0,0.0,0.0,0.0,0.0,0.0,0.0,0.0,0.0,0.0,0.0,0.0,0.0,0.0,0.0,0.0,0.0,0.0,0.0,0.0,0.0,0.0,0.0,0.0,0.0,0.0,0.0,0.0,0.0,-7.5707,-7.8699,-8.4265,-8.8274,-9.0309,-8.6659,-8.3367,0.0,0.0,0.0,0.0,0.0,0.0,0.0,0.0,0.0,0.0,0.0,0.0,0.0,0.0,0.0,0.0,0.0,0.0,0.0,0.0,0.0,0.0,0.0,0.0,0.0,0.0,0.0,0.0,0.0,0.0,0.0,0.0,0.0,0.0,0.0,0.0,0.0,0.0,0.0,0.0,0.0,0.0,0.0,0.0,0.0,0.0,0.0,0.0,0.0,0.0,0.0,0.0,0.0,0.0,0.0,0.0,0.0,0.0,0.0,0.0,0.0,0.0,0.0,0.0,0.0,0.0,0.0,0.0,0.0,0.0,0.0,0.0,0.0,0.0,0.0,0.0,0.0,0.0,0.0,0.0,0.0,0.0,0.0,0.0,0.0,0.0,0.0,0.0,0.0,0.0,0.0,0.0,0.0,0.0,0.0,0.0,0.0,0.0,0.0,0.0,0.0,0.0,0.0,0.0,0.0,0.0,0.0,-7.451,-7.7442,-8.1212,-8.5462,-8.8933,-9.1506,-8.9172,-8.6337,-8.3101,0.0,0.0,0.0,0.0,0.0,0.0,0.0,0.0,0.0,0.0,0.0,0.0,0.0,0.0,0.0,0.0,0.0,0.0,0.0,0.0,0.0,0.0,0.0,0.0,0.0,0.0,0.0,0.0,0.0,0.0,0.0,0.0,0.0,0.0,0.0,0.0,0.0,0.0,-6.0239,-5.8052,0.0,0.0,0.0,0.0,0.0,0.0,0.0,0.0,-6.1211,0.0,0.0,0.0,0.0,0.0,0.0,0.0,0.0,0.0,0.0,0.0,0.0,0.0,0.0,0.0,0.0,0.0,0.0,0.0,0.0,0.0,0.0,0.0,0.0,0.0,0.0,0.0,0.0,0.0,0.0,0.0,0.0,0.0,0.0,0.0,0.0,0.0,0.0,0.0,0.0,0.0,0.0,0.0,0.0,0.0,0.0,0.0,0.0,0.0,0.0,0.0,0.0,0.0,0.0,0.0,0.0,-7.433,-7.427,-7.7143,-8.3128,-8.618,-8.8993,-9.1446,-8.9591,-8.8413,-8.7947,0.0,0.0,0.0,0.0,0.0,0.0,0.0,0.0,0.0,0.0,0.0,0.0,0.0,0.0,0.0,0.0,0.0,0.0,0.0,0.0,0.0,0.0,0.0,0.0,0.0,0.0,0.0,0.0,0.0,0.0,0.0,0.0,0.0,0.0,0.0,0.0,0.0,0.0,0.0,-5.5913,-5.6562,0.0,0.0,0.0,0.0,0.0,0.0,0.0,0.0,-6.1135,0.0,0.0,0.0,0.0,0.0,0.0,0.0,0.0,0.0,0.0,0.0,0.0,0.0,0.0,0.0,0.0,0.0,0.0,0.0,0.0,0.0,0.0,0.0,0.0,0.0,0.0,0.0,0.0,0.0,0.0,0.0,0.0,0.0,0.0,0.0,0.0,0.0,0.0,0.0,0.0,0.0,0.0,0.0,0.0,0.0,0.0,0.0,0.0,0.0,0.0,0.0,0.0,0.0,0.0,0.0,-7.5108,-7.5407,-7.81,-8.3547,-8.7638,-9.0759,-9.259,-9.0149,-8.9604,0.0,0.0,0.0,0.0,0.0,0.0,0.0,0.0,0.0,0.0,0.0,0.0,0.0,0.0,0.0,0.0,0.0,0.0,0.0,0.0,0.0,0.0,0.0,0.0,0.0,0.0,0.0,0.0,0.0,0.0,0.0,0.0,0.0,0.0,0.0,0.0,0.0,0.0,0.0,0.0,-5.5937,-5.6445,-5.6015,0.0,0.0,0.0,0.0,0.0,0.0,-6.168,-6.1562,0.0,0.0,0.0,0.0,0.0,0.0,0.0,0.0,0.0,0.0,0.0,0.0,0.0,0.0,0.0,0.0,0.0,0.0,0.0,0.0,0.0,0.0,0.0,0.0,0.0,0.0,0.0,0.0,0.0,0.0,0.0,0.0,0.0,0.0,0.0,0.0,0.0,0.0,0.0,0.0,0.0,0.0,0.0,0.0,0.0,0.0,0.0,0.0,0.0,0.0,0.0,0.0,0.0,0.0,0.0,-7.5946,-7.7204,-7.9996,-8.4517,-8.9694,-9.2779,-9.4181,-9.1556,-9.1166,0.0,0.0,0.0,0.0,0.0,0.0,0.0,0.0,0.0,0.0,0.0,0.0,0.0,0.0,0.0,0.0,0.0,0.0,0.0,0.0,0.0,0.0,0.0,0.0,0.0,0.0,0.0,0.0,0.0,0.0,0.0,0.0,0.0,0.0,0.0,0.0,0.0,0.0,0.0,0.0,0.0,-5.6562,-5.6484,-5.7812,0.0,0.0,0.0,0.0,-6.0742,-6.125,0.0,0.0,0.0,0.0,0.0,0.0,0.0,0.0,0.0,0.0,0.0,0.0,0.0,0.0,0.0,0.0,0.0,0.0,0.0,0.0,0.0,0.0,0.0,0.0,0.0,0.0,0.0,0.0,0.0,0.0,0.0,0.0,0.0,0.0,0.0,0.0,0.0,0.0,0.0,0.0,0.0,0.0,0.0,0.0,0.0,0.0,0.0,0.0,0.0,0.0,0.0,0.0,0.0,0.0,0.0,0.0,-7.6604,-7.9621,-8.3348,-8.7779,-9.2006,-9.4871,-9.6062,-9.5106,-9.4233,0.0,0.0,0.0,0.0,0.0,0.0,0.0,0.0,0.0,0.0,0.0,0.0,0.0,0.0,0.0,0.0,0.0,0.0,0.0,0.0,0.0,0.0,0.0,0.0,0.0,0.0,0.0,0.0,0.0,0.0,0.0,0.0,0.0,0.0,0.0,0.0,0.0,0.0,0.0,0.0,0.0,-5.6992,-5.8086,-5.9062,-5.9844,0.0,0.0,-6.0703,-5.957,-6.0703,0.0,0.0,0.0,0.0,0.0,0.0,0.0,0.0,0.0,0.0,0.0,0.0,0.0,0.0,0.0,0.0,0.0,0.0,0.0,0.0,0.0,0.0,0.0,0.0,0.0,0.0,0.0,0.0,0.0,0.0,0.0,0.0,0.0,0.0,0.0,0.0,0.0,0.0,0.0,0.0,0.0,0.0,0.0,0.0,0.0,0.0,0.0,0.0,0.0,0.0,0.0,0.0,0.0,0.0,0.0,-7.3304,-7.8199,-8.0563,-8.4182,-8.9497,-9.3884,-9.6678,-9.7514,-9.5115,-9.4678,0.0,0.0,0.0,0.0,0.0,0.0,0.0,0.0,0.0,0.0,0.0,0.0,0.0,0.0,0.0,0.0,0.0,0.0,0.0,0.0,0.0,0.0,0.0,0.0,0.0,0.0,0.0,0.0,0.0,0.0,0.0,0.0,0.0,0.0,0.0,0.0,0.0,0.0,0.0,0.0,0.0,0.0,-5.7756,-5.9414,0.0,0.0,0.0,-6.1719,-6.1406,0.0,0.0,0.0,0.0,0.0,0.0,0.0,0.0,0.0,0.0,0.0,0.0,0.0,0.0,0.0,0.0,0.0,0.0,0.0,0.0,0.0,0.0,0.0,0.0,0.0,0.0,0.0,0.0,0.0,0.0,0.0,0.0,0.0,0.0,0.0,0.0,0.0,0.0,0.0,0.0,0.0,0.0,0.0,0.0,0.0,0.0,0.0,0.0,0.0,0.0,0.0,0.0,0.0,0.0,0.0,0.0,0.0,-7.9344,-8.1704,-8.5482,-9.0854,-9.567,-9.8321,-9.8786,-9.5793,0.0,0.0,0.0,0.0,0.0,0.0,0.0,0.0,0.0,0.0,0.0,0.0,0.0,0.0,0.0,0.0,0.0,0.0,0.0,0.0,0.0,0.0,0.0,0.0,0.0,0.0,0.0,-7.6258,0.0,0.0,0.0,0.0,0.0,0.0,0.0,0.0,0.0,0.0,0.0,0.0,0.0,0.0,-6.2047,-5.7776,-5.9531,-6.0742,0.0,0.0,-6.2305,-6.2109,-6.1797,-6.1484,0.0,0.0,0.0,0.0,0.0,0.0,0.0,0.0,0.0,0.0,0.0,0.0,0.0,0.0,0.0,0.0,0.0,0.0,0.0,0.0,0.0,0.0,0.0,0.0,0.0,0.0,0.0,0.0,0.0,0.0,0.0,0.0,0.0,0.0,0.0,0.0,0.0,0.0,0.0,0.0,0.0,0.0,0.0,0.0,0.0,0.0,0.0,0.0,0.0,0.0,0.0,0.0,0.0,0.0,-7.5306,-7.9476,-8.4075,-8.8498,-9.2775,-9.757,-10.0075,-10.0143,-9.9197,-9.769,0.0,0.0,0.0,0.0,0.0,0.0,0.0,0.0,0.0,0.0,0.0,0.0,0.0,0.0,0.0,0.0,0.0,0.0,0.0,0.0,0.0,0.0,0.0,0.0,0.0,0.0,0.0,0.0,0.0,0.0,0.0,0.0,0.0,0.0,0.0,0.0,0.0,0.0,0.0,0.0,0.0,-5.9717,-5.8515,-5.9609,-6.0195,0.0,-6.0976,-6.1719,-5.9765,-6.2383,-6.3945,-6.1992,0.0,0.0,0.0,0.0,0.0,0.0,0.0,0.0,0.0,0.0,0.0,0.0,0.0,0.0,0.0,0.0,0.0,0.0,0.0,0.0,0.0,0.0,0.0,0.0,0.0,0.0,0.0,0.0,0.0,0.0,0.0,0.0,0.0,0.0,0.0,0.0,0.0,0.0,0.0,0.0,0.0,0.0,0.0,0.0,0.0,0.0,0.0,0.0,0.0,0.0,0.0,0.0,0.0,-7.8091,-8.3175,-8.6085,-9.0084,-9.535,-9.9138,-10.1149,-10.1622,-10.0405,-9.8936,0.0,0.0,0.0,0.0,0.0,0.0,0.0,0.0,0.0,0.0,0.0,0.0,0.0,0.0,0.0,0.0,0.0,0.0,0.0,0.0,0.0,0.0,0.0,0.0,0.0,0.0,0.0,0.0,-6.91,-6.925,-7.0455,0.0,0.0,0.0,0.0,0.0,0.0,0.0,0.0,0.0,0.0,-6.7492,-6.4596,-6.6131,0.0,0.0,-6.7113,-6.8308,-6.6814,-6.7711,-6.7579,-6.4954,-6.4275,0.0,0.0,0.0,0.0,0.0,0.0,0.0,0.0,0.0,0.0,0.0,0.0,0.0,0.0,0.0,0.0,0.0,0.0,0.0,0.0,0.0,0.0,0.0,0.0,0.0,0.0,0.0,0.0,0.0,0.0,0.0,0.0,0.0,0.0,0.0,0.0,0.0,0.0,0.0,0.0,0.0,0.0,0.0,0.0,0.0,0.0,0.0,0.0,0.0,0.0,0.0,0.0,-8.0457,-8.6026,-8.7958,-9.1543,-9.6819,-9.9863,-10.1758,-10.2434,-10.0811,-9.9322,0.0,0.0,0.0,0.0,0.0,0.0,0.0,0.0,0.0,0.0,0.0,0.0,0.0,0.0,0.0,0.0,0.0,0.0,0.0,0.0,0.0,0.0,0.0,0.0,0.0,0.0,0.0,0.0,-6.91,-6.915,-7.0154,0.0,0.0,0.0,0.0,0.0,0.0,0.0,0.0,0.0,0.0,-7.0634,-6.756,-6.9456,-7.0401,-6.815,-6.9559,-7.0563,-6.9133,-6.9107,-6.8715,-6.6607,0.0,0.0,0.0,0.0,0.0,0.0,0.0,0.0,0.0,0.0,0.0,0.0,0.0,0.0,0.0,0.0,0.0,0.0,0.0,0.0,0.0,0.0,0.0,0.0,0.0,0.0,0.0,0.0,0.0,0.0,-8.3558,0.0,0.0,0.0,0.0,0.0,0.0,0.0,0.0,0.0,0.0,0.0,0.0,0.0,0.0,0.0,0.0,0.0,0.0,0.0,0.0,0.0,0.0,-8.2345,-8.6753,-8.9767,-9.3098,-9.6819,-9.9796,-10.1758,-10.2434,-10.0337,-9.8781,-9.8037,0.0,0.0,0.0,0.0,0.0,0.0,0.0,0.0,0.0,0.0,0.0,0.0,0.0,0.0,0.0,0.0,0.0,0.0,0.0,0.0,0.0,0.0,0.0,0.0,0.0,0.0,-7.3736,-7.1962,-7.0807,0.0,0.0,0.0,0.0,0.0,0.0,0.0,0.0,0.0,0.0,-6.5423,-6.6768,-6.6275,-6.8099,-6.885,-6.6579,-6.6945,-6.6305,-6.3995,-6.5312,-6.643,0.0,0.0,0.0,0.0,0.0,0.0,0.0,0.0,0.0,0.0,0.0,0.0,0.0,0.0,0.0,0.0,0.0,0.0,0.0,0.0,0.0,0.0,0.0,0.0,0.0,0.0,0.0,-8.7675,-8.7161,0.0,0.0,0.0,0.0,0.0,0.0,0.0,0.0,0.0,0.0,0.0,-8.7955,-8.7685,0.0,0.0,0.0,0.0,0.0,0.0,0.0,0.0,0.0,0.0,0.0,0.0,-8.6075,-9.0305,-9.1512,-9.4112,-9.824,-10.0337,-10.1961,-10.3179,-10.2028,-10.0337,-9.8037,0.0,0.0,0.0,0.0,0.0,0.0,0.0,0.0,0.0,0.0,0.0,0.0,0.0,0.0,0.0,0.0,0.0,0.0,0.0,0.0,0.0,0.0,0.0,0.0,0.0,-7.812,0.0,0.0,0.0,0.0,0.0,0.0,0.0,0.0,0.0,0.0,0.0,-7.0798,-6.9598,-7.076,-7.1728,-7.1732,-7.3236,-7.4085,0.0,0.0,0.0,0.0,0.0,0.0,0.0,0.0,0.0,0.0,0.0,0.0,0.0,0.0,-6.2132,-5.5182,-5.1395,-4.9123,-4.8344,0.0,0.0,0.0,0.0,0.0,0.0,0.0,0.0,0.0,0.0,0.0,0.0,0.0,0.0,-9.2091,0.0,-9.0818,0.0,0.0,0.0,0.0,0.0,0.0,0.0,0.0,-8.8867,-9.0686,-9.2808,-9.1908,-9.175,0.0,-9.2768,-9.0662,0.0,0.0,0.0,0.0,0.0,0.0,0.0,0.0,-8.8632,-9.188,-9.2827,-9.5127,-9.8916,-10.0608,-10.2096,-10.3517,-10.2096,-9.9931,-9.6954,-9.4518,-9.3098,0.0,0.0,0.0,0.0,0.0,0.0,0.0,0.0,0.0,0.0,0.0,0.0,0.0,0.0,0.0,0.0,0.0,0.0,0.0,0.0,0.0,0.0,0.0,-7.7363,0.0,0.0,0.0,0.0,0.0,0.0,0.0,0.0,0.0,-7.4071,-7.3167,-7.2615,-7.2966,-7.382,-7.4473,-7.4674,0.0,0.0,0.0,0.0,0.0,0.0,0.0,-7.0898,-6.5739,-6.6027,-6.6297,-6.429,-6.3642,-6.3555,-6.4023,0.0,0.0,-5.3679,-5.0778,-4.9085,-4.7043,-4.5407,-4.4703,-4.5104,-4.5611,-4.5079,0.0,0.0,0.0,0.0,0.0,0.0,0.0,0.0,-9.3943,-9.5925,0.0,-9.4385,0.0,0.0,0.0,0.0,0.0,-8.9879,0.0,0.0,-9.3484,-9.589,-9.7881,-9.5495,-9.4409,-9.5083,-9.5798,-9.4095,-9.0324,-8.8158,0.0,0.0,0.0,0.0,0.0,0.0,-8.985,-9.1474,-9.3571,-9.6142,-9.9051,-10.054,-10.1961,-10.3314,-10.0608,-9.7766,-9.506,-9.4721,-9.4315,-9.3706,-9.6277,0.0,0.0,0.0,0.0,0.0,0.0,0.0,0.0,0.0,0.0,0.0,0.0,0.0,0.0,0.0,0.0,0.0,0.0,0.0,0.0,-7.8392,0.0,0.0,0.0,0.0,0.0,0.0,0.0,0.0,0.0,0.0,-7.3519,-7.3569,-7.3569,-7.3669,0.0,0.0,0.0,0.0,-7.5929,-7.3657,-7.4193,-7.3021,-6.7753,-6.8062,-6.7844,-6.4728,0.0,0.0,-6.6221,-6.3857,-6.2305,-6.3476,-6.3125,-6.0715,-5.4769,-5.4082,-5.2205,-4.6156,-4.489,-4.505,-4.5531,-4.5371,-4.5157,-10.4467,0.0,0.0,0.0,0.0,-10.0472,-10.2291,-10.4485,-10.5028,-10.4487,-10.3161,-10.049,0.0,0.0,0.0,0.0,0.0,0.0,-9.6381,-9.7554,-9.9843,-10.1892,-10.3585,-10.3862,-10.2945,-10.1125,-10.0689,-9.8084,-9.3436,-9.1135,-9.0053,-8.9985,0.0,0.0,0.0,0.0,-9.0594,-9.3571,-9.4383,-9.6413,-9.9863,-9.9796,-10.0202,-10.1149,-9.9322,-9.7901,-9.7089,-9.506,-9.4315,-9.5127,-9.4992,0.0,0.0,0.0,0.0,0.0,0.0,0.0,0.0,0.0,0.0,0.0,0.0,0.0,0.0,0.0,0.0,0.0,0.0,0.0,-8.2934,-7.8696,-7.6454,0.0,0.0,0.0,0.0,0.0,0.0,0.0,0.0,0.0,-7.4121,-7.3468,-7.3418,0.0,0.0,-7.4925,-7.623,-7.603,-7.5633,-7.5677,-7.5776,0.0,-6.8667,-6.8761,-6.7321,-6.1625,-6.1965,-6.3321,-6.4391,-6.3916,-6.3672,-6.4101,-6.418,-6.2098,-5.6104,-5.3796,-5.2017,-4.8373,-4.6085,-4.4997,-4.5344,-4.5611,-4.5825,-11.3717,-10.8285,-10.4173,-10.3293,-10.4761,-10.6156,-10.7918,-10.9753,-11.0267,-11.0267,-10.9592,-10.6283,-10.3888,-10.2361,-9.8379,0.0,0.0,0.0,-10.1044,-10.3171,-10.4889,-10.7038,-10.9411,-10.9482,-10.8211,-10.5829,-10.4554,-10.1302,-9.6413,-9.4451,-9.3233,-9.2556,0.0,0.0,-9.1203,-9.0729,-9.1677,-9.418,-9.4857,-9.6616,-9.966,-9.966,-9.9593,-9.9728,-9.8916,-9.8172,-9.7563,-9.5872,-9.4992,-9.533,-9.506,-9.4654,0.0,0.0,0.0,0.0,0.0,0.0,0.0,0.0,0.0,0.0,0.0,-8.1991,-8.3427,0.0,0.0,0.0,-8.3204,-8.318,-8.422,-7.9861,0.0,0.0,0.0,0.0,0.0,0.0,0.0,-7.4824,-7.4372,-7.4272,-7.4674,-7.4322,-7.4523,-7.5728,-7.5778,-7.608,-7.7084,0.0,-7.618,-7.7084,-7.6933,-7.502,-7.017,-6.9725,-6.7667,-6.142,-6.1562,-6.2695,-6.3515,-6.414,-6.4492,-6.4414,-6.4805,-6.2966,-5.6202,-5.4453,-5.2751,-4.8669,-4.6646,-4.5772,-4.5986,-4.6306,-4.6547,-12.1352,-11.9297,-11.1882,-10.8652,-10.8652,-11.0928,-11.1955,-11.2102,-11.2176,-11.4084,-11.6874,-11.1808,-11.0487,-11.1719,-10.5471,0.0,-10.161,-10.3203,-10.5416,-10.8211,-10.9084,-11.1432,-11.4782,-11.2872,-11.0893,-10.9111,-10.7112,-10.3763,-9.9311,-9.7698,-9.6277,-9.4721,-9.1203,-9.0053,-9.1338,-9.2083,-9.2827,-9.3571,-9.5127,-9.6886,-9.8916,-9.9728,-9.9728,-9.8916,-9.8916,-9.824,-9.6886,-9.6751,-9.6074,-9.4857,-9.5939,-9.6007,-9.4654,0.0,0.0,0.0,0.0,0.0,0.0,0.0,0.0,0.0,0.0,0.0,0.0,0.0,0.0,-8.2709,-8.1332,0.0,-8.5348,-8.1596,0.0,0.0,0.0,-7.8605,-7.6419,-7.5724,-7.5276,-7.5176,0.0,0.0,-7.5126,-7.5778,-7.6381,-7.6883,-7.7385,-7.7737,-7.7888,-7.7436,-7.7235,-7.7787,-7.7837,-7.6246,-7.1787,-7.0487,-6.8,-6.3239,-6.3086,-6.3555,-6.3711,-6.4297,-6.4648,-6.4375,-6.5,-6.348,-5.6783,-5.5993,-5.4008,-4.7882,-4.6772,-4.6894,-4.6814,-4.6787,-4.676,-12.3114,-12.3041,-11.9957,-11.7535,-11.592,-11.7094,-11.8342,-11.9517,-12.0178,-11.959,-11.7975,-11.6066,-11.3497,-11.0487,-10.883,-10.801,-10.7937,-10.9473,-11.1247,-11.313,-11.3957,-11.5128,-11.6487,-11.5408,-11.2886,-10.9292,-10.8746,-10.5528,-10.0124,-9.9051,-9.7563,-9.5533,-9.3503,-9.2421,-9.215,-9.2353,-9.2827,-9.3571,-9.5601,-9.7157,-9.824,-9.8984,-9.8713,-9.7428,-9.7428,-9.6954,-9.6074,-9.5533,-9.506,-9.4721,-9.4518,-9.3977,-9.303,-9.4361,0.0,0.0,0.0,0.0,0.0,0.0,0.0,0.0,0.0,-8.1691,-8.3846,0.0,-8.3666,0.0,-8.2431,-8.3195,-8.5687,-8.3931,0.0,0.0,-8.0481,-7.9318,-7.7211,-7.624,-7.5527,-7.4724,-7.4724,-7.4925,-7.5226,-7.6431,-7.7335,-7.7486,-7.7637,-7.8189,-7.9344,-7.8741,-7.834,-7.8792,-7.8942,-7.7753,-7.4265,-6.9871,-6.6095,-6.297,-6.2851,-6.3281,-6.3633,-6.4101,-6.4414,-6.4375,-6.4726,-6.3501,-5.9948,-5.7654,-5.4452,-5.0555,-4.7826,-4.6066,-4.6066,-4.5905,-4.5799,-12.4656,-12.4949,-12.4068,-12.2894,-12.1646,-12.1352,-12.1793,-12.26,-12.2747,-12.1499,-11.9443,-11.8269,-11.6066,-11.3203,-11.2836,-11.2836,-11.3277,-11.4158,-11.5259,-11.636,-11.6507,-11.6801,-11.7168,-11.5993,-11.3416,-10.9718,-10.8725,-10.5599,-10.087,-9.9593,-9.7969,-9.5804,-9.4992,-9.4045,-9.2962,-9.2624,-9.33,-9.506,-9.6616,-9.7563,-9.7969,-9.8104,-9.7698,-9.6886,-9.6548,-9.6074,-9.533,-9.5263,-9.4924,-9.4248,-9.4112,-9.3706,-9.303,-9.3774,-9.2258,0.0,0.0,0.0,0.0,0.0,0.0,0.0,0.0,0.0,0.0,0.0,-8.4265,-8.5282,-8.3726,-8.3759,-8.6941,-8.5004,-8.3134,-8.2451,-8.1152,-7.9599,-7.7401,-7.6267,-7.5477,-7.4875,-7.5276,-7.5678,-7.5979,-7.6783,-7.7436,-7.7687,-7.7938,-7.849,-7.9545,-7.9294,-7.8942,-7.8992,-7.9193,-7.794,-7.3949,-6.8431,-6.4178,-6.309,-6.3047,-6.3398,-6.3672,-6.4023,-6.4297,-6.4336,-6.4648,-6.3273,-5.9084,-5.6729,-5.4035,-4.9489,-4.6563,-4.5211,-4.5344,-4.5344,-4.5371,-12.5684,-12.583,-12.561,-12.561,-12.5684,-12.4215,-12.3555,-12.3408,-12.2674,-12.1866,-12.0912,-11.937,-11.8269,-11.7461,-11.6801,-11.6801,-11.7314,-11.7461,-11.7902,-11.8489,-11.7755,-11.7314,-11.7168,-11.5368,-11.3027,-11.0072,-10.7726,-10.4739,-10.1216,-9.9728,-9.7901,-9.5872,-9.5669,-9.4992,-9.3774,-9.2962,-9.3977,-9.6683,-9.7428,-9.7766,-9.7834,-9.7225,-9.6819,-9.6616,-9.5872,-9.5127,-9.4315,-9.4857,-9.4654,-9.3571,-9.4045,-9.418,-9.3639,-9.303,-9.1659,0.0,-8.8699,0.0,0.0,0.0,0.0,0.0,0.0,0.0,0.0,-8.2589,-8.4444,-8.8215,-8.5052,-8.4153,-8.8113,-8.558,-8.3729,-8.3679,-8.1828,-7.9715,-7.795,-7.615,-7.5176,-7.5226,-7.5728,-7.623,-7.6632,-7.6833,-7.7084,-7.7637,-7.8139,-7.8641,-7.9143,-7.9344,-7.9143,-7.8641,-7.8431,-7.655,-7.1771,-6.691,-6.3365,-6.305,-6.3203,-6.3594,-6.3594,-6.3984,-6.4297,-6.4336,-6.4609,-6.2798,-5.6968,-5.5677,-5.3003,-4.7931,-4.5664,-4.4516,-4.4783,-4.505,-4.5237,-12.5463,-12.6565,-12.5243,-12.5463,-12.6565,-12.5684,-12.4876,-12.4289,-12.4068,-12.3261,-12.1793,-12.0838,-11.9957,-11.915,-11.9003,-11.8636,-11.8195,-11.8856,-11.9223,-11.937,-11.8563,-11.7828,-11.7001,-11.4292,-11.1395,-10.8403,-10.6223,-10.347,-10.0405,-9.8916,-9.736,-9.5804,-9.5195,-9.4789,-9.4451,0.0,0.0,0.0,-9.6142,-9.648,-9.7089,-9.6954,-9.6345,-9.5127,-9.4383,0.0,-9.2015,-9.2083,-9.2286,-9.2624,-9.2759,0.0,0.0,0.0,0.0,0.0,0.0,0.0,0.0,0.0,0.0,0.0,-8.4025,-8.3965,-8.3427,-8.3487,-8.4743,-8.7556,-8.6162,-8.5526,-8.6958,-8.646,-8.6199,-8.6572,-8.2737,-8.0092,-8.0495,-7.7128,-7.4724,-7.5176,-7.5728,-7.608,-7.618,-7.6582,-7.7084,-7.7586,-7.8189,-7.854,-7.8641,-7.9093,-7.9143,-7.8436,-7.66,-7.3534,-7.0475,-6.7166,-6.3955,-6.2847,-6.2656,-6.3125,-6.3203,-6.3828,-6.4297,-6.4297,-6.4375,-6.4287,-6.2798,-5.8342,-5.3968,-5.2943,-4.8115,-4.4169,-4.4463,-4.4756,-4.497,-12.6491,0.0,-12.6051,-12.5904,0.0,-12.583,-12.5023,-12.3922,-12.3922,-12.2967,-12.1499,-12.1059,-12.0691,-12.0251,-11.9811,-11.937,-11.9003,-11.9003,-11.9003,-11.893,-11.8195,-11.7388,-11.6507,-11.3079,-11.0111,-10.7341,-10.4411,-10.1922,-9.9593,-9.8172,-9.6886,-9.5804,-9.506,-9.4518,-9.418,-9.3774,-9.4112,-9.5263,-9.5601,-9.6007,-9.6277,-9.6007,-9.5263,-9.418,-9.3436,0.0,0.0,0.0,0.0,0.0,0.0,0.0,0.0,-9.3774,0.0,-9.0163,-8.9559,-8.803,-8.5414,-8.4276,-8.3606,-8.3307,-8.3846,-8.4384,-8.4684,-8.4684,-8.5402,-8.6958,-8.6539,-8.6299,-8.6659,-8.6659,-8.6838,-8.6918,-8.2677,-7.9991,-8.0015,-7.6688,-7.4121,-7.4423,-7.5126,-7.5678,-7.5678,-7.6381,-7.6933,-7.7285,-7.7988,-7.844,-7.8239,-7.8591,-7.8842,-7.8336,-7.4422,-7.1361,-7.0084,-6.6227,-6.3402,-6.1952,-6.2265,-6.2656,-6.2695,-6.3437,-6.3984,-6.4023,-6.418,-6.3888,-6.1965,-5.7559,-5.3673,-5.1822,-4.768,-4.4299,-4.4222,-4.4463,-4.4703,-12.7813,-12.7299,-12.7005,-12.6491,-12.5904,-12.5757,-12.4803,-12.3261,0.0,0.0,0.0,-12.0912,-12.0838,-12.0618,-11.9957,-11.9517,-11.937,-11.8709,-11.8416,-11.8342,-11.7461,-11.658,-11.5534,-11.165,-10.8686,-10.6491,-10.2788,-10.0258,-9.8984,-9.7495,-9.6413,-9.5736,-9.4924,-9.418,-9.3639,-9.3571,-9.3909,-9.4518,-9.5195,-9.5601,-9.5601,-9.4992,-9.4315,-9.3368,-9.2624,-9.1541,-9.0053,-9.0594,-9.0729,-9.0459,-9.1541,-9.2353,-9.2624,-9.3233,-9.2114,-8.8987,-8.8455,-8.668,-8.361,-8.3071,-8.2888,-8.3068,-8.3726,-8.4564,-8.5641,-8.5701,-8.594,-8.6599,-8.6659,-8.6659,-8.6659,-8.6659,-8.6659,-8.6659,-8.2506,-7.9715,-7.9421,-7.6166,-7.382,-7.387,-7.4774,-7.5427,-7.5628,-7.6331,-7.6984,-7.7235,-7.7888,-7.8239,-7.7888,-7.8088,-7.839,-7.7881,-7.4117,-7.0682,-7.0263,-6.6396,-6.2953,-6.3684,-6.3046,-6.2657,-6.3207,-6.3601,-6.3711,-6.3711,-6.4023,-6.3246,-6.0718,-5.6919,-5.3387,-5.0607,-4.6812,-4.4008,-4.4035,-4.4195,-4.4463,-12.84,-12.884,-12.7519,-12.6858,-12.6711,-12.5977,-12.4803,-12.3261,-12.1866,-12.1132,-12.0912,-12.0912,-12.0471,-11.9737,-11.9664,-11.9223,-11.8563,-11.8489,-11.8416,-11.8342,-11.6874,-11.5773,-11.4727,-10.9711,-10.6885,-10.5604,-10.1421,-9.93,-9.8848,-9.6954,-9.5872,-9.5669,-9.4451,-9.3706,-9.3571,-9.3571,-9.3639,-9.3774,-9.4518,-9.4857,-9.4857,-9.4789,-9.4045,-9.2624,-9.188,-9.0729,-8.9309,-8.9376,-8.9918,-9.1068,-9.1338,-9.2015,-9.33,-9.3503,-9.2601,-9.0609,-8.9119,-8.7233,-8.5246,-8.3698,-8.3247,-8.4325,-8.5043,-8.5521,-8.5641,-8.5701,-8.6,-8.6599,-8.6659,-8.6659,-8.6659,-8.6659,-8.6659,-8.634,-8.2506,-7.9715,-7.9541,-7.6427,-7.4222,-7.4272,-7.5276,-7.613,-7.6482,-7.6783,-7.7285,-7.7988,-7.7988,-7.7787,-7.7737,-7.7737,-7.7837,-7.7382,-7.503,-7.3297,-7.2754,-6.8855,-6.6409,-6.8942,-6.5489,-6.3796,-6.553,-6.4867,-6.4147,-6.3711,-6.4023,-6.4015,-6.3246,-5.8452,-5.4587,-5.2559,-4.8255,-4.4218,-4.3982,-4.4035,-4.4275,-12.9354,-12.9134,-12.8033,-12.7299,-12.6785,-12.5096,-12.3995,-12.3188,-12.1572,-12.0912,-12.0912,-12.0912,-12.0398,-11.959,-11.915,-11.8489,-11.7755,-11.7314,-11.7094,-11.7021,-11.592,-11.4892,-11.3755,-10.9593,-10.6628,-10.4933,-10.1428,-9.9231,-9.8499,-9.7022,-9.621,-9.5736,-9.4315,-9.3571,-9.3571,-9.3571,-9.3571,-9.3571,-9.3909,-9.4112,-9.4112,-9.4112,-9.3571,-9.2489,-9.2083,-9.1406,-9.0324,-9.0256,-9.0594,-9.1271,-9.1677,-9.2218,-9.2895,-9.24,-9.1305,-8.9513,-8.7781,-8.5899,-8.4142,-8.3673,-8.3726,-8.4624,-8.5342,-8.5881,-8.624,-8.624,-8.6359,-8.6659,-8.6659,-8.6659,-8.6659,-8.6659,-8.6659,-8.6659,-8.2506,-7.9889,-7.9301,-7.627,-7.4071,-7.4423,-7.5377,-7.6281,-7.6833,-7.7385,-7.7737,-7.8088,-7.7837,-7.7687,-7.7737,-7.7988,-7.8139,-7.7935,-7.6028,-7.4546,-7.4361,-7.1091,-6.9208,-7.0312,-6.7356,-6.5555,-6.6118,-6.4977,-6.3677,-6.3437,-6.3867,-6.414,-6.4023,-5.8379,-5.4789,-5.2833,-4.8189,-4.4472,-4.3768,-4.3982,-4.4436,-13.0015,-12.9281,-12.84,-12.7446,-12.6197,-12.4142,-12.3188,-12.2894,-12.1499,-12.0765,-12.0618,-12.0838,-12.0324,-11.9297,-11.8636,-11.7902,-11.6947,-11.6287,-11.592,-11.5626,-11.4892,-11.4084,-11.304,-10.9447,-10.6594,-10.4473,-10.1548,-9.9396,-9.8024,-9.7225,-9.6413,-9.5533,-9.4248,-9.3571,-9.3571,-9.3571,-9.3571,-9.3571,-9.3571,-9.3571,-9.3571,-9.3571,-9.3233,-9.2489,-9.2421,-9.2083,-9.1338,-9.1338,-9.1406,-9.1541,-9.2083,-9.2489,-9.2575,-9.1903,-9.0481,-8.8455,-8.7233,-8.5819,-8.3852,-8.3879,-8.4384,-8.4923,-8.5521,-8.612,-8.6599,-8.6659,-8.6659,-8.6659,-8.6659,-8.6659,-8.6659,-8.6659,-8.6559,-8.5979,-8.2395,-7.9706,-7.9101,-7.6108,-7.4171,-7.4774,-7.5728,-7.6682,-7.7235,-7.7988,-7.834,-7.7988,-7.7888,-7.7888,-7.7938,-7.8289,-7.854,-7.8331,-7.7129,-7.6226,-7.5851,-7.3407,-7.2108,-7.2108,-6.8894,-6.7186,-6.6634,-6.5149,-6.3128,-6.3008,-6.3476,-6.3789,-6.3112,-5.8231,-5.4137,-5.2725,-4.7834,-4.3707,-4.3554,-4.4008,-4.4596,-13.0015,-12.9207,-12.84,-12.6785,-12.4729,-12.3701,-12.2894,-12.216,-12.1279,-12.0398,-11.9884,-12.0545,-11.9957,-11.8636,-11.8416,-11.7535,-11.6213,-11.6066,-11.5626,-11.4892,-11.4084,-11.3277,-11.2233,-10.8649,-10.6091,-10.4402,-10.1659,-9.9444,-9.8147,-9.7225,-9.621,-9.4857,-9.3977,-9.3571,-9.3571,-9.3571,-9.3571,-9.3571,-9.3571,-9.3571,-9.3571,-9.3571,-9.3233,-9.2489,-9.2421,-9.2083,-9.1406,-9.1338,-9.1609,-9.2218,-9.2421,-9.2759,-9.3368,-9.3385,-9.1802,-8.8589,-8.9578,-8.9113,-8.6339,-8.5759,-8.5618,-8.5641,-8.618,-8.6599,-8.6659,-8.6659,-8.6659,-8.6659,-8.6659,-8.6659,-8.6659,-8.6718,-8.6097,-8.4649,-8.1659,-7.9223,-7.814,-7.6355,-7.5327,-7.5829,-7.6783,-7.7737,-7.8239,-7.844,-7.849,-7.839,-7.834,-7.834,-7.839,-7.849,-7.8741,-7.9143,-7.8931,-7.8931,-7.8516,-7.6534,-7.5427,-7.6744,-7.1816,-6.8484,-6.7991,-6.572,-6.293,-6.2656,-6.2812,-6.3125,-6.1852,-5.7836,-5.3306,-5.2182,-4.8045,-4.3233,-4.3501,-4.3982,-4.4569,-12.9354,-12.8547,-12.7739,-12.6271,-12.4509,-12.3628,-12.282,-12.2013,-12.1279,-12.0691,-12.0324,-12.0178,-11.9223,-11.7755,-11.7682,-11.7094,-11.5993,-11.5479,-11.5112,-11.4672,-11.3497,-11.2469,-11.1426,-10.9164,-10.6937,-10.5032,-10.2563,-10.0628,-9.9259,-9.7643,-9.6345,-9.5398,-9.4586,-9.4045,-9.3639,-9.3571,-9.3571,-9.3571,-9.3571,-9.3571,-9.3571,-9.3571,-9.3436,-9.3165,-9.3098,-9.2962,-9.2692,-9.2624,-9.2827,-9.3098,-9.3098,-9.3233,-9.3571,-9.2668,-9.143,-8.9967,-8.9836,-8.9495,-8.8246,-8.7617,-8.7371,-8.7371,-8.6868,-8.6659,-8.6659,-8.6659,-8.6659,-8.6659,-8.6659,-8.6838,-8.7197,-8.7317,-8.6631,-8.4667,-8.233,-7.9919,-7.8089,-7.6625,-7.5929,-7.6532,-7.7486,-7.839,-7.8842,-7.8741,-7.854,-7.854,-7.854,-7.8591,-7.854,-7.8792,-7.9093,-7.9344,-7.9394,-7.9394,-7.9394,-7.8516,-7.7632,-7.6111,-7.2509,-6.9605,-6.7412,-6.5324,-6.2539,-6.2383,-6.25,-6.25,-6.2265,-5.6866,-5.2101,-5.0762,-4.7613,-4.318,-4.3474,-4.3875,-4.4329,-12.8547,-12.7666,-12.6932,-12.561,-12.4142,-12.3555,-12.2747,-12.1793,-12.1132,-12.0618,-12.0178,-11.9517,-11.8342,-11.7094,-11.7094,-11.6654,-11.5699,-11.5039,-11.4525,-11.4084,-11.291,-11.1882,-11.0781,-10.9459,-10.7597,-10.5547,-10.3616,-10.1858,-9.9996,-9.7934,-9.6616,-9.6007,-9.5195,-9.4451,-9.3909,-9.3706,-9.3571,-9.3571,-9.3571,-9.3571,-9.3571,-9.3571,-9.3571,-9.3571,-9.3571,-9.3571,-9.3571,-9.3571,-9.3571,-9.3571,-9.3571,-9.3571,-9.3571,-9.2359,-9.1678,-9.1496,-9.029,-8.9531,-8.9531,-8.9033,-8.852,-8.798,-8.7145,-8.6659,-8.6659,-8.6659,-8.6659,-8.6718,-8.6838,-8.7197,-8.7616,-8.7856,-8.6956,-8.4448,-8.2367,-8.0518,-7.7786,-7.6657,-7.6532,-7.7235,-7.8038,-7.8641,-7.8992,-7.8892,-7.8792,-7.8792,-7.8892,-7.8992,-7.9043,-7.9495,-7.9846,-7.9846,-7.9846,-7.9695,-7.9495,-7.9188,-7.805,-7.5427,-7.2371,-6.9251,-6.6565,-6.4007,-6.2187,-6.207,-6.207,-6.1953,-6.1446,-5.6692,-5.1341,-4.9328,-4.6461,-4.3197,-4.3153,-4.3581,-4.4008,-12.7666,-12.6858,-12.6051,-12.4803,-12.3408,-12.3334,-12.238,-12.1059,-12.0912,-12.0031,-11.8856,-11.8563,-11.7608,-11.6287,-11.6874,-11.636,-11.5039,-11.4818,-11.4011,-11.2763,-11.2469,-11.1588,-11.0047,-10.9166,-10.7597,-10.5663,-10.4563,-10.2685,-10.0179,-9.8002,-9.6886,-9.6751,-9.5466,-9.4721,-9.4518,-9.3909,-9.3571,-9.3571,-9.3571,-9.3571,-9.3571,-9.3571,-9.3571,-9.3571,-9.3571,-9.3571,-9.3571,-9.3571,-9.3571,-9.3571,-9.3571,-9.3571,-9.3571,-9.3453,-9.3335,-9.3231,-9.1534,-9.0372,-9.0224,-8.9806,-8.8836,-8.7326,-8.6915,-8.6659,-8.6659,-8.6659,-8.6659,-8.6659,-8.7257,-8.7676,-8.7736,-8.8274,-8.6706,-8.271,-8.1771,-7.9913,-7.6564,-7.6727,-7.7285,-7.8038,-7.839,-7.854,-7.8591,-7.9043,-7.9294,-7.9444,-7.9796,-8.0097,-8.0097,-8.0549,-8.08,-8.085,-8.075,-8.0599,-7.9695,-7.9545,-7.8149,-7.5001,-7.1936,-6.9295,-6.6607,-6.3955,-6.2649,-6.168,-6.1445,-6.1018,-6.0361,-5.7501,-5.2473,-4.9253,-4.586,-4.342,-4.5191,-4.401,-4.4472,-12.7299,-12.6051,-12.5243,-12.4289,-12.3261,-12.2747,-12.194,-12.0912,-12.0912,-12.0618,-11.9884,-11.8856,-11.8049,-11.7535,-11.6727,-11.614,-11.5479,-11.4525,-11.3717,-11.3057,-11.2102,-11.0781,-10.9312,-10.8872,-10.7892,-10.621,-10.4815,-10.2858,-10.0179,-9.836,-9.736,-9.6819,-9.5872,-9.5195,-9.4654,-9.3977,-9.3571,-9.3571,-9.3571,-9.3571,-9.3571,-9.3571,-9.3571,-9.3571,-9.3571,-9.3571,-9.3571,-9.3571,-9.3571,-9.3571,-9.3571,-9.3571,-9.3571,-9.3571,-9.3842,-9.4196,-9.4031,-9.3492,-9.2639,-9.1834,-9.0538,-8.8655,-8.7386,-8.6659,-8.6659,-8.6659,-8.6659,-8.6838,-8.7736,-8.8155,-8.7975,-8.8634,-8.7468,-8.3662,-8.2643,-8.0798,-7.7497,-7.6532,-7.7034,-7.7486,-7.8038,-7.854,-7.8741,-7.9344,-7.9896,-7.9947,-8.0398,-8.07,-8.075,-8.0951,-8.1102,-8.1051,-8.1001,-8.08,-8.0047,-7.9947,-7.8544,-7.4118,-7.0756,-6.8077,-6.5201,-6.3584,-6.207,-6.168,-6.125,-6.0742,-6.0166,-5.6397,-5.2133,-5.0468,-4.71,-4.6431,-4.8811,-4.7851,-4.7843,-12.6711,-12.561,-12.4803,-12.3995,-12.3261,-12.2453,-12.1646,-12.0912,-12.0912,-12.0765,-12.0251,-11.9003,-11.8269,-11.7828,-11.658,-11.5993,-11.5846,-11.4598,-11.3864,-11.3497,-11.2176,-11.0854,-10.9679,-10.9019,-10.8138,-10.656,-10.4629,-10.2552,-10.0739,-9.8924,-9.7698,-9.7225,-9.6277,-9.5669,-9.5263,-9.4248,-9.3774,-9.4112,-9.3842,-9.3706,-9.3842,-9.3706,-9.3571,-9.3571,-9.3571,-9.3571,-9.3571,-9.3571,-9.3571,-9.3571,-9.3571,-9.3571,-9.3571,-9.3571,-9.3909,-9.4654,-9.5398,-9.5025,-9.3366,-9.2659,-9.1267,-8.8807,-8.7542,-8.6659,-8.6659,-8.6659,-8.6659,-8.6898,-8.7616,-8.8215,-8.8334,-8.8993,-8.7761,-8.3885,-8.3085,-8.1283,-7.7013,-7.6532,-7.6933,-7.7285,-7.7988,-7.854,-7.8892,-7.9645,-8.0198,-8.0449,-8.0951,-8.1252,-8.1302,-8.1453,-8.1553,-8.1553,-8.1654,-8.1302,-8.08,-8.065,-7.7881,-7.3624,-7.1111,-6.8022,-6.4644,-6.301,-6.2109,-6.1719,-6.1172,-6.0586,-5.8558,-5.507,-5.324,-5.2235,-5.0522,-4.9154,-5.0891,-5.2117,-5.113,-12.5684,-12.5463,-12.4803,-12.3922,-12.3114,-12.2307,-12.1572,-12.0985,-12.0912,-12.0471,-11.9737,-11.8783,-11.8122,-11.7241,-11.6507,-11.6066,-11.5846,-11.5185,-11.4378,-11.3644,-11.2763,-11.1882,-11.0928,-10.9533,-10.8431,-10.7318,-10.3912,-10.2346,-10.1858,-9.9327,-9.7969,-9.7698,-9.6548,-9.621,-9.6751,-9.4857,-9.4383,-9.4992,-9.4315,-9.3977,-9.4518,-9.3909,-9.3571,-9.3571,-9.3571,-9.3571,-9.3571,-9.3571,-9.3571,-9.3571,-9.3571,-9.3571,-9.3571,-9.3639,-9.3977,-9.4789,-9.5466,-9.433,-9.2015,-9.2026,-9.0831,-8.7698,-8.6817,-8.6659,-8.6659,-8.6659,-8.6718,-8.6898,-8.7437,-8.8035,-8.8634,-8.9412,-8.7644,-8.2702,-8.2809,-8.1391,-7.7651,-7.6532,-7.7084,-7.7536,-7.8139,-7.8741,-7.9294,-7.9997,-8.0549,-8.1001,-8.1503,-8.1805,-8.1855,-8.2156,-8.2508,-8.2558,-8.2357,-8.1905,-8.1604,-8.0929,-7.6862,-7.3381,-7.1692,-6.9194,-6.4998,-6.2539,-6.2265,-6.1875,-6.1211,-6.0625,-5.9895,-5.6872,-5.5874,-5.4656,-5.2914,-5.2295,-5.3974,-5.4975,-5.2529,-12.4876,-12.4656,-12.3408,-12.2747,-12.238,-12.1572,-12.1132,-12.0912,-12.0912,-12.0398,-11.9664,-11.9297,-11.8489,-11.7388,-11.6947,-11.6507,-11.5993,-11.5699,-11.5185,-11.4305,-11.3057,-11.2029,-11.1148,-11.012,-10.8872,-10.7205,-10.3912,-10.2172,-10.1646,-9.9396,-9.8037,-9.7834,-9.7022,-9.6683,-9.6819,-9.5736,-9.5195,-9.4924,-9.4586,-9.4248,-9.3977,-9.3706,-9.3571,-9.3571,-9.3571,-9.3571,-9.3571,-9.3571,-9.3571,-9.3571,-9.3571,-9.3571,-9.3639,-9.4045,-9.4721,-9.5398,-9.6142,-9.5189,-9.2659,-9.2077,-9.0831,-8.7698,-8.6659,-8.6659,-8.6659,-8.6718,-8.6898,-8.7317,-8.7975,-8.8514,-8.8873,-9.013,-8.8353,-8.3349,-8.3472,-8.1768,-7.7311,-7.6281,-7.6532,-7.7134,-7.7938,-7.8741,-7.9495,-8.0348,-8.1302,-8.1553,-8.2056,-8.2357,-8.2407,-8.2508,-8.2658,-8.2658,-8.2558,-8.2357,-8.1754,-8.0866,-7.804,-7.4283,-7.1965,-6.9359,-6.5283,-6.2734,-6.2422,-6.2031,-6.1367,-6.0668,-5.9936,-5.9054,-5.7826,-5.7289,-5.6113,-5.671,-5.8055,-5.7381,-5.5496,-12.4289,-12.3922,-12.26,-12.2086,-12.2013,-12.1205,-12.0912,-12.0912,-12.0912,-12.0398,-11.9664,-11.9223,-11.8416,-11.7388,-11.6947,-11.6507,-11.5993,-11.5993,-11.5699,-11.5112,-11.3937,-11.2836,-11.1882,-11.0267,-10.8872,-10.7117,-10.3912,-10.2172,-10.2068,-9.9444,-9.8037,-9.7901,-9.7225,-9.7022,-9.7157,-9.6345,-9.5601,-9.5466,-9.4992,-9.4451,-9.4045,-9.3706,-9.3571,-9.3571,-9.3571,-9.3571,-9.3571,-9.3571,-9.3571,-9.3571,-9.3571,-9.3706,-9.3977,-9.4451,-9.5127,-9.6074,-9.6494,-9.5843,-9.367,-9.2768,-9.1122,-8.841,-8.7133,-8.6838,-8.6958,-8.7018,-8.7377,-8.8035,-8.8394,-8.8753,-8.9232,-9.0309,-8.888,-8.4238,-8.419,-8.2172,-7.8018,-7.6682,-7.7084,-7.7787,-7.849,-7.9243,-8.0298,-8.0951,-8.1905,-8.2106,-8.2457,-8.2658,-8.2658,-8.2658,-8.2658,-8.2658,-8.2658,-8.2257,-8.1604,-8.0439,-7.9127,-7.5725,-7.2235,-6.8906,-6.4948,-6.3523,-6.2773,-6.2539,-6.1992,-6.1719,-6.098,-6.0206,-5.9086,-5.8935,-5.8938,-5.928,-5.997,-6.0976,-5.9091,-12.3995,-12.3261,-12.238,-12.194,-12.1866,-12.1205,-12.0912,-12.0912,-12.0912,-12.0324,-11.9443,-11.9076,-11.8122,-11.7168,-11.6654,-11.636,-11.5993,-11.5993,-11.5993,-11.5699,-11.4965,-11.4011,-11.2689,-11.034,-10.8725,-10.7351,-10.4055,-10.2346,-10.2068,-9.9327,-9.8037,-9.7901,-9.7428,-9.7292,-9.7563,-9.6616,-9.6277,-9.6277,-9.5398,-9.4789,-9.4518,-9.3909,-9.3571,-9.3571,-9.3571,-9.3571,-9.3571,-9.3571,-9.3571,-9.3571,-9.3571,-9.3909,-9.4518,-9.4721,-9.5466,-9.6683,-9.6886,-9.6356,-9.5013,-9.3388,-9.1555,-8.935,-8.782,-8.6958,-8.7496,-8.7676,-8.8035,-8.8634,-8.8873,-8.9172,-8.9771,-9.0668,-8.8883,-8.5326,-8.3922,-8.1914,-7.8441,-7.7687,-7.8088,-7.8942,-7.9444,-7.9997,-8.1403,-8.1754,-8.2106,-8.2457,-8.2658,-8.2658,-8.2658,-8.2658,-8.2658,-8.2658,-8.2658,-8.2307,-8.1704,-8.0189,-7.8545,-7.5022,-7.173,-6.8529,-6.5308,-6.3877,-6.3086,-6.2851,-6.2617,-6.2422,-6.1874,-6.0979,-6.0283,-6.0129,-6.036,-6.1015,-6.1174,-6.1484,-5.9847,-12.3481,-12.3188,-12.1793,-12.1205,-12.1205,-12.0985,-12.0912,-12.0912,-12.0912,-12.0104,-11.915,-11.9811,-11.8709,-11.658,-11.7314,-11.7168,-11.6213,-11.5993,-11.5993,-11.5846,-11.5185,-11.3644,-11.1955,-11.0414,-10.9239,-10.801,-10.5041,-10.2738,-10.2034,-9.9513,-9.816,-9.8037,-9.7834,-9.7766,-9.7901,-9.7563,-9.6886,-9.621,-9.5804,-9.4924,-9.3977,-9.3774,-9.3571,-9.3571,-9.3571,-9.3571,-9.3571,-9.3571,-9.3571,-9.3571,-9.3571,-9.3909,-9.4721,-9.5263,-9.5939,-9.6819,-9.7428,-9.6884,-9.5277,-9.3526,-9.1555,-8.9712,-8.8279,-8.7496,-8.7676,-8.8155,-8.8693,-8.9352,-8.983,-9.0369,-9.1087,-9.1876,-9.0518,-8.6574,-8.3132,-7.9894,-7.8848,-7.834,-7.8591,-7.9294,-8.0097,-8.0951,-8.1604,-8.2156,-8.2457,-8.2608,-8.2658,-8.2658,-8.2658,-8.2658,-8.2658,-8.2658,-8.2608,-8.2307,-8.1678,-8.0098,-7.7633,-7.3858,-7.0705,-6.805,-6.5629,-6.403,-6.3398,-6.3047,-6.2812,-6.2617,-6.2305,-6.168,-6.1445,-6.0976,-6.1015,-6.1211,-6.0591,-6.0581,-5.7996,-12.3114,-12.2674,-12.1426,-12.0912,-12.0912,-12.0912,-12.0912,-12.0912,-12.0912,-12.0178,-11.9297,-11.9884,-11.893,-11.6801,-11.7461,-11.7168,-11.614,-11.5993,-11.5993,-11.5773,-11.4818,-11.335,-11.1808,-11.0634,-10.9753,-10.9064,-10.6222,-10.4385,-10.2952,-10.0644,-9.9231,-9.8499,-9.8172,-9.8037,-9.8037,-9.7969,-9.7292,-9.6142,-9.6007,-9.5398,-9.3774,-9.3909,-9.3842,-9.3706,-9.3571,-9.3571,-9.3571,-9.3571,-9.3571,-9.3639,-9.3909,-9.4383,-9.5127,-9.5872,-9.6548,-9.7292,-9.7766,-9.7472,-9.6192,-9.3936,-9.1985,-9.0664,-8.9083,-8.8116,-8.8215,-8.8933,-8.9771,-9.0429,-9.1087,-9.1566,-9.1876,-9.2027,-9.0561,-8.7441,-8.3115,-8.0014,-7.9399,-7.9243,-7.9595,-8.0298,-8.0951,-8.1553,-8.2056,-8.2457,-8.2608,-8.2658,-8.2658,-8.2658,-8.2658,-8.2658,-8.2658,-8.2658,-8.2658,-8.2457,-8.2143,-8.0947,-7.7425,-7.3676,-6.9228,-6.6792,-6.5709,-6.414,-6.3945,-6.3555,-6.3164,-6.2812,-6.2539,-6.2187,-6.1719,-6.1406,-6.1367,-6.1213,-6.0822,-6.0098,-5.7485,-12.2894,-12.216,-12.1279,-12.0912,-12.0912,-12.0912,-12.0912,-12.0912,-12.0912,-12.0398,-11.9737,-11.9664,-11.8856,-11.7241,-11.7461,-11.6874,-11.5993,-11.5993,-11.592,-11.5479,-11.4525,-11.335,-11.2469,-11.1148,-11.0414,-10.9797,-10.7995,-10.6262,-10.4541,-10.265,-10.0966,-10.0121,-9.9162,-9.8527,-9.858,-9.8337,-9.7469,-9.6345,-9.648,-9.5736,-9.4315,-9.4248,-9.4248,-9.3639,-9.3571,-9.3571,-9.3571,-9.3571,-9.3571,-9.3571,-9.4315,-9.4924,-9.5736,-9.648,-9.7157,-9.7766,-9.7969,-9.7845,-9.7153,-9.4208,-9.2191,-9.152,-8.9205,-8.8155,-8.8933,-9.001,-9.0908,-9.1506,-9.2284,-9.2703,-9.278,-9.1513,-8.9762,-8.775,-8.5256,-8.2871,-8.1079,-8.0348,-8.075,-8.1654,-8.1805,-8.2156,-8.2457,-8.2658,-8.2658,-8.2658,-8.2658,-8.2658,-8.2658,-8.2658,-8.2658,-8.2658,-8.2658,-8.2658,-8.2393,-8.1962,-7.7695,-7.3579,-6.8507,-6.5419,-6.5261,-6.4453,-6.4414,-6.418,-6.3672,-6.3242,-6.289,-6.25,-6.2031,-6.1719,-6.1601,-6.1719,-6.1719,-6.0677,-5.882,-12.3188,-12.2894,-12.1499,-12.0912,-12.0912,-12.0912,-12.0912,-12.0912,-12.0912,-12.0398,-11.9884,-12.0324,-11.9297,-11.7314,-11.7755,-11.7388,-11.614,-11.592,-11.5699,-11.5039,-11.4818,-11.4084,-11.3277,-11.2249,-11.1588,-11.0734,-10.9375,-10.7736,-10.6207,-10.4754,-10.3407,-10.2479,-10.1897,-10.1297,-9.9814,-9.9582,-9.8632,-9.6994,-9.6819,-9.6142,-9.4857,-9.4654,-9.4451,-9.3774,-9.3639,-9.3571,-9.3571,-9.3571,-9.3571,-9.3774,-9.4383,-9.5195,-9.5804,-9.6548,-9.7292,-9.7834,-9.8037,-9.7472,-9.5736,-9.38,-9.1953,-9.0994,-8.9599,-8.8993,-9.013,-9.0908,-9.1686,-9.2344,-9.3002,-9.3721,-9.4385,-9.2683,-9.0492,-8.8274,-8.5864,-8.3334,-8.1378,-8.1202,-8.1503,-8.1805,-8.2206,-8.2558,-8.2658,-8.2658,-8.2658,-8.2658,-8.2658,-8.2658,-8.2658,-8.2658,-8.2658,-8.2658,-8.2658,-8.2658,-8.1962,-8.0877,-7.6894,-7.32,-6.836,-6.5039,-6.4883,-6.4765,-6.4726,-6.4492,-6.4101,-6.3672,-6.3242,-6.2812,-6.2344,-6.2109,-6.1953,-6.2265,-6.2143,-6.1207,-5.9283,-12.3628,-12.3188,-12.194,-12.1205,-12.0912,-12.0912,-12.0912,-12.0912,-12.0912,-12.0618,-12.0398,-12.0691,-11.9664,-11.7828,-11.8122,-11.7535,-11.6287,-11.5993,-11.5553,-11.4965,-11.4818,-11.4598,-11.4231,-11.3644,-11.2983,-11.1939,-11.1485,-11.0051,-10.8123,-10.7025,-10.6025,-10.4544,-10.4189,-10.2659,-10.0917,-10.062,-9.9259,-9.7454,-9.7225,-9.6683,-9.5466,-9.5533,-9.5127,-9.4315,-9.4112,-9.3977,-9.3639,-9.3977,-9.4112,-9.4383,-9.5127,-9.5669,-9.5939,-9.6819,-9.7563,-9.7901,-9.8037,-9.7153,-9.5343,-9.3526,-9.1809,-9.0492,-8.9335,-8.9618,-9.0489,-9.1506,-9.2344,-9.3002,-9.3721,-9.4499,-9.5456,-9.4636,-9.218,-8.9045,-8.7169,-8.4914,-8.2253,-8.1654,-8.1955,-8.2156,-8.2457,-8.2608,-8.2658,-8.2658,-8.2658,-8.2658,-8.2708,-8.2708,-8.2658,-8.2658,-8.2658,-8.2658,-8.2658,-8.2443,-8.1529,-7.9294,-7.5585,-7.2214,-6.8848,-6.6218,-6.5273,-6.5156,-6.5078,-6.4687,-6.4219,-6.3945,-6.3515,-6.3086,-6.2773,-6.2617,-6.2617,-6.293,-6.2925,-6.2476,-5.9502,-12.3995,-12.3261,-12.2453,-12.1646,-12.0985,-12.0912,-12.0912,-12.0912,-12.0912,-12.0838,-12.0838,-12.0765,-11.9811,-11.8783,-11.8195,-11.7314,-11.636,-11.5993,-11.5626,-11.5185,-11.5112,-11.5039,-11.4965,-11.4745,-11.4231,-11.2983,-11.304,-11.1758,-11.0174,-10.9282,-10.8267,-10.6588,-10.5914,-10.4507,-10.2539,-10.1517,-10.0344,-9.7997,-9.7698,-9.7292,-9.6277,-9.6413,-9.6007,-9.5127,-9.4857,-9.4654,-9.4383,-9.4586,-9.4857,-9.4924,-9.6142,-9.6413,-9.648,-9.7157,-9.8037,-9.8037,-9.8037,-9.6839,-9.5009,-9.3369,-9.1918,-9.0587,-8.9638,-8.9755,-9.0908,-9.2045,-9.2943,-9.378,-9.4499,-9.5217,-9.5695,-9.5819,-9.349,-9.0008,-8.8636,-8.6597,-8.3028,-8.1855,-8.2206,-8.2508,-8.2608,-8.2658,-8.2658,-8.2658,-8.2658,-8.2708,-8.2759,-8.2759,-8.2759,-8.2809,-8.2859,-8.2859,-8.2859,-8.296,-8.2311,-7.814,-7.4446,-7.2433,-6.9337,-6.6827,-6.5547,-6.543,-6.5234,-6.4726,-6.4336,-6.4023,-6.3789,-6.3476,-6.3242,-6.3164,-6.3164,-6.3281,-6.3476,-6.3711,-5.9968,-12.4068,-12.3261,-12.2453,-12.1646,-12.0985,-12.0912,-12.0912,-12.0912,-12.0912,-12.0912,-12.0838,-12.0178,-11.9811,-11.9076,-11.7902,-11.6874,-11.6213,-11.5993,-11.592,-11.5699,-11.5699,-11.5699,-11.5699,-11.5626,-11.5185,-11.4451,-11.4011,-11.2876,-11.1815,-11.1083,-11.0352,-10.9404,-10.9093,-10.7401,-10.4754,-10.3303,-10.1769,-9.9125,-9.8431,-9.7631,-9.7089,-9.6819,-9.6616,-9.5736,-9.5601,-9.5466,-9.5398,-9.5466,-9.5601,-9.5736,-9.6413,-9.6751,-9.6886,-9.7563,-9.7969,-9.8037,-9.7856,-9.6655,-9.4312,-9.3385,-9.1894,-9.06,-9.0055,-9.0848,-9.1985,-9.2883,-9.3601,-9.4499,-9.5456,-9.6294,-9.6414,-9.6713,-9.4314,-9.0839,-8.8882,-8.7281,-8.3545,-8.2307,-8.2608,-8.2909,-8.2809,-8.2759,-8.2859,-8.296,-8.306,-8.316,-8.3261,-8.316,-8.306,-8.311,-8.3211,-8.316,-8.311,-8.3261,-8.3194,-7.7931,-7.3528,-7.2842,-7.0185,-6.6741,-6.5625,-6.5586,-6.5312,-6.4844,-6.4453,-6.414,-6.3945,-6.3789,-6.3594,-6.3398,-6.3476,-6.3633,-6.3906,-6.3937,-6.1322,-12.3775,-12.2674,-12.2233,-12.1646,-12.0985,-12.0912,-12.0912,-12.0912,-12.0912,-12.0912,-12.0765,-12.0471,-11.9957,-11.937,-11.8416,-11.7168,-11.6287,-11.5993,-11.5993,-11.5993,-11.5993,-11.5993,-11.5993,-11.5993,-11.5773,-11.5259,-11.4598,-11.3791,-11.313,-11.313,-11.2469,-11.2029,-11.1882,-11.0166,-10.7354,-10.5748,-10.3561,-10.1183,-9.9411,-9.8375,-9.7969,-9.7698,-9.7089,-9.6548,-9.6345,-9.6142,-9.5872,-9.621,-9.6345,-9.6548,-9.7428,-9.7698,-9.7766,-9.8037,-9.8375,-9.8048,-9.7489,-9.6135,-9.3783,-9.3077,-9.1949,-9.0605,-9.0788,-9.1746,-9.2763,-9.3421,-9.4139,-9.5157,-9.6234,-9.6892,-9.6593,-9.7192,-9.4723,-9.0849,-8.9628,-8.7521,-8.4262,-8.3592,-8.3361,-8.3361,-8.3311,-8.3261,-8.3211,-8.3361,-8.3512,-8.3612,-8.3763,-8.3663,-8.3462,-8.3612,-8.3763,-8.3663,-8.3612,-8.3562,-8.269,-7.8038,-7.4258,-7.3296,-7.0394,-6.7147,-6.5781,-6.582,-6.5469,-6.5,-6.4609,-6.4375,-6.418,-6.4101,-6.3867,-6.3789,-6.4101,-6.4336,-6.4453,-6.363,-6.1521,-12.3408,-12.2086,-12.2086,-12.1646,-12.0985,-12.0912,-12.0912,-12.0912,-12.0912,-12.0912,-12.0912,-12.0691,-12.0251,-11.9737,-11.8783,-11.7608,-11.6287,-11.614,-11.6066,-11.6287,-11.6066,-11.5993,-11.5993,-11.614,-11.6213,-11.6213,-11.5773,-11.4745,-11.4011,-11.4011,-11.4011,-11.3424,-11.3424,-11.2216,-10.9422,-10.7379,-10.5269,-10.2885,-10.0459,-9.9322,-9.8984,-9.8645,-9.7969,-9.7292,-9.7225,-9.7022,-9.6548,-9.6819,-9.7089,-9.7428,-9.8172,-9.8781,-9.8442,-9.8916,-9.9051,-9.8396,-9.7384,-9.5726,-9.4282,-9.3795,-9.2971,-9.1059,-9.1746,-9.2763,-9.3541,-9.4259,-9.4858,-9.5875,-9.6773,-9.7311,-9.7012,-9.6894,-9.4635,-9.1216,-8.955,-8.8582,-8.5347,-8.3864,-8.4014,-8.4014,-8.3914,-8.3813,-8.3813,-8.3763,-8.3914,-8.4064,-8.4215,-8.4165,-8.4064,-8.4265,-8.4416,-8.4265,-8.4165,-8.3964,-8.1959,-7.8095,-7.5446,-7.4634,-7.0604,-6.6396,-6.6015,-6.6133,-6.5703,-6.5273,-6.5039,-6.4805,-6.4609,-6.4492,-6.4453,-6.457,-6.4844,-6.5,-6.5039,-6.4586,-6.3177,-12.2894,-12.2086,-12.2086,-12.1646,-12.0985,-12.0912,-12.0912,-12.0912,-12.0912,-12.0912,-12.0838,-12.0178,-12.0178,-12.0031,-11.893,-11.7902,-11.7021,-11.636,-11.6287,-11.658,-11.6287,-11.5993,-11.614,-11.6801,-11.6874,-11.6947,-11.6874,-11.6066,-11.5112,-11.4378,-11.3864,-11.3791,-11.37,-11.2508,-11.0657,-10.8797,-10.5691,-10.3509,-10.121,-9.9796,-9.9322,-9.9593,-9.9051,-9.8375,-9.8307,-9.8307,-9.7563,-9.7631,-9.7766,-9.7969,-9.8645,-9.9051,-9.9119,-9.966,-9.9999,-9.9796,-9.9087,-9.7657,-9.5611,-9.5233,-9.4495,-9.2701,-9.3122,-9.4139,-9.4738,-9.5516,-9.6294,-9.7132,-9.7491,-9.7611,-9.7372,-9.6321,-9.3799,-9.1547,-8.9626,-8.7618,-8.5189,-8.4767,-8.4868,-8.4717,-8.4667,-8.4516,-8.4416,-8.4366,-8.4315,-8.4466,-8.4617,-8.4617,-8.4717,-8.4918,-8.5069,-8.4968,-8.4667,-8.4416,-8.2574,-7.8424,-7.6086,-7.5461,-7.0814,-6.6133,-6.6289,-6.6328,-6.6055,-6.5664,-6.5469,-6.5312,-6.5234,-6.5195,-6.5156,-6.5234,-6.543,-6.5508,-6.5508,-6.5051,-6.4669,-12.2234,-12.1426,-12.1426,-12.1205,-12.0912,-12.0912,-12.0912,-12.0912,-12.0912,-12.0912,-12.0838,-12.0545,-12.0104,-11.9443,-11.8195,-11.7241,-11.658,-11.614,-11.614,-11.6507,-11.6213,-11.6066,-11.6213,-11.6801,-11.7168,-11.7461,-11.7608,-11.7682,-11.658,-11.5626,-11.4965,-11.4892,-11.4892,-11.4415,-11.24,-11.0952,-10.877,-10.5943,-10.2902,-10.0666,-9.9999,-9.9931,-9.9728,-9.8713,-9.8984,-9.8713,-9.8307,-9.8037,-9.824,-9.8578,-9.9322,-9.9728,-9.9931,-10.0405,-10.0878,-10.0878,-10.1081,-9.9452,-9.6561,-9.6564,-9.529,-9.4365,-9.4439,-9.5217,-9.5755,-9.6533,-9.7192,-9.7431,-9.785,-9.8209,-9.7965,-9.6533,-9.4517,-9.22,-8.9828,-8.7813,-8.6102,-8.6015,-8.5822,-8.5621,-8.542,-8.532,-8.527,-8.532,-8.5219,-8.5169,-8.532,-8.537,-8.542,-8.5571,-8.5621,-8.5621,-8.527,-8.4868,-8.2572,-7.935,-7.6405,-7.465,-7.0251,-6.6789,-6.6562,-6.6523,-6.6328,-6.6133,-6.5937,-6.5859,-6.5898,-6.5742,-6.5586,-6.5742,-6.5937,-6.6055,-6.6172,-6.625,-6.4704,-12.2089,-12.1237,-12.0934,-12.0912,-12.0912,-12.0912,-12.0912,-12.0912,-12.0912,-12.0912,-12.0912,-12.0838,-11.9957,-11.8636,-11.7828,-11.7241,-11.636,-11.6066,-11.6287,-11.6434,-11.6434,-11.6507,-11.6947,-11.7461,-11.7902,-11.7828,-11.8416,-11.8563,-11.8195,-11.7388,-11.6507,-11.6287,-11.5846,-11.5406,-11.4523,-11.281,-11.0515,-10.6828,-10.3687,-10.1615,-10.0743,-10.0743,-10.0269,-9.9728,-9.9457,-9.9322,-9.8713,-9.8645,-9.8984,-9.939,-10.0134,-10.0472,-10.0608,-10.1419,-10.1961,-10.2231,-10.2705,-10.1855,-9.9386,-9.8113,-9.6899,-9.6098,-9.581,-9.6414,-9.7012,-9.7551,-9.773,-9.785,-9.8389,-9.8624,-9.818,-9.6402,-9.4214,-9.2141,-9.0363,-8.8458,-8.6894,-8.6599,-8.6425,-8.6224,-8.6123,-8.6324,-8.6274,-8.6374,-8.6274,-8.6023,-8.6023,-8.6023,-8.5973,-8.5973,-8.5922,-8.5872,-8.5722,-8.5248,-8.3856,-8.1071,-7.8023,-7.4289,-6.9888,-6.7355,-6.7167,-6.6953,-6.6836,-6.664,-6.6367,-6.668,-6.6875,-6.6406,-6.6094,-6.6601,-6.6992,-6.6836,-6.6875,-6.6953,-6.4399,-12.3159,-12.2089,-12.1237,-12.0912,-12.0912,-12.0912,-12.0912,-12.0912,-12.0912,-12.0912,-12.0912,-12.0765,-11.9811,-11.8709,-11.8122,-11.7608,-11.7094,-11.636,-11.6874,-11.7461,-11.7608,-11.7535,-11.7975,-11.8636,-11.9223,-11.9223,-11.9443,-11.9517,-11.9297,-11.8563,-11.7755,-11.7168,-11.658,-11.5699,-11.4502,-11.31,-11.0266,-10.6995,-10.4271,-10.2766,-10.1961,-10.1825,-10.1622,-10.0675,-10.0743,-10.0878,-10.0134,-9.9863,-9.9931,-10.0134,-10.0743,-10.1419,-10.1622,-10.2502,-10.3043,-10.3449,-10.4532,-10.3864,-10.2316,-10.0569,-9.9199,-9.8075,-9.7447,-9.7491,-9.797,-9.8269,-9.8448,-9.8508,-9.9047,-9.8542,-9.7114,-9.5119,-9.3612,-9.1911,-9.0113,-8.8499,-8.7253,-8.7153,-8.6927,-8.6776,-8.6776,-8.6877,-8.6977,-8.6977,-8.6826,-8.6575,-8.6224,-8.6224,-8.6023,-8.5973,-8.6023,-8.5973,-8.6023,-8.5849,-8.5572,-8.245,-7.7896,-7.4411,-7.0665,-6.8612,-6.7383,-6.7344,-6.7148,-6.6914,-6.668,-6.7265,-6.7734,-6.7305,-6.7226,-6.7773,-6.8008,-6.7851,-6.7578,-6.7461,-6.3675,-12.4044,-12.3159,-12.2174,-12.1348,-12.0912,-12.0912,-12.0912,-12.0912,-12.0912,-12.0912,-12.0838,-11.9884,-11.9297,-11.8783,-11.7461,-11.7388,-11.7682,-11.7094,-11.7608,-11.7975,-11.8122,-11.8195,-11.8636,-11.915,-11.959,-11.9737,-12.0031,-12.0398,-12.0324,-11.9517,-11.915,-11.8416,-11.7388,-11.636,-11.5065,-11.2814,-10.9636,-10.7219,-10.5091,-10.372,-10.3179,-10.3314,-10.3111,-10.1825,-10.1825,-10.1352,-10.0405,-10.0202,-10.0472,-10.0878,-10.1284,-10.1825,-10.2502,-10.3382,-10.3855,-10.4396,-10.575,-10.5887,-10.4988,-10.2784,-10.0175,-9.8205,-9.7964,-9.8209,-9.8508,-9.8568,-9.8808,-9.9107,-9.9765,-9.9312,-9.7631,-9.5728,-9.3975,-9.195,-8.999,-8.8564,-8.7831,-8.768,-8.758,-8.7479,-8.7379,-8.7329,-8.7429,-8.7529,-8.7329,-8.7077,-8.6726,-8.6374,-8.6224,-8.6123,-8.6123,-8.6174,-8.6274,-8.5168,-8.4597,-8.1054,-7.724,-7.4499,-7.1648,-6.9584,-6.7773,-6.75,-6.7305,-6.707,-6.6953,-6.7344,-6.7695,-6.8008,-6.832,-6.8711,-6.8828,-6.8828,-6.8476,-6.8047,-6.3452,-12.5042,-12.4113,-12.3164,-12.2036,-12.0934,-12.0912,-12.0912,-12.0912,-12.0912,-12.0691,-12.0471,-11.9297,-11.8709,-11.8416,-11.7682,-11.7094,-11.7755,-11.7755,-11.8122,-11.8489,-11.8783,-11.893,-11.9223,-11.9664,-12.0104,-12.0178,-12.0471,-12.0838,-12.0765,-12.0251,-11.9811,-11.9223,-11.8489,-11.7535,-11.565,-11.2623,-10.9632,-10.7481,-10.5911,-10.4599,-10.4126,-10.4261,-10.4329,-10.3246,-10.3246,-10.284,-10.2028,-10.1758,-10.169,-10.1961,-10.2231,-10.2637,-10.3314,-10.4058,-10.4599,-10.5479,-10.6426,-10.7238,-10.6615,-10.4423,-10.1047,-9.8493,-9.8209,-9.8448,-9.8568,-9.8688,-9.9167,-9.9825,-10.0359,-10.0188,-9.833,-9.6026,-9.395,-9.1886,-9.0135,-8.8584,-8.8484,-8.8383,-8.8283,-8.8232,-8.8182,-8.8283,-8.8735,-8.8785,-8.8032,-8.773,-8.7228,-8.6826,-8.6475,-8.6374,-8.6374,-8.6425,-8.6525,-8.4827,-8.3127,-8.0464,-7.7748,-7.4763,-7.2007,-6.9726,-6.8125,-6.7773,-6.7344,-6.7031,-6.7031,-6.7344,-6.7812,-6.8398,-6.8945,-6.9531,-6.9531,-6.9531,-6.9101,-6.8191,-6.4522,-12.6024,-12.5088,-12.4203,-12.2787,-12.1144,-12.0838,-12.0934,-12.1029,-12.0912,-12.0545,-11.9957,-11.9517,-11.8856,-11.8049,-11.8049,-11.8049,-11.8049,-11.8269,-11.8783,-11.9443,-11.959,-12.0031,-12.0398,-12.0691,-12.0618,-12.0838,-12.0912,-12.0912,-12.0912,-12.0691,-12.0324,-11.9642,-11.8959,-11.7889,-11.6718,-11.3306,-11.0406,-10.8104,-10.6403,-10.5476,-10.487,-10.487,-10.4802,-10.4532,-10.4464,-10.4193,-10.372,-10.3111,-10.3043,-10.3246,-10.3179,-10.3517,-10.4058,-10.5141,-10.5953,-10.6832,-10.7644,-10.8251,-10.8583,-10.5495,-10.224,-9.9042,-9.8448,-9.8568,-9.8688,-9.9047,-9.9825,-10.0603,-10.174,-10.0271,-9.8209,-9.6619,-9.486,-9.2946,-9.1587,-9.0263,-9.0392,-8.9287,-8.9237,-8.9237,-8.9337,-8.9538,-9.009,-9.0191,-8.9136,-8.8433,-8.7831,-8.7329,-8.6927,-8.6776,-8.6776,-8.6927,-8.6801,-8.472,-8.2849,-8.0761,-7.8251,-7.5229,-7.232,-6.9985,-6.832,-6.7773,-6.7383,-6.6992,-6.7109,-6.7422,-6.8164,-6.8867,-6.9648,-7.0351,-7.0195,-7.0078,-6.9687,-6.8362,-6.5029,-12.6077,-12.5164,-12.4859,-12.4024,-12.2689,-12.1408,-12.1296,-12.1726,-12.1237,-12.0691,-12.0398,-11.9884,-11.9811,-11.9443,-11.8783,-11.8783,-11.9517,-11.9076,-11.959,-12.0324,-12.0398,-12.0545,-12.0838,-12.0912,-12.0912,-12.0912,-12.0912,-12.0912,-12.0912,-12.0912,-12.0838,-12.0229,-11.8203,-11.6198,-11.4059,-11.1296,-10.8866,-10.7065,-10.6354,-10.6223,-10.5614,-10.5817,-10.5885,-10.5411,-10.5411,-10.5208,-10.4802,-10.4193,-10.399,-10.4193,-10.4058,-10.4329,-10.5276,-10.6426,-10.7103,-10.8185,-10.8927,-10.8266,-10.7251,-10.4826,-10.312,-10.0288,-9.8628,-9.8808,-9.9167,-9.9346,-10.0304,-10.168,-10.2997,-10.1949,-10.0854,-10.1382,-10.0069,-9.758,-9.5863,-9.4114,-9.3203,-9.1227,-9.0291,-9.0342,-9.0442,-9.0392,-9.0743,-9.0844,-9.004,-8.9287,-8.8735,-8.7981,-8.7479,-8.7379,-8.7329,-8.7529,-8.7044,-8.4697,-8.2355,-8.0799,-7.7223,-7.3027,-7.1341,-6.9859,-6.8672,-6.7851,-6.7422,-6.7031,-6.7265,-6.7578,-6.8594,-6.9648,-7.0625,-7.1172,-7.0937,-7.0781,-7.0586,-6.9324,-6.7063,-12.6312,-12.5726,-12.5343,-12.5131,-12.4509,-12.2713,-12.2153,-12.21,-12.133,-12.0765,-12.0324,-11.9811,-11.959,-11.9664,-11.937,-11.915,-12.0398,-12.0324,-12.0178,-12.0912,-12.0912,-12.0912,-12.0912,-12.0912,-12.0912,-12.0912,-12.0912,-12.0912,-12.0912,-12.0912,-12.0618,-11.9499,-11.6881,-11.4919,-11.2722,-11.0748,-10.8528,-10.7226,-10.69,-10.6832,-10.6629,-10.6697,-10.6629,-10.6291,-10.6156,-10.602,-10.5411,-10.4938,-10.4599,-10.4802,-10.4938,-10.5208,-10.6426,-10.7306,-10.805,-10.9268,-10.9936,-10.8619,-10.6376,-10.5691,-10.3286,-9.9468,-9.9228,-9.9406,-9.9945,-10.0423,-10.1381,-10.2698,-10.4194,-10.3772,-10.3227,-10.4093,-10.2979,-10.0475,-9.7844,-9.6279,-9.5077,-9.3055,-9.0994,-9.1095,-9.1246,-9.1246,-9.1195,-9.1095,-9.0844,-9.0241,-8.9639,-8.8835,-8.8082,-8.8032,-8.7981,-8.8132,-8.751,-8.5372,-8.3101,-8.1321,-7.6847,-7.1372,-6.9961,-6.9531,-6.8672,-6.7812,-6.7461,-6.7265,-6.7617,-6.8203,-6.9375,-7.039,-7.1133,-7.1562,-7.1601,-7.1484,-7.1406,-7.0132,-6.8315,-12.664,-12.6563,-12.5717,-12.5745,-12.6082,-12.4291,-12.3163,-12.2185,-12.133,-12.0398,-11.959,-11.9737,-11.959,-11.9003,-11.9297,-11.9737,-11.9957,-12.0545,-12.0765,-12.0838,-12.0912,-12.0912,-12.0912,-12.0912,-12.0912,-12.0912,-12.0912,-12.0912,-12.0912,-12.0618,-12.0251,-11.8718,-11.5351,-11.3715,-11.24,-11.061,-10.8624,-10.7643,-10.7306,-10.7238,-10.7238,-10.7035,-10.69,-10.6697,-10.6697,-10.6629,-10.6291,-10.5953,-10.5817,-10.5817,-10.5885,-10.6358,-10.7035,-10.7712,-10.893,-11.0012,-11.1027,-10.8722,-10.6165,-10.5786,-10.3805,-10.0612,-10.0364,-10.0483,-10.0842,-10.1501,-10.2518,-10.3835,-10.5331,-10.4657,-10.4302,-10.4324,-10.4277,-10.1457,-9.8614,-9.7157,-9.6236,-9.45,-9.2208,-9.1597,-9.1748,-9.1798,-9.1798,-9.1697,-9.1446,-9.0743,-9.0141,-8.9588,-8.8935,-8.8735,-8.8735,-8.8785,-8.7972,-8.6286,-8.3999,-8.1522,-7.7146,-7.1531,-7.0303,-6.9531,-6.8633,-6.8008,-6.789,-6.789,-6.8164,-6.8867,-7.0117,-7.0898,-7.1445,-7.1758,-7.1875,-7.1797,-7.164,-7.1292,-6.9471,-12.5794,-12.564,-12.487,-12.4639,-12.4723,-12.4156,-12.2925,-12.1524,-12.1035,-12.0398,-11.9664,-12.0251,-12.0251,-12.0251,-12.0398,-12.0471,-12.0618,-12.0765,-12.0838,-12.0912,-12.0912,-12.0912,-12.0912,-12.0912,-12.0912,-12.0912,-12.0912,-12.0912,-12.0765,-12.0398,-11.959,-11.8181,-11.4812,-11.3389,-11.1976,-11.0001,-10.8917,-10.805,-10.7779,-10.7644,-10.7373,-10.7103,-10.6967,-10.69,-10.69,-10.69,-10.6697,-10.6291,-10.6358,-10.7103,-10.6764,-10.7238,-10.9268,-10.9606,-11.0215,-11.0892,-11.1016,-10.979,-10.6617,-10.6199,-10.4941,-10.2123,-10.18,-10.2159,-10.2219,-10.2578,-10.3595,-10.4972,-10.6229,-10.6059,-10.6602,-10.6902,-10.696,-10.5502,-10.2241,-9.9314,-9.8174,-9.5123,-9.3054,-9.2049,-9.22,-9.22,-9.22,-9.22,-9.1898,-9.1145,-9.0542,-9.009,-8.9588,-8.9287,-8.9337,-8.9337,-8.8753,-8.7298,-8.394,-8.1197,-7.6714,-7.2668,-7.091,-6.9648,-6.8984,-6.8515,-6.8437,-6.8711,-6.914,-6.9922,-7.0898,-7.1484,-7.1758,-7.1836,-7.1953,-7.1914,-7.1836,-7.0904,-6.9228,-12.487,-12.4793,-12.4332,-12.4101,-12.4004,-12.3548,-12.2508,-12.135,-12.1383,-12.0961,-12.0178,-12.0618,-12.0912,-12.0838,-12.0838,-12.0838,-12.0838,-12.0838,-12.0912,-12.0912,-12.0912,-12.0912,-12.0912,-12.0912,-12.0912,-12.0912,-12.0912,-12.0912,-12.0618,-11.9664,-11.8783,-11.8153,-11.4737,-11.3511,-11.24,-11.0724,-10.9263,-10.8728,-10.8456,-10.805,-10.7644,-10.717,-10.6967,-10.69,-10.69,-10.69,-10.6967,-10.6494,-10.7238,-10.7982,-10.7576,-10.8524,-11.0215,-11.0553,-11.0756,-11.1298,-11.1225,-10.9335,-10.6716,-10.6774,-10.507,-10.3336,-10.3057,-10.3595,-10.3775,-10.4014,-10.4912,-10.5989,-10.7066,-10.8204,-10.9161,-11.0059,-11.0156,-11.0454,-10.6387,-10.2311,-9.9099,-9.6084,-9.4089,-9.2792,-9.2551,-9.2501,-9.2551,-9.2551,-9.23,-9.1497,-9.0994,-9.0693,-8.999,-8.9387,-8.9588,-8.9789,-8.9436,-8.8455,-8.4607,-8.0824,-7.71,-7.3277,-7.0989,-6.9726,-6.9219,-6.914,-6.918,-6.9687,-7.0312,-7.0976,-7.1484,-7.1719,-7.1953,-7.1992,-7.1447,-7.0824,-6.9965,-6.8792,-6.634,-12.4024,-12.3947,-12.3947,-12.3793,-12.3774,-12.3048,-12.2204,-12.149,-12.1953,-12.168,-12.0903,-12.0838,-12.0912,-12.0912,-12.0912,-12.0912,-12.0912,-12.0912,-12.0912,-12.0912,-12.0912,-12.0912,-12.0912,-12.0912,-12.0912,-12.0912,-12.0912,-12.0912,-12.0471,-11.9517,-11.8563,-11.8175,-11.523,-11.3486,-11.2845,-11.1151,-10.979,-10.9337,-10.8659,-10.8118,-10.8253,-10.7712,-10.69,-10.69,-10.69,-10.69,-10.7103,-10.7441,-10.805,-10.8321,-10.8862,-10.9606,-11.035,-11.0959,-11.1298,-11.1501,-11.1568,-10.965,-10.7839,-10.7349,-10.5881,-10.4492,-10.3775,-10.4553,-10.4912,-10.4852,-10.551,-10.6707,-10.7785,-10.8802,-10.9819,-11.0538,-11.0956,-10.9758,-10.6863,-10.3643,-10.0907,-9.7125,-9.3662,-9.2652,-9.2551,-9.2551,-9.2551,-9.2551,-9.23,-9.1647,-9.1145,-9.0944,-9.0392,-8.9588,-8.9839,-9.0191,-9.0021,-8.8701,-8.4188,-8.058,-7.753,-7.4106,-7.1412,-7.0117,-6.9805,-6.9844,-6.9922,-7.0508,-7.1133,-7.1406,-7.1836,-7.1953,-7.1992,-7.172,-7.1136,-6.9729,-6.8316,-6.6582,-6.3366,-12.3178,-12.3101,-12.2485,-12.2177,-12.2254,-12.2725,-12.2283,-12.1506,-12.223,-12.1658,-12.0279,-12.064,-12.0912,-12.0912,-12.0912,-12.0912,-12.0912,-12.0912,-12.0912,-12.0912,-12.0912,-12.0912,-12.0912,-12.0912,-12.0912,-12.0912,-12.0912,-12.0765,-12.0398,-11.9297,-11.8342,-11.8007,-11.543,-11.3735,-11.2934,-11.1116,-11.0171,-10.9541,-10.8591,-10.805,-10.8185,-10.7644,-10.69,-10.69,-10.69,-10.69,-10.717,-10.7644,-10.8321,-10.8862,-10.9606,-11.035,-11.1095,-11.1298,-11.1365,-11.1501,-11.1765,-11.018,-10.8681,-10.791,-10.6868,-10.5282,-10.4732,-10.5451,-10.575,-10.557,-10.6049,-10.7306,-10.8443,-10.946,-11.0358,-11.0956,-11.135,-10.9242,-10.728,-10.4918,-10.2585,-9.7929,-9.3284,-9.2702,-9.2601,-9.2601,-9.2601,-9.2451,-9.22,-9.1748,-9.1246,-9.0844,-9.0442,-8.9839,-9.0241,-9.0542,-9.0693,-8.8848,-8.4169,-8.0757,-7.7917,-7.4393,-7.1237,-7.0547,-7.039,-7.0586,-7.082,-7.1328,-7.1836,-7.1914,-7.1914,-7.1953,-7.1992,-7.172,-6.9729,-6.8003,-6.4911,-6.2631,-5.9709,-12.21,-12.1716,-12.1254,-12.1254,-12.1639,-12.21,-12.1936,-12.1638,-12.2342,-12.2001,-12.0919,-12.0896,-12.0961,-12.0934,-12.0912,-12.1007,-12.1007,-12.0912,-12.0912,-12.0912,-12.0912,-12.0912,-12.0912,-12.0912,-12.0545,-12.0471,-12.0324,-12.0178,-12.0104,-11.9223,-11.8342,-11.7955,-11.5773,-11.3834,-11.2666,-11.1338,-11.0208,-10.9202,-10.805,-10.7779,-10.7915,-10.7576,-10.717,-10.7103,-10.717,-10.717,-10.7306,-10.7847,-10.8659,-10.9403,-11.0147,-11.0756,-11.1298,-11.1365,-11.1568,-11.1906,-11.1953,-11.1309,-10.9459,-10.8464,-10.7919,-10.6194,-10.581,-10.6588,-10.6827,-10.6707,-10.7366,-10.8563,-10.9221,-11.0119,-11.1016,-11.1735,-11.2273,-11.1385,-10.8792,-10.6266,-10.2106,-9.7125,-9.4182,-9.3104,-9.2953,-9.2852,-9.2752,-9.2551,-9.23,-9.1999,-9.1497,-9.1195,-9.0693,-9.0241,-9.0643,-9.0657,-9.052,-8.8174,-8.3691,-8.089,-7.8521,-7.5002,-7.1094,-7.0976,-7.0937,-7.1328,-7.1719,-7.1875,-7.1953,-7.1953,-7.1992,-7.1992,-7.1992,-7.1992,-6.9142,-6.6026,-6.2631,-5.9326,-5.6442,-12.1177,-12.0331,-12.0331,-12.0716,-12.1408,-12.1562,-12.1578,-12.158,-12.2306,-12.2647,-12.2321,-12.1731,-12.1345,-12.1309,-12.1124,-12.1124,-12.1029,-12.1007,-12.1007,-12.0912,-12.0912,-12.0912,-12.0912,-12.0838,-12.0398,-11.9884,-11.959,-11.9517,-11.937,-11.8563,-11.7975,-11.7902,-11.643,-11.4622,-11.287,-11.1508,-11.0209,-10.8857,-10.7847,-10.7509,-10.7712,-10.7982,-10.7576,-10.7509,-10.7576,-10.7644,-10.7779,-10.8185,-10.9065,-10.9809,-11.0553,-11.1095,-11.1433,-11.1568,-11.1906,-11.2312,-11.2069,-11.1134,-10.9747,-10.9099,-10.7902,-10.679,-10.7157,-10.7426,-10.7605,-10.8144,-10.8802,-10.952,-11.0178,-11.0837,-11.1675,-11.2393,-11.2991,-11.2457,-10.9862,-10.6327,-10.0957,-9.6256,-9.4779,-9.3355,-9.3154,-9.3003,-9.2802,-9.2601,-9.2401,-9.2149,-9.1848,-9.1647,-9.1346,-9.0994,-9.0994,-9.0432,-8.9814,-8.6748,-8.2949,-8.1111,-7.9255,-7.4926,-7.1523,-7.1445,-7.1484,-7.1875,-7.2031,-7.1914,-7.1992,-7.1992,-7.1992,-7.1992,-7.1992,-7.2031,-6.7319,-6.3717,-6.1452,-5.8146,-5.4083,-12.11,-12.0331,-12.0331,-12.0408,-12.0639,-12.1331,-12.1592,-12.1678,-12.2473,-12.272,-12.2908,-12.3205,-12.3357,-12.3236,-12.2344,-12.1916,-12.1637,-12.133,-12.1007,-12.0912,-12.0912,-12.0912,-12.0765,-12.0545,-12.0251,-11.9664,-11.893,-11.8636,-11.8563,-11.7902,-11.7461,-11.7388,-11.5112,-11.3409,-11.1815,-11.0546,-10.9171,-10.7978,-10.7847,-10.7644,-10.7373,-10.7576,-10.7915,-10.7915,-10.7915,-10.8321,-10.8659,-10.8997,-10.9538,-11.0147,-11.0824,-11.1298,-11.1636,-11.1906,-11.2312,-11.2492,-11.2382,-11.115,-11.0125,-10.9107,-10.7736,-10.7183,-10.7485,-10.7964,-10.8383,-10.9041,-10.9819,-11.0717,-11.1316,-11.1735,-11.2453,-11.2991,-11.3322,-11.185,-10.96,-10.4062,-9.8644,-9.5912,-9.395,-9.3304,-9.3053,-9.2852,-9.2702,-9.2551,-9.2551,-9.23,-9.2049,-9.1848,-9.1748,-9.1597,-9.1396,-9.0781,-8.9919,-8.6349,-8.2694,-8.159,-7.9386,-7.5068,-7.2031,-7.1992,-7.2109,-7.2383,-7.2461,-7.2109,-7.2031,-7.2031,-7.2031,-7.2109,-7.2109,-7.1367,-6.558,-6.14,-5.9426,-5.6686,-5.2893]}]]